     2              OBSERVATION DATA    GPS                 RINEX VERSION / TYPE
ASRINEXO V2.2.0 UX USGS 28-MAR-94 15:18                     PGM / RUN BY / DATE
                                                            COMMENT
Original Marker Name: mjr1 mojave_NCMN_rm1_1983_NGS         COMMENT
Campaign Name: gorlock willow tie                           COMMENT
4-Character Station Name: MJR1                              COMMENT
6-Character Antenna Code: ASHL12                            COMMENT
Vertical Measurement Point: BBE                             COMMENT
Vertical Offset to Rinex Ref. Point: 0.0595                 COMMENT
Radial Measurement Point: EGP                               COMMENT
Radial Offset to Rinex Ref. Point: 0.1424                   COMMENT
Antenna Height from Field Measurement: 1.3340 m             COMMENT
Additional Antenna Identification Info.:                    COMMENT
Original Ashtech L1/L2                                      COMMENT
Original XYZ: -2323246.8500 -4649494.3700 3686847.2800      COMMENT
New XYZ position is based on association with SCEC monument COMMENT
E1F4C1B0+0011. Position of that monument is believed to be  COMMENT
valid to within 1 m horizontally; vertical accuracy         COMMENT
should be no worse than 3-times this value.                 COMMENT
                                                            COMMENT
Revised Rinex header created by UCSD GPS archive for        COMMENT
GSAC on 31-Aug-1999 (1999:243) 17:49:46 GMT                 COMMENT
For assistance contact dagnew@ucsd.edu or hjohnson@ucsd.edu COMMENT
                                                            COMMENT
MJR1 MOJAVE_NCMN_RM1_1983_NGS                               MARKER NAME
                                                            MARKER NUMBER
WKG US GEOLOGICAL SURVEY                                    OBSERVER / AGENCY
764 ASHTECH L-XII 7A                                        REC # / TYPE / VERS
598 ASHTECH GEODETIC L                                      ANT # / TYPE
 -2356425.0000 -4646613.0000  3668462.0000                  APPROX POSITION XYZ
        1.2669        0.0000        0.0000                  ANTENNA: DELTA H/E/N
     1     2     0                                          WAVELENGTH FACT L1/2
     3    C1    L1    L2                                    # / TYPES OF OBSERV
    30                                                      INTERVAL
  1994     3    23    16     9   30.000000                  TIME OF FIRST OBS
  1994     3    25     1    13   30.000000                  TIME OF LAST OBS
                                                            END OF HEADER
 94  3 23 16  9 30.0000000  0  2  4 14
  24988963.381     8220976.37814    -59352.813
  20244027.002     3304962.36218     47505.560 1
 94  3 23 16 10  0.0000000  0  2  4 14
  24982962.885     8189515.105 4    -83868.231
  20247862.876     3325135.403 8     63224.773 5
 94  3 23 16 10 30.0000000  0  3 19 22 14
  24398483.102     -265271.14914   -187965.268
  21214736.334    13184887.96818    -25357.210
  20251652.523     3345041.206 8     78735.741 7
 94  3 23 16 11  0.0000000  0  4 18 19 22 14
  22748775.840    11861156.16816   -175449.073
  24380900.814     -357639.045 4   -259937.320 1
  21212546.769    13173367.147 8    -34333.321 1
  20255503.177     3365263.541 8     94493.361 8
 94  3 23 16 11 30.0000000  0  4 18 19 22 14
  22734323.745    11785183.591 6   -234649.345
  24363395.512     -449666.235 4   -331646.757 1
  21210508.960    13162658.088 8    -42678.160 3
  20259495.843     3386258.548 8    110853.068 9
 94  3 23 16 12  0.0000000  0  6 18 19 25 22 29 14
  22719881.034    11709301.472 6   -293769.726
  24345905.171     -541544.204 4   -403239.895 1
  23878682.612      410569.76216    239824.344
  21208584.802    13152558.896 8    -50547.656 5
  21087073.343    11985639.69318    -77604.944
  20263603.299     3407825.047 8    127658.084 9
 94  3 23 16 12 30.0000000  0  6 18 19 25 22 29 14
  22705458.648    11633518.559 6   -352821.260 2
  24328462.436     -633256.924 5   -474704.314 2
  23895946.131      501275.573 6    310494.278 1
  21206780.441    13143080.596 8    -57933.372 6
  21079844.447    11947662.402 8   -107181.197 1
  20267817.632     3429979.447 8    144921.199 9
 94  3 23 16 13  0.0000000  0  6 18 19 25 22 29 14
  22691095.172    11558038.188 6   -411637.114 2
  24311075.972     -724601.299 5   -545881.663 2
  23913247.843      592233.458 5    381370.435 1
  21205136.709    13134436.795 8    -64668.787 7
  21072694.907    11910077.989 8   -136469.108 3
  20272185.188     3452936.180 8    162809.536 9
 94  3 23 16 13 30.0000000  0  6 18 19 25 22 29 14
  22676783.679    11482805.174 6   -470260.235 2
  24293751.776     -815614.544 5   -616801.027 2
  23930595.004      683404.524 5    452412.731 2
  21203643.473    13126581.747 8    -70789.621 7
  21065611.201    11872849.052 8   -165478.696 6
  20276696.285     3476636.028 8    181276.909 9
 94  3 23 16 14  0.0000000  0  6 18 19 25 22 29 14
  22662505.734    11407777.953 6   -528722.998 3
  24276494.612     -906323.762 5   -687483.483 2
  23947988.992      774768.470 5    523605.267 2
  21202296.566    13119476.610 8    -76326.096 7
  21058582.926    11835930.416 8   -194246.503 7
  20281338.841     3501033.874 8    200288.165 9
 94  3 23 16 14 30.0000000  0  6 18 19 25 22 29 14
  22648264.872    11332937.092 6   -587040.550 3
  24259289.493     -996741.948 5   -757939.183 2
  23965408.763      866301.069 5    594929.277 2
  21201079.018    13113106.991 8    -81289.441 8
  21051615.630    11799310.155 8   -222781.791 8
  20286109.349     3526112.906 8    219830.225 9
 94  3 23 16 15  0.0000000  0  6 18 19 25 22 29 14
  22634061.755    11258301.826 6   -645197.883 3
  24242145.052    -1086835.749 5   -828142.052 2
  23982864.718      958018.127 5    666397.010 2
  21200007.470    13107498.349 8    -85659.801 8
  21044707.542    11763010.632 8   -251067.158 9
  20291018.150     3551891.925 8    239917.725 9
 94  3 23 16 15 30.0000000  0  6 18 19 25 22 29 14
  22619900.249    11183898.978 6   -703174.125 3
  24225069.054    -1176571.331 5   -898065.849 2
  24000352.722     1049943.839 5    738027.312 2
  21199093.433    13102672.298 8    -89420.353 8
  21037865.259    11727053.651 8   -279085.599 9
  20296058.051     3578389.959 8    260565.496 9
 94  3 23 16 16  0.0000000  0  6 18 19 25 22 29 14
  22605795.194    11109774.103 6   -760933.752 3
  24208073.729    -1265912.666 5   -967682.426 2
  24017874.452     1142104.698 4    809840.887 2
  21198330.401    13098659.888 8    -92546.924 8
  21031097.654    11691479.366 8   -306805.843 9
  20301242.093     3605640.152 8    281799.363 9
 94  3 23 16 16 30.0000000  0  6 18 19 25 22 29 14
  22591745.480    11035935.950 6   -818469.953 4
  24191136.055    -1354850.340 5  -1036984.472 2
  24035473.828     1234489.840 5    881829.187 2
  21197720.983    13095456.894 8    -95042.741 8
  21024401.999    11656301.352 8   -334217.286 9
  20306576.600     3633654.839 8    303628.957 9
 94  3 23 16 17  0.0000000  0  6 18 19 25 22 29 14
  22577766.937    10962484.782 6   -875704.615 4
  24174316.229    -1443307.411 5  -1105911.999 2
  24053115.655     1327189.569 6    954062.634 2
  21197277.500    13093141.678 8    -96846.806 8
  21017798.591    11621598.601 8   -361258.417 9
  20312067.808     3662523.618 8    326124.055 9
 94  3 23 16 17 30.0000000  0  6 18 19 25 22 29 14
  22563868.529    10889435.988 6   -932625.756 4
  24157565.356    -1531299.431 5  -1174477.187 2
  24070809.465     1420212.872 5   1026548.237 2
  21197010.175    13091717.594 8    -97956.501 8
  21011284.790    11587368.686 8   -387931.089 9
  20317726.151     3692255.172 8    349291.447 9
 94  3 23 16 18  0.0000000  0  6 18 19 25 22 29 14
  22550048.216    10816834.537 6   -989198.305 4
  24140923.247    -1618775.935 5  -1242640.694 2
  24088578.914     1513595.799 5   1099314.028 2
  21196917.359    13091237.223 8    -98330.802 8
  21004869.052    11553650.791 8   -414204.783 9
  20323558.014     3722904.749 8    373174.192 9
 94  3 23 16 18 30.0000000  0  6 18 19 25 22 29 14
  22536304.411    10744607.610 6  -1045479.024 4
  24124355.276    -1705810.214 5  -1310459.534 2
  24106406.972     1607263.397 5   1172301.690 2
  21196991.438    13091640.562 8    -98016.484 8
  20998534.677    11520368.889 8   -440138.727 9
  20329556.441     3754412.629 8    397725.755 9
 94  3 23 16 19  0.0000000  0  6 18 19 25 22 29 14
  22522621.733    10672702.329 6  -1101509.116 4
  24107876.704    -1792456.502 5  -1377976.083 2
  24124278.949     1701173.124 6   1245477.952 2
  21197232.771    13092895.025 8    -97038.992 8
  20992277.229    11487480.734 8   -465765.892 9
  20335702.096     3786713.629 8    422895.298 9
 94  3 23 16 19 30.0000000  0  6 18 19 25 22 29 14
  22508988.791    10601076.889 6  -1157321.125 4
  24091454.973    -1878728.582 4  -1445201.063 2
  24142183.514     1795293.914 5   1318818.764 2
  21197628.497    13094989.112 8    -95407.227 8
  20986092.331    11454974.163 8   -491095.674 9
  20341995.070     3819789.571 8    448668.725 9
 94  3 23 16 20  0.0000000  0  6 18 19 25 22 29 14
  22495414.848    10529720.252 7  -1212923.693 4
  24075112.656    -1964637.933 4  -1512143.309 2
  24160142.252     1889622.710 6   1392321.559 2
  21198187.550    13097911.821 8    -93129.758 8
  20979976.085    11422839.568 8   -516135.622 9
  20348436.411     3853632.225 8    475039.579 9
 94  3 23 16 20 30.0000000  0  6 18 19 25 22 29 14
  22481889.142    10458640.099 7  -1268310.837 4
  24058807.094    -2050192.775 4  -1578809.345 2
  24178124.433     1984173.238 5   1465997.175 2
  21198895.480    13101653.693 8    -90214.030 8
  20973935.627    11391086.519 8   -540878.265 9
  20355020.992     3888238.341 8    502005.321 9
 94  3 23 16 21  0.0000000  0  6 18 19 25 22 29 14
  22468418.987    10387857.332 7  -1323466.221 4
  24042619.441    -2135366.737 3  -1645178.684 2
  24196171.699     2078961.626 6   1539858.124 2
  21199768.056    13106222.886 8    -86653.609 8
  20967966.729    11359731.200 8   -565310.986 9
  20361759.157     3923629.993 8    529583.176 9
 94  3 23 16 21 30.0000000  0  6 18 19 25 22 29 14
  22455010.110    10317403.978 7  -1378364.943 4
  24026480.024    -2220137.967 4  -1711234.126 2
  24214253.411     2174003.484 6   1613916.569 3
  21200797.453    13111630.662 8    -82439.756 8
  20962078.535    11328782.356 8   -589426.967 9
  20368649.827     3959853.824 8    557809.486 9
 94  3 23 16 22  0.0000000  0  6 18 19 25 22 29 14
  22441674.772    10247321.802 7  -1432974.427 5
  24010427.547    -2304466.591 4  -1776944.619 2
  24232397.061     2269325.487 5   1688193.344 3
  21201989.158    13117902.539 8    -77552.565 8
  20956271.135    11298272.546 8   -613200.849 9
  20375704.363     3996926.234 8    586697.034 9
 94  3 23 16 22 30.0000000  0  6 18 19 25 22 29 14
  22428396.064    10177529.224 7  -1487358.226 5
  23994461.830    -2388400.746 5  -1842347.827 2
  24250569.730     2364844.531 6   1762623.682 3
  21203333.068    13124975.334 8    -72041.309 8
  20950538.084    11268145.957 8   -636676.118 9
  20382905.588     4034766.660 8    616183.023 9
 94  3 23 16 23  0.0000000  0  6 18 19 25 22 29 14
  22415169.341    10108017.212 7  -1541523.420 5
  23978562.726    -2471924.873 5  -1907431.485 2
  24268784.460     2460562.961 6   1837209.338 3
  21204837.247    13132867.636 8    -65891.461 8
  20944878.692    11238407.106 8   -659849.248 9
  20390253.381     4073371.786 8    646264.886 9
 94  3 23 16 23 30.0000000  0  6 18 19 25 22 29 14
  22401994.302    10038785.370 7  -1595470.314 5
  23962759.167    -2555027.417 5  -1972186.644 2
  24287038.223     2556494.626 6   1911961.123 3
  21206499.086    13141594.971 8    -59090.940 8
  20939295.867    11209068.393 8   -682710.595 9
  20397742.886     4112737.530 8    676939.444 9
 94  3 23 16 24  0.0000000  0  6 18 19 25 22 29 14
  22388870.977     9969822.409 7  -1649207.694 5
  23947016.406    -2637707.240 5  -2036612.454 2
  24305340.883     2652635.649 5   1986876.074 3
  21208318.976    13151156.480 8    -51640.444 8
  20933791.857    11180137.795 8   -705253.933 9
  20405371.855     4152834.960 8    708184.144 9
 94  3 23 16 24 30.0000000  0  6 18 19 25 22 29 14
  22375798.917     9901138.958 7  -1702727.257 5
  23931372.366    -2719962.132 5  -2100707.130 2
  24323675.440     2749002.806 5   2061967.236 3
  21210299.945    13161559.254 8    -43534.391 8
  20928362.976    11151613.740 8   -727480.480 9
  20413141.156     4193676.732 8    740008.830 9
 94  3 23 16 25  0.0000000  0  6 18 19 25 22 29 14
  22362785.945     9832756.209 7  -1756012.512 5
  23915790.623    -2801804.070 5  -2164479.989 2
  24342047.561     2845591.777 3   2137231.239 3
  21212435.576    13172790.997 8    -34782.402 9
  20923010.092    11123482.902 8   -749400.621 9
  20421061.164     4235272.100 8    772420.770 9
 94  3 23 16 25 30.0000000  0  6 18 19 25 22 29 14
  22349837.669     9764714.410 7  -1809032.072 5
  23900304.693    -2883237.140 5  -2227934.250 2
  24360467.289     2942410.703 3   2212674.460 3
  21214732.197    13184853.921 8    -25382.758 9
  20917735.723    11095763.513 8   -771000.150 9
  20429122.643     4277639.763 8    805434.492 9
 94  3 23 16 26  0.0000000  0  6 18 19 25 22 29 14
  22336959.005     9697024.922 7  -1861777.115 5
  23884875.185    -2964284.253 5  -2291087.778 2
  24378931.177     3039454.862 3   2288293.081 3
  21217181.291    13197735.997 8    -15344.791 9
  20912539.001    11068454.427 8   -792279.975 9
  20437330.331     4320778.015 8    839048.646 9
 94  3 23 16 26 30.0000000  0  6 18 19 25 22 29 14
  22324146.865     9629687.104 7  -1914248.130 5
  23869512.650    -3044957.905 5  -2353950.306 2
  24397452.265     3136714.786 3   2364079.947 4
  21219785.078    13211423.874 8     -4678.913 9
  20907417.406    11041537.367 8   -813254.313 9
  20445687.435     4364690.922 8    873266.468 9
 94  3 23 16 27  0.0000000  0  6 18 19 25 22 29 14
  22311396.572     9562704.792 7  -1966442.130 5
  23854239.274    -3125266.776 5  -2416528.579 3
  24415975.782     3234179.229 3   2440026.078 4
  21222541.310    13225911.349 8      6609.996 9
  20902371.989    11015017.900 8   -833918.845 9
  20454189.939     4409373.137 8    908083.728 9
 94  3 23 16 27 30.0000000  0  6 18 19 25 22 29 14
  22298710.074     9496039.445 7  -2018389.134 5
  23839031.252    -3205219.053 5  -2478828.993 3
  24434585.399     3331840.464 3   2516125.606 4
  21225452.205    13241188.600 8     18514.328 9
  20897399.841    10988892.669 8   -854276.190 9
  20462833.915     4454809.049 8    943488.284 9
 94  3 23 16 28  0.0000000  0  6 18 19 25 22 29 14
  22286081.887     9429667.288 7  -2070107.704 5
  23823877.283    -3284798.135 5  -2540838.621 3
  24453196.844     3429687.305 4   2592369.694 3
  21228507.720    13257248.421 8     31028.459 9
  20892499.643    10963148.492 8   -874336.612 9
  20471625.359     4500994.113 8    979476.583 9
 94  3 23 16 28 30.0000000  0  6 18 19 25 22 29 14
  22273507.002     9363593.873 7  -2121593.473 5
  23808827.702    -3363963.802 5  -2602526.069 2
  24471856.346     3527735.750 4   2668770.947 3
  21231721.375    13274122.588 8     44177.132 9
  20887677.692    10937811.509 8   -894079.724 9
  20480562.741     4547959.405 8   1016072.856 9
 94  3 23 16 29  0.0000000  0  6 18 19 25 22 29 14
  22260988.478     9297805.667 7  -2172856.986 5
  23793838.109    -3442714.655 5  -2663890.311 2
  24490558.479     3625985.036 5   2745328.604 3
  21235081.599    13291814.772 8     57963.242 9
  20882937.403    10912897.066 8   -913493.570 9
  20489650.140     4595707.008 8   1053278.761 9
 94  3 23 16 29 30.0000000  0  6 18 19 25 22 29 14
  22248519.540     9232283.939 7  -2223912.865 5
  23778924.483    -3521054.552 5  -2724934.299 2
  24509296.047     3724425.240 5   2822035.172 3
  21238610.306    13310320.027 8     72382.918 9
  20878275.601    10888389.980 8   -932590.014 9
  20498879.611     4644231.711 8   1091090.164 9
 94  3 23 16 30  0.0000000  0  6 18 19 25 22 29 14
  22236106.784     9167051.105 7  -2274743.640 5
  23764101.275    -3598994.818 5  -2785666.941 2
  24528047.226     3823049.058 4   2898884.785 2
  21242282.554    13329647.883 8     87443.566 8
  20873688.206    10864293.025 8   -951366.873 9
  20508265.064     4693524.806 8   1129500.324 9
 94  3 23 16 30 30.0000000  0  6 18 19 25 22 29 14
  22223753.536     9102128.420 7  -2325332.727 5
  23749338.475    -3676525.825 5  -2846080.629 2
  24546868.197     3921874.146 6   2975891.149 2
  21246124.874    13349823.285 8    103164.668 8
  20869185.533    10840630.185 8   -969805.458 9
  20517789.350     4743589.334 8   1168511.610 9
 94  3 23 16 31  0.0000000  0  6 18 19 25 22 29 14
  22211470.379     9037569.640 7  -2375638.253 5
  23734666.183    -3753618.271 5  -2906152.589 2
  24565716.598     4020937.759 6   3053083.476 2
  21250127.583    13370875.302 8    119568.821 8
  20864768.931    10817420.087 8   -987891.258 9
  20527465.092     4794436.196 8   1208132.476 9
 94  3 23 16 31 30.0000000  0  6 18 19 25 22 29 14
  22199256.055     8973396.754 7  -2425643.085 5
  23720083.768    -3830260.177 5  -2965873.498 2
  24584609.099     4120249.294 5   3130469.087 2
  21254302.762    13392817.310 8    136666.501 8
  20860439.898    10794668.964 8  -1005619.425 9
  20537292.738     4846062.645 8   1248360.827 9
 94  3 23 16 32  0.0000000  0  6 18 19 25 22 29 14
  22187106.156     8909551.012 7  -2475393.002 5
  23705576.421    -3906507.567 5  -3025287.003 2
  24603545.340     4219754.405 6   3208005.359 2
  21258639.440    13415586.195 8    154408.468 8
  20856188.541    10772323.439 8  -1023031.525 9
  20547248.906     4898396.539 8   1289140.438 9
 94  3 23 16 32 30.0000000  0  5 18 19 22 29 14
  22175016.126     8846018.452 7  -2524898.885 5
  23691143.153    -3982351.160 5  -3084385.831 2
  21263122.057    13439160.741 8    172778.247 8
  20852009.674    10750369.202 9  -1040138.732 9
  20557344.537     4951445.188 8   1330477.001 9
 94  3 23 16 33  0.0000000  0  5 18 19 22 29 14
  22162985.484     8782793.135 7  -2574165.364 5
  23676794.816    -4057804.946 5  -3143180.975 2
  21267762.484    13463528.406 8    191766.022 8
  20847906.355    10728806.839 9  -1056940.599 9
  20567576.483     5005223.800 8   1372382.346 9
 94  3 23 16 33 30.0000000  0  5 18 19 22 29 14
  22151009.076     8719854.659 7  -2623208.310 5
  23662498.913    -4132880.806 5  -3201681.584 2
  21272546.033    13488670.070 8    211356.913 8
  20843880.832    10707641.016 9  -1073433.464 9
  20577952.660     5059745.787 8   1414866.961 9
 94  3 23 16 34  0.0000000  0  5 18 19 22 29 14
  22139087.918     8657211.882 7  -2672020.858 5
  23648292.138    -4207575.202 5  -3259884.936 2
  21277476.450    13514582.944 8    231548.780 8
  20839925.100    10686869.974 9  -1089618.697 9
  20588473.277     5115031.515 8   1457946.708 9
 94  3 23 16 34 30.0000000  0  5 18 19 22 29 14
  22127228.039     8594884.129 7  -2720587.922 5
  23634146.791    -4281891.007 5  -3317793.276 2
  21282558.531    13541286.777 8    252356.945 8
  20836052.381    10666512.289 9  -1105481.844 9
  20599144.149     5171106.533 8   1501641.477 9
 94  3 23 16 35  0.0000000  0  5 18 19 22 29 14
  22115427.638     8532885.004 7  -2768898.916 6
  23620076.541    -4355827.006 5  -3375405.673 2
  21287793.867    13568796.613 8    273793.184 8
  20832257.548    10646576.010 9  -1121016.623 9
  20609964.678     5227957.576 8   1545940.940 9
 94  3 23 16 35 30.0000000  0  5 18 19 22 29 14
  22103696.549     8471222.029 7  -2816947.969 6
  23606095.060    -4429367.685 5  -3432710.036 2
  21293182.427    13597116.318 8    295860.493 8
  20828546.957    10627056.209 9  -1136226.870 9
  20620925.480     5285565.289 8   1590830.027 9
 94  3 23 16 36  0.0000000  0  5 18 19 22 29 14
  22092024.640     8409897.147 7  -2864733.584 6
  23592155.850    -4502506.380 5  -3489701.114 2
  21298724.900    13626253.836 8    318565.068 8
  20824911.883    10607961.929 8  -1151105.539 9
  20632026.765     5343903.058 8   1636287.992 9
 94  3 23 16 36 30.0000000  0  5 18 19 22 29 14
  22080417.725     8348902.281 7  -2912262.015 5
  23578325.255    -4575240.732 5  -3546377.180 2
  21304428.961    13656210.146 8    341907.656 8
  20821359.733    10589303.602 9  -1165644.512 9
  20643262.057     5402948.472 8   1682297.367 9
 94  3 23 16 37  0.0000000  0  5 18 19 22 29 14
  22068872.448     8288225.671 7  -2959542.488 5
  23564550.391    -4647545.536 5  -3602718.491 2
  21310279.291    13686971.327 8    365877.409 8
  20817889.815    10571065.727 8  -1179855.842 9
  20654630.097     5462689.911 8   1728849.106 9
 94  3 23 16 37 30.0000000  0  5 18 19 22 29 14
  22057383.291     8227843.336 7  -3006593.646 6
  23550879.975    -4719433.764 5  -3658735.281 2
  21316283.564    13718520.924 8    390461.511 9
  20814495.085    10553233.257 8  -1193751.294 9
  20666130.046     5523121.333 8   1775938.469 9
 94  3 23 16 38  0.0000000  0  5 18 19 22 29 14
  22045946.959     8167743.141 7  -3053424.963 5
  23537282.678    -4790921.901 5  -3714440.267 2
  21322436.354    13750843.286 8    415647.785 9
  20811177.612    10535793.757 8  -1207340.522 9
  20677761.993     5584243.474 8   1823566.058 9
 94  3 23 16 38 30.0000000  0  5 18 19 22 29 14
  22034563.779     8107927.201 7  -3100034.773 6
  23523743.871    -4862013.242 5  -3769836.050 2
  21328734.095    13783935.092 8    441433.618 9
  20807928.251    10518719.171 8  -1220645.401 9
  20689526.389     5646073.064 8   1871744.940 9
 94  3 23 16 39  0.0000000  0  5 18 19 22 29 14
  22023238.669     8048420.741 7  -3146403.430 6
  23510299.109    -4932693.268 6  -3824911.334 2
  21335176.575    13817803.988 8    467824.962 9
  20804748.982    10502018.876 8  -1233658.640 9
  20701433.696     5708637.204 8   1920496.160 9
 94  3 23 16 39 30.0000000  0  5 18 19 22 29 14
  22011978.165     7989247.803 7  -3192512.195 6
  23496926.087    -5002982.549 6  -3879682.170 2
  21341773.268    13852462.544 8    494831.639 9
  20801648.199    10485720.409 8  -1246358.749 9
  20713483.494     5771952.130 8   1969832.429 9
 94  3 23 16 40  0.0000000  0  5 18 19 22 29 14
  22000784.694     7930414.753 7  -3238356.129 6
  23483620.848    -5072890.601 6  -3934155.905 2
  21348515.360    13887907.217 8    522450.864 9
  20798625.811    10469833.468 8  -1258738.187 9
  20725670.867     5836009.138 8   2019746.925 9
 94  3 23 16 40 30.0000000  0  5 18 19 22 29 14
  21989656.038     7871927.447 7  -3283930.633 6
  23470380.424    -5142422.869 6  -3988336.870 2
  21355409.927    13924135.146 8    550680.410 9
  20795682.389    10454369.475 8  -1270788.053 9
  20738001.960     5900795.055 8   2070229.428 9
 94  3 23 16 41  0.0000000  0  5 18 19 22 29 14
  21978574.240     7813701.341 7  -3329301.602 6
  23457209.642    -5211660.621 5  -4042288.281 3
  21362438.172    13961070.970 8    579461.576 9
  20792809.627    10439273.455 8  -1282551.181 9
  20750450.632     5966226.079 8   2121214.584 9
 94  3 23 16 41 30.0000000  0  5 18 19 22 29 14
  21967553.719     7755783.200 7  -3374432.601 6
  23444106.583    -5280540.414 5  -4095960.793 3
  21369613.884    13998779.984 8    608845.215 9
  20790017.151    10424601.658 8  -1293983.768 9
  20763030.223     6032337.759 8   2172730.121 9
 94  3 23 16 42  0.0000000  0  5 18 19 22 29 14
  21956588.720     7698166.969 7  -3419328.369 6
  23431074.784    -5349028.597 5  -4149328.158 3
  21376941.381    14037262.152 8    638831.317 9
  20787305.618    10410350.977 8  -1305088.192 9
  20775740.764     6099127.701 8   2224774.213 9
 94  3 23 16 42 30.0000000  0  5 18 19 22 29 14
  21945679.872     7640844.352 7  -3463995.328 6
  23418117.844    -5417123.223 5  -4202388.861 3
  21384409.242    14076509.658 8    669413.762 9
  20784671.162    10396500.682 8  -1315880.644 9
  20788579.436     6166592.206 8   2277343.905 9
 94  3 23 16 43  0.0000000  0  5 18 19 22 29 14
  21934829.543     7583815.696 7  -3508433.228 6
  23405241.518    -5484812.762 5  -4255133.819 3
  21392023.011    14116532.235 8    700600.187 9
  20782111.803    10383048.082 8  -1326363.187 9
  20801549.087     6234743.792 8   2330448.995 9
 94  3 23 16 43 30.0000000  0  5 18 19 22 29 14
  21924034.287     7527103.916 7  -3552624.207 6
  23392432.556    -5552091.035 5  -4307558.421 3
  21399786.736    14157330.709 8    732391.191 9
  20779630.541    10370004.817 8  -1336526.772 9
  20814649.388     6303590.965 8   2384096.113 9
 94  3 23 16 44  0.0000000  0  5 18 19 22 29 14
  21913315.297     7470777.878 7  -3596514.626 6
  23379706.816    -5618912.340 5  -4359626.921 3
  21407708.452    14198952.281 8    764823.581 8
  20777237.268    10357429.094 8  -1346326.046 9
  20827897.846     6373209.320 8   2438344.127 9
 94  3 23 16 44 30.0000000  0  5 18 19 22 29 14
  21902666.849     7414808.400 7  -3640127.157 6
  23367077.159    -5685321.388 5  -4411374.175 3
  21415778.565    14241366.026 8    797873.254 8
  20774923.770    10345292.845 8  -1355782.855 9
  20841284.809     6443567.635 8   2493168.764 9
 94  3 23 16 45  0.0000000  0  5 18 19 22 29 14
  21892074.972     7359146.191 7  -3683500.309 7
  23354515.076    -5751360.556 6  -4462833.205 3
  21423991.379    14284529.947 8    831507.453 8
  20772695.082    10333568.819 8  -1364918.479 9
  20854809.166     6514624.848 8   2548537.953 9
 94  3 23 16 45 30.0000000  0  5 18 19 22 29 14
  21881541.644     7303796.347 7  -3726630.044 7
  23342018.827    -5817021.020 5  -4513997.163 3
  21432350.852    14328452.308 8    865732.661 8
  20770541.373    10322259.497 8  -1373730.946 9
  20868462.794     6586378.460 8   2604449.808 9
 94  3 23 16 46  0.0000000  0  5 18 19 22 29 14
  21871066.865     7248754.726 7  -3769519.601 7
  23329602.952    -5882279.589 5  -4564847.905 3
  21440854.555    14373137.606 8    900552.357 8
  20768468.428    10311350.724 8  -1382231.304 9
  20882250.129     6658829.491 8   2660905.117 9
 94  3 23 16 46 30.0000000  0  5 18 19 22 29 14
  21860650.936     7194016.584 7  -3812172.685 7
  23317257.259    -5947138.663 5  -4615387.398 3
  21449502.998    14418596.842 8    935975.128 8
  20766470.971    10300852.227 8  -1390411.961 9
  20896169.673     6731984.214 8   2717908.746 9
 94  3 23 16 47  0.0000000  0  5 18 19 22 29 14
  21850290.798     7139573.054 7  -3854596.217 7
  23304984.505    -6011616.397 5  -4665629.712 3
  21458299.778    14464810.191 8    971985.505 8
  20764543.785    10290739.276 8  -1398292.194 9
  20910222.894     6805826.577 8   2775448.212 9
 94  3 23 16 47 30.0000000  0  5 18 19 22 29 14
  21839989.540     7085442.259 7  -3896776.034 7
  23292791.046    -6075710.913 5  -4715573.414 3
  21467237.431    14511770.225 8   1008577.731 8
  20762692.717    10281010.386 8  -1405873.154 9
  20924405.086     6880355.979 8   2833523.027 9
 94  3 23 16 48  0.0000000  0  5 18 19 22 29 14
  21829750.938     7031629.846 7  -3938707.778 7
  23280665.491    -6139434.336 5  -4765227.957 3
  21476311.039    14559459.955 8   1045738.536 8
  20760917.406    10271674.433 8  -1413147.926 9
  20938715.289     6955568.590 8   2892130.220 9
 94  3 23 16 48 30.0000000  0  5 18 19 22 29 14
  21819573.254     6978139.565 7  -3980388.516 7
  23268604.121    -6202799.278 6  -4814603.179 3
  21485525.190    14607887.068 8   1083473.944 8
  20759221.000    10262759.290 8  -1420094.798 9
  20953158.690     7031455.762 8   2951263.050 9
 94  3 23 16 49  0.0000000  0  5 18 19 22 29 14
  21809456.547     6924980.867 7  -4021810.857 7
  23256616.709    -6265792.967 5  -4863689.117 3
  21494880.784    14657054.955 8   1121786.571 8
  20757604.969    10254273.778 8  -1426706.887 9
  20967725.456     7107993.681 8   3010902.930 8
 94  3 23 16 49 30.0000000  0  5 18 19 22 29 14
  21799402.078     6872148.781 7  -4062978.718 7
  23244703.587    -6328417.248 6  -4912487.183 3
  21504380.217    14706964.938 8   1160677.471 8
  20756072.370    10246224.978 8  -1432978.679 9
  20982406.142     7185163.236 8   3071035.020 8
 94  3 23 16 50  0.0000000  0  5 18 19 22 29 14
  21789404.269     6819642.440 7  -4103892.731 7
  23232850.662    -6390666.344 6  -4960992.881 3
  21514021.513    14757638.259 8   1200163.162 8
  20754625.632    10238633.254 8  -1438894.315 9
  20997212.202     7262961.587 8   3131657.070 8
 94  3 23 16 50 30.0000000  0  5 18 19 22 29 14
  21779482.188     6767461.198 7  -4144553.408 7
  23221086.776    -6452532.136 6  -5009199.953 3
  21523813.514    14809084.106 8   1240250.836 8
  20753273.298    10231499.854 8  -1444452.801 9
  21012136.381     7341400.063 8   3192777.925 8
 94  3 23 16 51  0.0000000  0  5 18 19 22 29 14
  21769614.489     6715608.498 8  -4184958.098 7
  23209383.778    -6514012.984 6  -5057107.027 3
  21533742.670    14861284.130 8   1280926.167 8
  20751998.161    10224797.302 8  -1449675.556 9
  21027185.063     7420483.953 8   3254401.706 8
 94  3 23 16 51 30.0000000  0  5 18 19 22 29 14
  21759808.368     6664082.387 7  -4225108.301 7
  23197759.116    -6575100.539 6  -5104707.636 3
  21543820.763    14914222.947 8   1322177.198 8
  20750799.470    10218507.956 8  -1454576.347 9
  21042362.985     7500231.651 8   3316542.711 8
 94  3 23 16 52  0.0000000  0  5 18 19 22 29 14
  21750062.085     6612870.838 7  -4265013.404 7
  23186210.810    -6635801.876 6  -5152007.303 3
  21554027.287    14967882.952 8   1363990.174 8
  20749679.476    10212613.066 8  -1459169.763 9
  21057667.180     7580648.121 8   3379204.837 8
 94  3 23 16 52 30.0000000  0  5 18 19 22 29 14
  21740382.267     6561998.999 8  -4304653.794 7
  23174730.948    -6696106.991 6  -5198998.260 3
  21564378.671    15022259.790 8   1406361.736 8
  20748630.112    10207094.930 8  -1463469.626 9
  21073097.108     7661746.475 8   3442398.324 8
 94  3 23 16 53  0.0000000  0  5 18 19 22 29 14
  21730769.781     6511490.300 8  -4344011.204 7
  23163336.886    -6756004.105 6  -5245671.287 3
  21574864.902    15077369.192 8   1449304.113 8
  20747654.228    10201968.969 8  -1467463.869 9
  21088663.082     7743529.198 8   3506125.079 8
 94  3 23 16 53 30.0000000  0  5 18 19 22 29 14
  21721228.227     6461342.359 8  -4383087.499 8
  23152010.667    -6815496.520 6  -5292028.933 3
  21585490.686    15133216.282 8   1492821.353 8
  20746756.020    10197258.217 8  -1471134.575 9
  21104352.331     7825988.285 8   3570378.883 8
 94  3 23 16 54  0.0000000  0  5 18 19 22 29 14
  21711750.318     6411547.361 8  -4421888.788 8
  23140767.370    -6874608.414 6  -5338090.098 3
  21596259.621    15189791.793 8   1536906.144 8
  20745939.715    10192968.636 8  -1474477.120 9
  21120168.691     7909094.997 8   3635137.296 8
 94  3 23 16 54 30.0000000  0  5 18 19 22 29 14
  21702344.150     6362112.389 8  -4460409.531 8
  23129590.268    -6933337.590 6  -5383853.016 3
  21607163.642    15247094.845 8   1581557.884 8
  20745205.103    10189126.605 8  -1477470.906 9
  21136104.010     7992838.780 8   3700392.144 8
 94  3 23 16 55  0.0000000  0  5 18 19 22 29 14
  21692998.420     6312990.722 8  -4498686.154 8
  23118484.186    -6991696.834 6  -5429327.712 3
  21618202.030    15305105.600 8   1626761.068 8
  20744565.226    10185742.362 8  -1480107.986 9
  21152156.966     8077203.797 8   3766131.073 8
 94  3 23 16 55 30.0000000  0  5 18 19 22 29 14
  21683706.143     6264161.999 8  -4536734.527 8
  23107453.623    -7049682.097 6  -5474510.988 3
  21629371.248    15363812.608 7   1672506.785 8
  20744009.501    10182813.601 8  -1482390.155 9
  21168328.041     8162185.804 8   3832350.753 8
 94  3 23 16 56  0.0000000  0  5 18 19 22 29 14
  21674471.096     6215633.514 8  -4574548.911 8
  23096486.705    -7107293.384 6  -5519402.820 3
  21640680.888    15423225.820 8   1718802.798 8
  20743533.940    10180322.691 8  -1484331.107 9
  21184619.153     8247791.753 7   3899056.655 8
 94  3 23 16 56 30.0000000  0  5 18 19 22 29 14
  21665289.922     6167404.355 8  -4612130.055 8
  23085601.121    -7164520.644 6  -5563995.444 3
  21652121.328    15483357.872 8   1765658.937 8
  20743141.242    10178260.127 8  -1485938.315 9
  21201028.773     8334034.202 7   3966258.513 8
 94  3 23 16 57  0.0000000  0  5 18 19 22 29 14
  21656172.214     6119483.013 8  -4649471.368 8
  23074779.033    -7221356.237 6  -5608282.890 3
  21663703.120    15544221.829 8   1813085.386 8
  20742827.389    10176602.722 8  -1487229.818 9
  21217565.205     8420919.138 8   4033961.003 8
 94  3 23 16 57 30.0000000  0  5 18 19 22 29 14
  21647120.610     6071910.629 8  -4686540.763 8
  23064045.354    -7277788.700 6  -5652256.155 3
  21675429.083    15605831.638 8   1861093.031 7
  20742587.316    10175351.525 8  -1488204.776 9
  21234223.473     8508454.013 8   4102169.965 8
 94  3 23 16 58  0.0000000  0  5 18 19 22 29 14
  21638138.798     6024707.858 8  -4723322.131 8
  23053382.066    -7333815.143 6  -5695913.068 4
  21687291.810    15668189.924 8   1909683.907 7
  20742427.946    10174514.501 8  -1488857.013 9
  21251003.157     8596637.046 8   4170883.965 8
 94  3 23 16 58 30.0000000  0  5 18 19 22 29 14
  21629227.048     5977874.281 8  -4759815.842 8
  23042794.565    -7389433.430 6  -5739251.906 4
  21699298.438    15731269.202 8   1958836.598 7
  20742353.058    10174116.574 8  -1489167.100 9
  21267905.545     8685461.024 8   4240097.384 8
 94  3 23 16 59  0.0000000  0  5 18 19 22 29 14
  21620385.419     5931409.027 8  -4796022.513 8
  23032293.405    -7444643.061 6  -5782272.363 4
  21711434.727    15795047.784 8   2008534.199 7
  20742360.613    10174166.155 8  -1489128.474 9
  21284927.491     8774919.554 8   4309805.302 8
 94  3 23 16 59 30.0000000  0  5 18 19 22 29 14
  21611611.423     5885308.495 8  -4831945.002 8
  23021859.848    -7499461.155 6  -5824987.693 4
  21723700.795    15859507.693 8   2058762.703 7
  20742457.745    10174678.151 8  -1488729.520 9
  21302072.862     8865007.509 8   4380003.658 8
 94  3 23 17  0  0.0000000  0  5 18 19 22 29 14
  21602906.859     5839569.963 8  -4867585.384 8
  23011499.950    -7553891.594 6  -5867400.955 4
  21736095.984    15924646.078 7   2109519.892 7
  20742646.495    10175661.568 8  -1487963.208 9
  21319333.503     8955726.229 8   4450693.536 8
 94  3 23 17  0 30.0000000  0  5 18 19 22 29 14
  21594272.266     5794183.701 8  -4902951.295 8
  23001211.643    -7607942.173 6  -5909518.225 4
  21748616.126    15990450.544 7   2160796.114 7
  20742915.498    10177105.022 8  -1486838.448 9
  21336720.086     9047077.694 8   4521876.454 8
 94  3 23 17  1  0.0000000  0  5 18 19 22 29 14
  21585703.718     5749155.792 8  -4938037.959 8
  22991005.328    -7661606.186 6  -5951334.293 4
  21761270.636    16056945.111 7   2212610.058 7
  20743281.755    10178995.983 8  -1485364.970 9
  21354230.154     9139068.474 8   4593557.534 8
 94  3 23 17  1 30.0000000  0  5 18 19 22 29 14
  21577202.683     5704483.696 8  -4972847.382 8
  22980861.700    -7714896.241 6  -5992858.957 3
  21774055.285    16124131.463 8   2264963.070 7
  20743721.520    10181324.934 8  -1483550.211 9
  21371845.389     9231678.501 8   4665721.138 8
 94  3 23 17  2  0.0000000  0  5 18 19 22 29 14
  21568766.554     5660152.260 8  -5007391.338 8
  22970795.569    -7767798.377 6  -6034081.331 4
  21786973.252    16192009.637 7   2317855.155 7
  20744248.226    10184076.554 8  -1481406.077 9
  21389587.317     9324907.663 8   4738367.202 7
 94  3 23 17  2 30.0000000  0  5 18 19 22 29 14
  21560392.721     5616151.100 8  -5041677.950 9
  22960800.968    -7820315.408 6  -6075003.638 4
  21800024.177    16260592.464 8   2371296.308 7
  20744849.849    10187236.782 8  -1478943.559 9
  21407446.193     9418746.187 7   4811488.070 7
 94  3 23 17  3  0.0000000  0  5 18 19 22 29 14
  21552081.335     5572473.080 8  -5075712.761 9
  22950879.876    -7872453.724 6  -6115630.839 4
  21813213.786    16329893.578 8   2425297.180 7
  20745528.040    10190810.674 8  -1476158.728 9
  21425415.124     9513164.041 7   4885060.377 7
 94  3 23 17  3 30.0000000  0  5 18 19 22 29 14
  21543829.997     5529106.594 8  -5109504.823 9
  22941026.928    -7924230.672 6  -6155976.450 4
  21826533.745    16399903.696 7   2479850.497 7
  20746289.812    10194805.684 8  -1473045.737 9
  21443487.542     9608149.025 7   4959074.596 7
 94  3 23 17  4  0.0000000  0  5 18 19 22 29 14
  21535638.258     5486062.967 8  -5143045.278 9
  22931247.997    -7975635.536 6  -6196032.117 3
  21839991.938    16470630.412 7   2534962.226 7
  20747132.469    10199230.726 8  -1469597.643 9
  21461672.773     9703715.712 7   5033542.128 7
 94  3 23 17  4 30.0000000  0  5 18 19 22 29 14
  21527514.122     5443375.213 8  -5176308.459 9
  22921527.797    -8026677.071 6  -6235804.698 3
  21853589.475    16542078.618 8   2590636.137 7
  20748059.307    10204110.206 8  -1465795.455 9
  21479968.417     9799854.265 7   5108455.243 7
 94  3 23 17  5  0.0000000  0  5 18 19 22 29 14
  21519457.170     5401044.280 8  -5209293.584 9
  22911887.730    -8077361.670 6  -6275299.135 4
  21867318.051    16614220.659 7   2646850.724 7
  20749076.503    10209457.111 8  -1461629.035 9
  21498371.597     9896576.688 7   5183823.313 7
 94  3 23 17  5 30.0000000  0  5 18 19 22 29 14
  21511473.277     5359085.363 8  -5241988.846 9
  22902311.610    -8127672.708 6  -6314502.515 4
  21881173.829    16687040.175 7   2703593.179 7
  20750185.765    10215272.393 8  -1457097.663 9
  21516899.430     9993919.377 7   5259674.733 7
 94  3 23 17  6  0.0000000  0  5 18 19 22 29 14
  21503561.214     5317504.129 8  -5274389.806 9
  22892811.996    -8177600.535 6  -6353407.246 4
  21895159.986    16760518.192 7   2760848.763 7
  20751379.809    10221551.031 8  -1452205.220 9
  21535537.528    10091879.365 7   5336007.146 7
 94  3 23 17  6 30.0000000  0  5 18 19 22 29 14
  21495718.284     5276287.762 8  -5306506.454 9
  22883379.986    -8227157.094 6  -6392022.719 4
  21909262.343    16834638.738 7   2818605.003 7
  20752660.342    10228286.902 8  -1446956.500 9
  21554296.111    10190444.737 7   5412811.297 7
 94  3 23 17  7  0.0000000  0  5 18 19 22 29 14
  21487944.576     5235428.079 8  -5338345.175 9
  22874029.279    -8276318.559 6  -6430330.295 4
  21923488.185    16909397.040 7   2876858.207 7
  20754029.255    10235468.004 8  -1441360.864 9
  21573165.468    10289614.960 7   5490086.736 7
 94  3 23 17  7 30.0000000  0  5 18 19 22 29 14
  21480239.969     5194942.708 8  -5369892.203 9
  22864748.184    -8325078.682 6  -6468325.140 4
  21937835.802    16984791.067 7   2935606.791 7
  20755474.704    10243074.486 8  -1435433.741 9
  21592148.237    10389357.135 7   5567807.872 7
 94  3 23 17  8  0.0000000  0  5 18 19 22 29 14
  21472605.425     5154824.538 8  -5401153.098 9
  22855544.496    -8373451.406 6  -6506018.127 4
  21952304.866    17060825.599 7   2994854.458 7
  20757003.495    10251105.541 8  -1429175.772 9
  21611229.727    10489641.706 7   5645951.654 7
 94  3 23 17  8 30.0000000  0  5 18 19 22 29 14
  21465041.931     5115070.555 8  -5432130.230 9
  22846410.689    -8421446.179 6  -6543416.618 4
  21966897.233    17137505.344 7   3054604.867 7
  20758609.604    10259548.748 8  -1422596.660 9
  21630414.376    10590461.886 7   5724512.773 7
 94  3 23 17  9  0.0000000  0  5 18 19 22 29 14
  21457546.490     5075682.734 8  -5462822.014 9
  22837351.261    -8469058.904 6  -6580517.378 4
  21981609.099    17214829.771 7   3114857.669 7
  20760294.407    10268404.473 8  -1415696.100 9
  21649704.312    10691815.865 7   5803489.871 7
 94  3 23 17  9 30.0000000  0  6 18 19 28 22 29 14
  21450118.202     5036652.662 8  -5493235.049 9
  22828360.935    -8516296.488 6  -6617325.855 4
  25082870.460     -305149.57815   -268431.934 1
  21996450.534    17292809.201 7   3175620.840 7
  20762059.735    10277688.718 8  -1408461.630 9
  21669092.549    10793719.771 7   5882895.469 7
 94  3 23 17 10  0.0000000  0  6 18 19 28 22 29 14
  21442754.490     4997959.414 8  -5523385.641 9
  22819441.959    -8563159.970 6  -6653842.822 4
  25072975.990     -357124.838 5   -308932.070 1
  22011410.837    17371446.354 7   3236896.501 7
  20763911.883    10287414.602 8  -1400883.042 9
  21688592.790    10896181.360 7   5962735.602 7
 94  3 23 17 10 30.0000000  0  6 18 19 28 22 29 14
  21435457.841     4959621.590 8  -5553259.267 9
  22810599.790    -8609630.849 6  -6690053.850 4
  25063133.983     -408877.878 5   -349258.920 1
  22026508.925    17450756.804 7   3298696.847 7
  20765847.883    10297586.588 8  -1392956.830 9
  21708199.786    10999220.010 7   6043025.412 7
 94  3 23 17 11  0.0000000  0  6 18 19 28 22 29 14
  21428233.623     4921644.844 8  -5582851.534 9
  22801834.339    -8655698.692 6  -6725950.828 4
  25053328.731     -460394.581 5   -389401.686 1
  22041724.951    17530745.376 7   3361025.584 7
  20767874.240    10308227.019 8  -1384665.594 9
  21727917.796    11102831.387 7   6123761.499 7
 94  3 23 17 11 30.0000000  0  6 18 19 28 22 29 14
  21421074.729     4884033.116 8  -5612159.355 9
  22793137.809    -8701379.059 6  -6761545.885 4
  25043571.896     -511665.352 5   -429352.841 1
  22057075.734    17611401.755 7   3423874.689 7
  20769989.965    10319344.536 8  -1376002.587 9
  21747741.062    11207008.514 7   6204938.440 7
 94  3 23 17 12  0.0000000  0  6 18 19 28 22 29 14
  21413990.333     4846794.877 8  -5641176.177 9
  22784516.318    -8746690.586 6  -6796853.527 4
  25033857.541     -562678.894 4   -469103.523 1
  22072548.503    17692702.466 7   3487225.859 7
  20772191.671    10330930.091 8  -1366974.913 9
  21767671.864    11311740.690 7   6286547.859 6
 94  3 23 17 12 30.0000000  0  6 18 19 28 22 29 14
  21406973.331     4809915.946 8  -5669912.988 9
  22775962.909    -8791660.245 6  -6831894.791 4
  25024207.102     -613434.736 5   -508653.327 1
  22088133.903    17774622.948 7   3551059.996 7
  20774485.503    10342969.147 8  -1357593.815 9
  21787703.307    11417013.398 7   6368578.504 6
 94  3 23 17 13  0.0000000  0  6 18 19 28 22 29 14
  21400019.795     4773387.577 8  -5698376.647 9
  22767469.579    -8836304.846 6  -6866682.737 4
  25014589.700     -663935.392 4   -548004.326 1
  22103835.233    17857130.644 7   3615351.682 7
  20776862.707    10355463.809 8  -1347857.714 9
  21807836.619    11522813.391 7   6451020.019 6
 94  3 23 17 13 30.0000000  0  6 18 19 28 22 29 14
  21393135.091     4737206.123 8  -5726569.978 9
  22759031.770    -8880627.256 6  -6901219.629 4
  25005027.190     -714189.400 5   -587163.160 1
  22119645.268    17940213.256 7   3680091.374 6
  20779321.515    10368396.684 8  -1337780.146 9
  21828071.051    11629149.322 7   6533879.129 6
 94  3 23 17 14  0.0000000  0  6 18 19 28 22 29 14
  21386316.071     4701373.180 8  -5754491.748 9
  22750664.173    -8924595.308 6  -6935480.426 4
  24995501.854     -764193.429 4   -626127.265 1
  22135570.543    18023888.601 7   3745292.908 6
  20781868.402    10381765.514 8  -1327362.898 9
  21848410.380    11736023.873 7   6617157.961 6
 94  3 23 17 14 30.0000000  0  6 18 19 28 22 29 14
  21379564.206     4665891.667 8  -5782139.687 9
  22742367.896    -8968186.157 6  -6969447.272 4
  24986052.576     -813945.820 5   -664895.192 1
  22151609.380    18108176.850 7   3810972.050 6
  20784495.393    10395569.295 8  -1316606.712 9
  21868851.429    11843433.279 7   6700853.552 6
 94  3 23 17 15  0.0000000  0  6 18 19 28 22 29 14
  21372881.472     4630762.411 8  -5809513.134 9
  22734149.836    -9011384.752 6  -7003108.492 4
  24976624.013     -863446.452 3   -703466.970 1
  22167764.356    18193076.419 7   3877127.512 7
  20787205.487    10409804.833 8  -1305514.104 9
  21889386.883    11951376.461 7   6784965.044 6
 94  3 23 17 15 30.0000000  0  6 18 19 28 22 29 14
  21366261.065     4595971.548 8  -5836622.890 9
  22726005.884    -9054181.768 6  -7036456.764 4
  24967241.109     -912698.473 4   -741845.043 1
  22184036.731    18278595.032 7   3943765.387 6
  20789991.638    10424465.725 8  -1294090.042 9
  21910030.202    12059843.175 7   6869484.527 6
 94  3 23 17 16  0.0000000  0  6 18 19 28 22 29 14
  21359708.472     4561538.758 8  -5863453.629 9
  22717935.770    -9096574.777 6  -7069490.227 4
  24957916.664     -961686.992 3   -780017.782 2
  22200432.890    18364746.148 7   4010896.110 7
  20792867.907    10439572.256 8  -1282318.733 9
  21930771.913    12168834.104 7   6954412.468 6
 94  3 23 17 16 30.0000000  0  6 18 19 28 22 29 14
  21353223.931     4527475.121 8  -5889996.713 9
  22709939.676    -9138592.723 6  -7102231.437 4
  24948667.707    -1010408.587 5   -817982.528 2
  22216942.940    18451513.472 7   4078506.983 7
  20795826.049    10455117.523 8  -1270205.547 9
  21951609.917    12278347.401 7   7039747.459 6
 94  3 23 17 17  0.0010000  0  6 18 19 28 22 29 14
  21346813.768     4493787.510 8  -5916246.801 9
  22702011.005    -9180261.059 6  -7134700.233 5
  24939437.397    -1058863.801 4   -855739.772 2
  22233572.338    18538893.074 7   4146594.953 7
  20798869.392    10471109.682 8  -1257744.132 9
  21972553.688    12388385.474 7   7125491.344 6
 94  3 23 17 17 30.0010000  0  6 18 19 28 22 29 14
  21340478.884     4460495.204 8  -5942188.846 9
  22694152.185    -9221588.531 6  -7166903.420 5
  24930275.290    -1107044.394 4   -893282.889 2
  22250319.764    18626882.850 7   4215158.395 7
  20801996.468    10487553.914 8  -1244930.457 9
  21993584.968    12498936.040 7   7211634.581 6
 94  3 23 17 18  0.0010000  0  6 18 19 28 22 29 14
  21334221.676     4427609.114 8  -5967814.378 9
  22686346.819    -9262595.383 6  -7198856.769 5
  24921147.029    -1154943.082 3   -930606.363 2
  22267176.944    18715488.920 7   4284202.050 7
  20805213.331    10504453.647 8  -1231761.860 9
  22014722.974    12609996.703 7   7298175.294 6
 94  3 23 17 18 30.0010000  0  6 18 19 28 22 29 14
  21328038.876     4395122.377 8  -5993128.706 9
  22678601.201    -9303289.873 6  -7230566.719 5
  24912095.695    -1202558.633 4   -967709.192 2
  22284155.390    18804709.148 7   4353724.271 7
  20808517.523    10521809.179 8  -1218238.088 9
  22035955.505    12721565.698 7   7385112.105 6
 94  3 23 17 19  0.0010000  0  6 18 19 28 22 29 14
  21321926.677     4363009.681 8  -6018151.596 9
  22670919.409    -9343659.791 6  -7262023.760 5
  24903094.966    -1249902.363 4  -1004600.240 2
  22301245.749    18894527.462 7   4423712.552 7
  20811908.326    10539627.867 8  -1204353.397 9
  22057276.475    12833622.019 7   7472428.659 6
 94  3 23 17 19 30.0010000  0  7 18 19 27 28 22 29 14
  21315886.279     4331248.372 8  -6042900.669 9
  22663297.156    -9383701.076 6  -7293224.711 5
  25205093.507     1203639.59615   -262630.630 2
  24894122.298    -1296981.079 4  -1041284.748 2
  22318448.200    18984920.856 7   4494148.918 7
  20815382.291    10557894.721 8  -1190119.505 9
  22078689.331    12946138.956 7   7560104.150 6
 94  3 23 17 20  0.0010000  0  7 18 19 27 28 22 29 14
  21309909.736     4299839.541 8  -6067375.072 9
  22655739.328    -9423406.836 6  -7324164.226 5
  25193421.117     1142322.741 5   -310409.963 2
  24885222.659    -1343786.867 4  -1077756.629 2
  22335755.398    19075888.245 7   4565032.593 7
  20818944.784    10576605.541 8  -1175539.650 9
  22100183.611    13059109.946 7   7648133.426 6
 94  3 23 17 20 30.0010000  0  7 18 19 27 28 22 29 14
  21303998.039     4268788.029 8  -6091571.049 9
  22648256.268    -9462749.595 6  -7354820.882 5
  25181783.804     1081219.238 4   -358022.987 2
  24876362.832    -1390318.104 3  -1114014.602 2
  22353171.002    19167406.596 7   4636345.554 7
  20822590.441    10595761.980 8  -1160612.563 9
  22121771.756    13172542.340 7   7736522.246 6
 94  3 23 17 21  0.0010000  0  7 18 19 27 28 22 29 14
  21298159.821     4238102.173 8  -6115482.104 9
  22640844.739    -9501702.886 6  -7385174.065 5
  25170209.297     1020318.772 5   -405477.827 2
  24867569.470    -1436575.673 4  -1150059.323 2
  22370695.190    19259468.872 7   4708082.364 7
  20826317.940    10615361.875 8  -1145339.925 9
  22143443.633    13286430.853 7   7825266.492 6
 94  3 23 17 21 30.0010000  0  7 18 19 27 28 22 29 14
  21292394.902     4207805.783 8  -6139089.679 9
  22633504.651    -9540263.260 7  -7415221.067 5
  25158663.690      959625.618 5   -452771.124 2
  24858820.836    -1482538.603 4  -1185874.497 2
  22388318.130    19352092.380 7   4780256.495 6
  20830133.579    10635408.184 8  -1129719.447 9
  22165202.779    13400795.582 7   7914381.790 6
 94  3 23 17 22  0.0010000  0  7 18 19 27 28 22 29 14
  21286701.333     4177897.906 8  -6162394.536 9
  22626240.889    -9578424.088 6  -7444956.753 5
  25147149.770      899147.962 5   -499896.496 1
  24850136.508    -1528197.156 5  -1221452.491 2
  22406051.573    19445275.856 7   4852866.950 6
  20834038.585    10655919.895 8  -1113736.312 9
  22187061.007    13515654.717 7   8003882.364 6
 94  3 23 17 22 30.0010000  0  7 18 19 27 28 22 29 14
  21281079.685     4148359.112 8  -6185411.789 9
  22619055.554    -9616191.423 7  -7474385.814 5
  25135684.538      838905.242 5   -546838.943 1
  24841491.273    -1573554.142 4  -1256795.521 2
  22423888.865    19539012.122 7   4925908.169 6
  20838033.020    10676903.892 8  -1097385.184 9
  22209014.659    13631016.496 7   8093774.573 6
 94  3 23 17 23  0.0010000  0  7 18 19 27 28 22 29 14
  21275528.398     4119184.900 8  -6208144.934 9
  22611940.459    -9653586.533 7  -7503524.837 5
  25124259.897      778905.654 4   -593591.785 1
  24832929.890    -1618609.725 4  -1291903.672 2
  22441836.720    19633326.574 7   4999399.915 6
  20842110.617    10698351.578 8  -1080672.703 9
  22231059.868    13746873.623 7   8184052.794 6
 94  3 23 17 23 30.0010000  0  7 18 19 27 28 22 29 14
  21270049.991     4090376.522 8  -6230593.014 9
  22604893.688    -9690623.316 7  -7532384.614 5
  25112893.296      719158.413 4   -640147.945 1
  24824412.817    -1663349.824 5  -1326766.049 2
  22459895.228    19728225.615 7   5073347.207 6
  20846281.240    10720267.805 8  -1063595.130 9
  22253209.524    13863237.349 7   8274725.776 6
 94  3 23 17 24  0.0010000  0  7 18 19 27 28 22 29 14
  21264635.619     4061934.368 9  -6252755.734 9
  22597910.022    -9727313.363 7  -7560974.224 5
  25101569.145      659658.458 4   -686511.473 1
  24815952.404    -1707785.739 4  -1361391.385 2
  22478063.341    19823709.067 7   5147749.862 6
  20850541.381    10742653.047 8  -1046152.085 9
  22275442.222    13980092.569 7   8365781.738 6
 94  3 23 17 24 30.0010000  0  7 18 19 27 28 22 29 14
  21259295.506     4033883.115 8  -6274613.874 9
  22590994.830    -9763664.306 7  -7589299.601 5
  25090299.047      600399.161 4   -732687.475 1
  24807551.290    -1751922.782 4  -1395783.787 2
  22496346.843    19919788.714 7   5222617.067 6
  20854887.502    10765491.378 8  -1028356.010 9
  22297771.904    14097425.182 7   8457209.674 6
 94  3 23 17 25  0.0010000  0  7 18 19 27 28 22 29 14
  21254038.136     4006243.425 9  -6296151.287 9
  22584140.255    -9799672.624 7  -7617358.012 5
  25079071.910      541369.477 3   -778684.532 1
  24799220.357    -1795754.515 5  -1429938.288 2
  22514746.186    20016469.979 7   5297953.095 6
  20859321.672    10788782.060 8  -1010207.431 9
  22320188.255    14215236.995 7   8549011.032 6
 94  3 23 17 25 30.0010000  0  7 18 19 27 28 22 29 14
  21248855.533     3979024.675 8  -6317360.707 9
  22577356.701    -9835335.945 7  -7645147.568 5
  25067873.222      482570.916 3   -824501.501 1
  24790935.413    -1839274.948 5  -1463850.244 2
  22533251.415    20113735.035 7   5373744.013 6
  20863845.211    10812550.191 8   -991686.814 9
  22342697.422    14333528.349 7   8641186.042 6
 94  3 23 17 26  0.0010000  0  7 18 19 27 28 22 29 14
  21243756.843     3952226.870 9  -6338242.110 9
  22570634.365    -9870644.025 7  -7672660.322 5
  25056732.395      424013.677 3   -870130.416 2
  24782704.341    -1882483.762 4  -1497519.357 2
  22551873.353    20211580.957 7   5449987.563 6
  20868457.847    10836795.488 8   -972794.395 9
  22365298.986    14452287.220 7   8733725.364 6
 94  3 23 17 26 30.0010000  0  7 18 19 27 28 22 29 14
  21238737.208     3925842.201 8  -6358801.608 9
  22563987.337    -9905589.281 7  -7699890.335 5
  25045630.901      365701.279 3   -915568.547 2
  24774549.296    -1925367.457 5  -1530935.136 2
  22570601.148    20309995.681 7   5526674.321 6
  20873159.312    10861511.895 8   -953534.879 9
  22387990.517    14571521.004 7   8826634.748 6
 94  3 23 17 27  0.0010000  0  7 18 19 27 28 22 29 14
  21233791.322     3899844.655 8  -6379059.425 9
  22557402.455    -9940175.005 7  -7726840.178 5
  25034587.116      307633.796 3   -960815.818 2
  24766448.425    -1967933.481 5  -1564103.317 2
  22589429.014    20408944.929 7   5603777.623 6
  20877954.103    10886699.837 8   -933907.898 9
  22410768.028    14691217.429 6   8919904.670 6
 94  3 23 17 27 30.0010000  0  7 18 19 27 28 22 29 14
  21228918.645     3874237.558 9  -6399013.021 9
  22550898.368    -9974383.748 7  -7753496.329 5
  25023584.583      249819.031 3  -1005866.178 2
  24758408.890    -2010170.368 5  -1597015.032 2
  22608361.627    20508419.771 7   5681290.452 6
  20882840.300    10912369.689 8   -913905.442 9
  22433629.092    14811363.410 6   9013524.835 6
 94  3 23 17 28  0.0010000  0  7 18 19 27 28 22 29 14
  21224118.429     3849013.541 9  -6418668.086 9
  22544453.370   -10008220.716 7  -7779862.714 5
  25012617.305      192243.282 3  -1050730.305 2
  24750438.128    -2052077.008 5  -1629669.425 2
  22627388.525    20608407.891 7   5759203.236 6
  20887809.870    10938489.405 8   -893552.420 9
  22456576.346    14931940.902 7   9107481.278 6
 94  3 23 17 28 30.0010000  0  7 18 19 27 28 22 29 14
  21219396.937     3824199.166 9  -6438003.965 9
  22538087.966   -10041683.772 7  -7805937.793 5
  25001724.376      134904.465 3  -1095409.783 2
  24742534.040    -2093633.681 5  -1662051.077 2
  22646509.708    20708912.841 7   5837518.743 6
  20892868.658    10965079.380 8   -872832.984 9
  22479603.254    15052957.017 7   9201779.505 6
 94  3 23 17 29  0.0010000  0  7 18 19 27 28 22 29 14
  21214753.991     3799811.022 8  -6457007.717 9
  22531790.736   -10074772.195 7  -7831720.923 5
  24990844.698       77803.295 3  -1139904.118 2
  24734686.163    -2134830.195 5  -1694152.138 2
  22665737.796    20809934.645 7   5916236.984 6
  20898020.262    10992148.976 8   -851739.800 9
  22502712.037    15174403.084 6   9296412.757 5
 94  3 23 17 29 30.0010000  0  7 18 19 27 28 22 29 14
  21210198.465     3775858.688 8  -6475671.861 9
  22525561.708   -10107500.511 7  -7857223.455 5
  24980032.473       20924.280 4  -1184225.320 3
  24726920.849    -2175658.794 5  -1725966.458 2
  22685062.718    20911486.060 7   5995367.931 6
  20903261.953    11019689.552 8   -830279.624 9
  22525906.110    15296283.786 6   9391384.665 5
 94  3 23 17 30  0.0010000  0  7 18 19 27 28 22 29 14
  21205721.694     3752340.011 8  -6493998.092 9
  22519400.493   -10139863.859 7  -7882441.598 5
  24969243.422      -35709.528 4  -1228355.451 3
  24719228.714    -2216108.659 5  -1757485.668 2
  22704491.907    21013587.152 7   6074927.192 6
  20908591.483    11047708.679 8   -808446.561 9
  22549186.553    15418618.069 6   9486710.050 5
 94  3 23 17 30 30.0010000  0  7 18 19 27 28 22 29 14
  21201323.619     3729232.363 8  -6512004.049 9
  22513315.096   -10171872.310 7  -7907383.207 5
  24958511.182      -92099.571 4  -1272295.640 3
  24711596.178    -2256198.726 5  -1788724.496 2
  22724025.814    21116239.095 7   6154915.669 6
  20914018.266    11076217.239 8   -786232.112 9
  22572546.771    15541398.237 6   9582382.834 5
 94  3 23 17 31  0.0010000  0  7 18 19 27 28 22 29 14
  21196998.723     3706516.791 8  -6529704.467 9
  22507296.403   -10203518.705 7  -7932042.675 5
  24947827.988     -148248.009 4  -1316047.601 3
  24704028.337    -2295938.185 4  -1819690.146 2
  22743663.389    21219447.929 7   6235338.090 6
  20919532.979    11105199.164 8   -763648.793 9
  22596001.154    15664633.482 6   9678410.249 5
 94  3 23 17 31 30.0010000  0  7 18 19 27 28 22 29 14
  21192752.493     3684177.574 8  -6547111.641 9
  22501340.066   -10234793.374 7  -7956412.504 5
  24937197.168     -204168.641 4  -1359622.032 3
  24696547.346    -2335334.812 5  -1850388.601 2
  22763416.085    21323218.928 7   6316198.571 6
  20925137.509    11134654.772 8   -740696.379 9
  22619532.014    15788310.665 6   9774782.014 5
 94  3 23 17 32  0.0010000  0  7 18 19 27 28 22 29 14
  21188571.137     3662213.893 8  -6564226.192 9
  22495457.749   -10265693.704 7  -7980490.657 5
  24926595.787     -259862.973 5  -1403020.167 3
  24689094.955    -2374398.441 4  -1880827.572 2
  22783266.243    21427541.706 7   6397489.000 6
  20930834.045    11164586.947 8   -717372.610 9
  22643152.422    15912406.700 6   9871480.173 5
 94  3 23 17 32 30.0010000  0  7 18 19 27 28 22 29 14
  21184470.786     3640660.606 8  -6581020.957 9
  22489650.379   -10296221.433 7  -8004278.466 5
  24916037.036     -315348.917 5  -1446255.867 3
  24681734.091    -2413125.636 4  -1911004.447 2
  22803220.339    21532408.364 7   6479203.250 6
  20936620.939    11195000.940 8   -693673.415 9
  22666843.191    16036925.608 6   9968507.836 5
 94  3 23 17 33  0.0010000  0  7 18 19 27 28 22 29 14
  21180451.019     3619537.928 8  -6597480.179 9
  22483914.330   -10326377.283 7  -8027776.495 5
  24905520.557     -370637.584 5  -1489337.877 3
  24674416.757    -2451503.194 4  -1940908.841 2
  22823270.758    21637784.354 7   6561314.359 6
  20942498.760    11225885.905 8   -669607.218 9
  22690619.791    16161859.440 6  10065858.816 5
 94  3 23 17 33 30.0010000  0  7 18 19 27 28 22 29 14
  21176514.294     3598849.922 8  -6613600.697 9
  22478240.368   -10356185.613 7  -8051003.709 5
  24895028.810     -425715.558 5  -1532255.683 3
  24667187.441    -2489531.227 4  -1970540.877 2
  22843414.743    21743645.451 6   6643803.472 6
  20948467.748    11257254.371 8   -645164.269 9
  22714469.570    16287179.826 6  10163510.999 5
 94  3 23 17 34  0.0010000  0  7 18 19 27 28 22 29 14
  21172661.811     3578609.154 8  -6629372.713 9
  22472629.662   -10385666.026 7  -8073975.414 6
  24884595.913     -480545.573 5  -1574980.298 3
  24660018.534    -2527202.052 4  -1999894.598 2
  22863649.625    21849983.349 7   6726664.139 6
  20954528.412    11289107.477 8   -620343.681 9
  22738393.997    16412906.942 6  10261480.129 5
 94  3 23 17 34 30.0010000  0  8 18 19 27 28 22 29 31 14
  21168892.311     3558795.915 8  -6644811.605 9
  22467083.142   -10414821.866 7  -8096694.216 6
  24874211.252     -535128.806 5  -1617512.626 3
  24652920.438    -2564515.809 5  -2028970.080 2
  22883976.033    21956779.295 7   6809881.707 6
  20960682.581    11321439.095 8   -595150.232 9
  25092349.778    -1951174.43315  -1653080.101 2
  22762394.062    16539045.736 6  10359770.026 5
 94  3 23 17 35  0.0010000  0  8 18 19 27 28 22 29 31 14
  21165198.238     3539390.329 8  -6659932.839 9
  22461596.131   -10443654.459 7  -8119161.139 6
  24863878.335     -589448.954 5  -1659839.920 3
  24645887.427    -2601468.123 5  -2057763.904 2
  22904391.330    22064039.359 7   6893460.926 6
  20966928.637    11354257.814 8   -569577.208 9
  25081061.932    -2010524.046 5  -1699326.364 2
  22786474.202    16665584.678 6  10458371.735 5
 94  3 23 17 35 30.0010000  0  8 18 19 27 28 22 29 31 14
  21161577.675     3520367.212 8  -6674756.038 9
  22456169.677   -10472165.992 7  -8141377.878 6
  24853586.820     -643508.898 5  -1701964.471 2
  24638926.966    -2638072.650 5  -2086286.752 2
  22924889.849    22171790.251 7   6977422.621 6
  20973264.661    11387558.106 8   -543628.926 9
  25069782.331    -2069794.495 5  -1745511.014 2
  22810634.326    16792525.508 6  10557286.608 5
 94  3 23 17 36  0.0010000  0  8 18 19 27 28 22 29 31 14
  21158032.779     3501737.237 8  -6689272.891 9
  22450813.165   -10500323.152 7  -8163318.466 6
  24843349.597     -697323.871 5  -1743898.163 2
  24632024.634    -2674317.163 4  -2114529.035 2
  22945489.009    22280045.351 7   7061777.219 6
  20979690.592    11421338.975 8   -517306.182 9
  25058516.310    -2128982.104 5  -1791631.124 2
  22834870.838    16919891.069 6  10656532.438 5
 94  3 23 17 36 30.0010000  0  8 18 19 27 28 22 29 31 14
  21154566.069     3483507.189 8  -6703478.116 9
  22445522.608   -10528117.113 7  -8184976.056 6
  24833156.863     -750925.787 5  -1785665.806 2
  24625195.542    -2710196.253 4  -2142486.641 2
  22966187.819    22388804.786 6   7146524.776 6
  20986213.926    11455592.820 8   -490614.900 9
  25047269.776    -2188066.788 5  -1837670.982 2
  22859178.190    17047661.389 6  10756093.641 5
 94  3 23 17 37  0.0010000  0  8 18 19 27 28 22 29 31 14
  21151178.204     3465696.711 8  -6717356.414 9
  22440306.339   -10555552.760 7  -8206354.438 6
  24822985.475     -804310.199 4  -1827263.968 2
  24618447.933    -2745698.693 5  -2170150.718 2
  22986982.173    22498078.780 6   7231673.305 6
  20992817.275    11490319.037 8   -463555.541 9
  25036048.214    -2247030.203 5  -1883616.478 2
  22883569.395    17175824.839 6  10855961.202 5
 94  3 23 17 37 30.0010000  0  8 18 19 27 28 22 29 31 14
  21147872.752     3448337.129 8  -6730883.346 9
  22435151.498   -10582612.793 7  -8227440.116 6
  24812880.550     -857468.110 5  -1868685.577 2
  24611767.898    -2780805.123 4  -2197506.231 2
  23007875.669    22607871.148 6   7317225.772 6
  20999518.266    11525524.731 8   -436122.508 9
  25024862.148    -2305849.008 5  -1929449.226 2
  22908039.145    17304388.699 6  10956140.774 5
 94  3 23 17 38  0.0010000  0  8 18 19 27 28 22 29 31 14
  21144658.797     3431441.404 9  -6744048.855 9
  22430071.305   -10609319.679 7  -8248250.652 6
  24802804.016     -910409.930 4  -1909938.873 2
  24605169.436    -2815519.794 5  -2224556.508 2
  23028860.452    22718149.865 6   7403157.169 6
  21006308.715    11561208.382 8   -408317.096 9
  25013696.258    -2364520.473 5  -1975167.180 2
  22932574.609    17433321.856 6  11056608.116 5
 94  3 23 17 38 30.0010000  0  8 18 19 27 28 22 29 31 14
  21141527.405     3414999.433 9  -6756860.783 9
  22425050.680   -10635690.352 7  -8268799.188 6
  24792773.680     -963128.697 5  -1951018.403 2
  24598628.204    -2849846.521 5  -2251304.495 2
  23049939.879    22828911.304 6   7489464.748 6
  21013193.569    11597382.161 8   -380129.735 9
  25002558.159    -2423033.282 5  -2020761.463 2
  22957176.807    17562606.858 6  11157349.606 5
 94  3 23 17 39  0.0010000  0  8 18 19 27 28 22 29 31 14
  21138480.614     3399001.067 9  -6769327.063 9
  22420099.638   -10661722.709 7  -8289084.134 6
  24782774.462    -1015618.578 4  -1991919.552 2
  24592157.244    -2883782.746 5  -2277748.281 2
  23071105.256    22940152.201 6   7576145.885 6
  21020171.568    11634063.628 8   -351546.796 9
  24991438.347    -2481406.199 5  -2066246.764 2
  22981844.210    17692240.955 6  11258363.107 5
 94  3 23 17 39 30.0010000  0  8 18 19 27 28 22 29 31 14
  21135521.693     3383438.890 9  -6781453.422 9
  22415207.775   -10687412.302 7  -8309101.949 6
  24772831.695    -1067890.537 3  -2032650.808 2
  24585787.254    -2917332.737 5  -2303891.009 2
  23092367.167    23051875.544 6   7663203.001 6
  21027249.248    11671251.502 8   -322569.225 9
  24980360.506    -2539655.438 5  -2111635.748 1
  23006578.467    17822243.017 6  11359663.364 5
 94  3 23 17 40  0.0010000  0  8 18 19 27 28 22 29 31 14
  21132639.128     3368283.825 9  -6793262.573 9
  22410383.934   -10712768.048 7  -8328859.639 6
  24762930.360    -1119943.702 4  -2073211.598 2
  24579462.262    -2950500.989 5  -2329736.283 2
  23113717.306    23164075.608 7   7750631.588 6
  21034419.804    11708938.542 8   -293202.714 9
  24969310.606    -2597784.362 5  -2156930.903 1
  23031396.456    17952619.404 6  11461255.267 5
 94  3 23 17 40 30.0010000  0  8 18 19 27 28 22 29 31 14
  21129829.653     3353530.916 9  -6804758.348 9
  22405625.748   -10737778.406 7  -8348348.185 6
  24753057.745    -1171773.401 4  -2113598.285 2
  24573240.699    -2983268.862 5  -2355269.593 2
  23135156.874    23276754.444 7   7838433.224 5
  21041684.465    11747107.964 8   -263460.325 9
  24958267.301    -2655791.439 5  -2202131.149 1
  23056272.695    18083386.945 6  11563151.993 5
 94  3 23 17 41  0.0010000  0  8 18 19 27 28 22 29 31 14
  21127103.191     3339187.723 9  -6815934.878 9
  22400928.330   -10762452.091 7  -8367574.412 6
  24743239.452    -1223391.731 4  -2153820.343 2
  24567074.478    -3015640.243 5  -2380493.975 2
  23156686.470    23389895.582 6   7926595.101 5
  21049033.427    11785732.401 8   -233363.381 9
  24947249.539    -2713696.797 5  -2247252.126 1
  23081233.505    18214546.084 6  11665353.822 5
 94  3 23 17 41 30.0010000  0  8 18 19 27 28 22 29 31 14
  21124453.145     3325264.973 9  -6826783.753 9
  22396300.254   -10786781.861 7  -8386532.633 6
  24733465.798    -1274775.163 4  -2193859.287 2
  24560982.066    -3047609.163 5  -2405404.734 2
  23178306.572    23503494.725 7   8015113.866 5
  21056466.901    11824796.945 8   -202923.478 9
  24936248.534    -2771483.291 5  -2292280.430 2
  23106262.727    18346097.699 6  11767861.524 5
 94  3 23 17 42  0.0010000  0  8 18 19 27 28 22 29 31 14
  21121881.286     3311765.364 9  -6837302.946 9
  22391736.663   -10810770.636 7  -8405225.153 6
  24723721.734    -1325916.170 4  -2233709.336 2
  24554977.043    -3079165.232 5  -2429993.771 2
  23200009.538    23617530.380 7   8103972.752 5
  21063983.747    11864298.203 8   -172143.301 9
  24925272.233    -2829159.499 5  -2337222.790 2
  23131372.114    18478008.749 6  11870649.273 4
 94  3 23 17 42 30.0010000  0  8 18 19 27 28 22 29 31 14
  21119401.463     3298720.570 9  -6847467.715 9
  22387239.926   -10834405.362 7  -8423641.784 6
  24714045.692    -1376816.685 4  -2273371.996 2
  24549043.971    -3110298.452 4  -2454253.374 2
  23221789.250    23732004.532 6   8193173.349 5
  21071584.626    11904248.356 8   -141013.310 9
  24914320.065    -2886732.879 5  -2382085.043 2
  23156538.582    18610267.849 6  11973708.236 4
 94  3 23 17 43  0.0010000  0  8 18 19 27 28 22 29 31 14
  21117000.725     3286127.919 9  -6857280.158 9
  22382812.142   -10857684.109 7  -8441781.032 6
  24704408.384    -1427463.453 5  -2312836.936 2
  24543213.577    -3141015.805 5  -2478188.870 2
  23243659.200    23846926.929 6   8282723.224 5
  21079279.279    11944675.186 8   -109511.892 9
  24903383.936    -2944198.562 5  -2426863.413 2
  23181772.533    18742862.913 6  12077029.017 4
 94  3 23 17 43 30.0010000  0  8 18 19 27 28 22 29 31 14
  21114692.533     3273980.042 9  -6866746.032 9
  22378446.564   -10880610.486 7  -8459645.704 6
  24694819.402    -1477852.008 4  -2352100.684 2
  24537450.966    -3171311.578 5  -2501795.881 2
  23265614.860    23962299.424 6   8372623.824 5
  21087066.747    11985599.559 8    -77622.779 9
  24892467.024    -3001551.332 4  -2471553.751 2
  23207070.399    18875784.720 6  12180604.386 4
 94  3 23 17 44  0.0010000  0  8 18 19 27 28 22 29 31 14
  21112465.584     3262273.483 9  -6875868.016 9
  22374149.039   -10903193.925 7  -8477243.143 6
  24685273.861    -1528007.826 5  -2391183.086 2
  24531753.141    -3201193.882 4  -2525080.710 2
  23287655.152    24078114.788 7   8462869.503 5
  21094954.107    12027046.891 8    -45326.155 9
  24881569.058    -3058792.566 4  -2516157.125 2
  23232420.370    19009036.856 6  12284437.160 4
 94  3 23 17 44 30.0010000  0  8 18 19 27 28 22 29 31 14
  21110319.790     3251006.058 9  -6884647.836 9
  22369915.939   -10925433.401 7  -8494572.576 6
  24675776.375    -1577923.555 4  -2430078.380 2
  24526153.977    -3230670.802 5  -2548049.620 2
  23309777.437    24194382.830 7   8553467.923 5
  21102942.527    12069037.958 8    -12605.871 9
  24870708.027    -3115883.433 4  -2560643.425 2
  23257845.199    19142638.518 6  12388542.281 4
 94  3 23 17 45  0.0010000  0  8 18 19 27 28 22 29 31 14
  21108257.308     3240161.805 9  -6893097.910 9
  22365745.017   -10947339.462 7  -8511642.196 6
  24666314.776    -1627610.849 4  -2468795.704 2
  24520631.680    -3259747.919 5  -2570706.986 2
  23331985.912    24311089.431 7   8644408.063 5
  21111038.452    12111571.904 8     20537.456 9
  24859872.628    -3172805.981 4  -2604998.456 2
  23283339.370    19276589.915 6  12492919.918 4
 94  3 23 17 45 30.0010000  0  8 18 19 27 28 22 29 31 14
  21106276.998     3229756.396 9  -6901206.029 9
  22361636.841   -10968916.106 7  -8528455.140 6
  24656905.999    -1677091.505 5  -2507351.978 2
  24515159.718    -3288426.294 5  -2593053.676 2
  23354274.582    24428222.710 7   8735680.688 5
  21119235.108    12154629.399 8     54088.735 9
  24849081.119    -3229565.635 5  -2649226.555 2
  23308891.041    19410896.799 6  12597574.557 4
 94  3 23 17 46  0.0010000  0  8 18 19 27 28 22 29 31 14
  21104378.803     3219784.198 9  -6908976.563 9
  22357598.337   -10990162.011 7  -8545010.358 6
  24647523.904    -1726375.606 4  -2545755.066 2
  24509782.760    -3316709.587 5  -2615092.491 2
  23376648.573    24545781.334 7   8827284.780 5
  21127522.331    12198191.782 8     88033.453 9
  24838309.096    -3286156.914 4  -2693323.381 2
  23334515.411    19545545.679 6  12702495.699 4
 94  3 23 17 46 30.0010000  0  8 18 19 27 28 22 29 31 14
  21102566.048     3210255.782 9  -6916401.304 9
  22353620.241   -11011066.362 7  -8561299.432 6
  24638179.044    -1775458.724 5  -2584001.592 2
  24504475.505    -3344576.009 5  -2636806.485 3
  23399102.848    24663782.442 7   8919233.637 5
  21135902.879    12242238.477 8    122355.538 9
  24827575.537    -3342565.737 4  -2737278.066 2
  23360199.081    19680528.404 6  12807676.972 4
 94  3 23 17 47  0.0020000  0  8 18 19 27 28 22 29 31 14
  21100838.763     3201180.816 9  -6923472.709 9
  22349708.009   -11031626.856 7  -8577320.580 6
  24628879.362    -1824356.607 5  -2622103.761 2
  24499256.717    -3372013.966 5  -2658186.566 3
  23421643.254    24782230.720 6   9011530.941 5
  21144373.875    12286749.546 8    157039.473 9
  24816871.028    -3398805.533 4  -2781101.107 2
  23385952.632    19815833.602 6  12913109.522 4
 94  3 23 17 47 30.0020000  0  8 18 19 27 28 22 29 31 14
  21099197.609     3192566.405 9  -6930185.235 9
  22345858.434   -11051850.647 7  -8593079.336 6
  24619619.252    -1873061.066 5  -2660055.235 2
  24494113.658    -3399015.541 5  -2679226.617 3
  23444267.601    24901128.297 6   9104178.352 5
  21152933.159    12331720.033 8    192081.402 9
  24806204.412    -3454865.665 5  -2824784.091 2
  23411754.210    19951452.482 6  13018786.498 4
 94  3 23 17 48  0.0020000  0  8 18 19 27 28 22 29 31 14
  21097643.605     3184389.842 9  -6936556.579 9
  22342070.227   -11071752.372 7  -8608587.175 6
  24610382.557    -1921568.471 5  -2697853.179 2
  24489060.116    -3425584.331 5  -2699929.437 3
  23466973.432    25020463.653 6   9197166.868 5
  21161577.585    12377153.703 8    227484.236 9
  24795564.328    -3510737.420 5  -2868320.317 2
  23437628.427    20087370.330 6  13124696.415 4
 94  3 23 17 48 30.0020000  0  8 18 19 27 28 22 29 31 14
  21096175.941     3176670.353 9  -6942571.775 9
  22338344.676   -11091322.677 7  -8623836.735 6
  24601195.597    -1969859.738 5  -2735482.687 2
  24484089.707    -3451717.658 5  -2720292.904 3
  23489764.285    25140223.005 6   9290485.797 5
  21170311.768    12423058.902 8    263254.511 9
  24784979.646    -3566412.854 5  -2911703.582 2
  23463550.372    20223604.163 6  13230852.556 4
 94  3 23 17 49  0.0020000  0  8 18 19 27 28 22 29 31 14
  21094792.609     3169400.061 9  -6948236.925 9
  22334681.961   -11110582.928 7  -8638844.691 6
  24592040.145    -2017934.914 5  -2772943.784 2
  24479199.583    -3477433.630 5  -2740331.192 3
  23512630.415    25260376.984 6   9384112.208 5
  21179137.178    12469437.375 8    299393.564 9
  24774413.311    -3621915.211 5  -2954951.961 2
  23489527.479    20360143.218 6  13337246.533 4
 94  3 23 17 49 30.0020000  0  8 18 19 27 28 22 29 31 14
  21093494.508     3162579.441 9  -6953551.685 9
  22331077.587   -11129529.236 7  -8653608.023 6
  24582938.896    -2065783.848 5  -2810228.623 2
  24474371.815    -3502735.712 5  -2760046.930 3
  23535567.386    25380910.756 6   9478034.607 5
  21188055.524    12516295.850 8    335906.654 9
  24763882.831    -3677252.004 5  -2998071.366 2
  23515565.383    20496988.646 6  13443879.239 4
 94  3 23 17 50  0.0020000  0  8 18 19 27 28 22 29 31 14
  21092282.357     3156221.356 9  -6958506.029 9
  22327538.956   -11148143.502 8  -8668112.620 6
  24573880.996    -2113393.487 5  -2847326.997 3
  24469637.462    -3527620.553 5  -2779437.597 3
  23558574.808    25501807.437 6   9572239.758 5
  21197063.059    12563631.190 8    372791.310 9
  24753383.589    -3732432.887 5  -3041069.240 2
  23541666.124    20634132.539 6  13550744.522 4
 94  3 23 17 50 30.0020000  0  8 18 19 27 28 22 29 31 14
  21091165.720     3150343.570 9  -6963086.114 9
  22324059.265   -11166413.186 8  -8682348.719 6
  24564866.597    -2160766.805 5  -2884241.239 2
  24464979.467    -3552077.512 5  -2798494.829 3
  23581644.527    25623076.859 6   9666735.339 5
  21206162.779    12611448.385 8    410051.449 9
  24742905.663    -3787456.725 5  -3083944.813 2
  23567823.885    20771575.688 6  13657842.989 3
 94  3 23 17 51  0.0020000  0  8 18 19 27 28 22 29 31 14
  21090137.402     3144949.379 9  -6967289.384 9
  22320647.178   -11184339.460 8  -8696317.218 6
  24555897.316    -2207892.689 5  -2920962.592 3
  24460423.221    -3576091.311 5  -2817206.739 3
  23604795.790    25744737.148 6   9761535.522 5
  21215360.142    12659764.933 8    447700.683 9
  24732475.074    -3842321.613 5  -3126696.509 2
  23594033.121    20909313.747 6  13765171.302 3
 94  3 23 17 51 30.0020000  0  8 18 19 27 28 22 29 31 14
  21089200.460     3140024.339 9  -6971127.062 9
  22317299.095   -11201921.339 8  -8710017.352 6
  24546980.019    -2254776.451 5  -2957495.372 3
  24455935.688    -3599669.594 5  -2835579.269 3
  23628029.256    25866785.294 6   9856637.923 5
  21224646.363    12708575.637 8    485734.998 9
  24722058.485    -3897029.522 5  -3169325.864 2
  23620300.516    21047342.242 6  13872725.871 3
 94  3 23 17 52  0.0020000  0  8 18 19 27 28 22 29 31 14
  21088350.429     3135556.339 9  -6974608.617 9
  22314020.925   -11219168.085 7  -8723456.342 6
  24538100.946    -2301418.333 5  -2993839.625 3
  24451529.638    -3622802.081 5  -2853604.476 3
  23651327.387    25989230.659 6   9952049.850 5
  21234031.666    12757896.795 8    524167.048 9
  24711685.096    -3951568.207 5  -3211823.434 2
  23646620.136    21185658.168 6  13980504.408 3
 94  3 23 17 52 30.0020000  0  8 18 19 27 28 22 29 31 14
  21087583.530     3131522.515 9  -6977751.867 9
  22310799.445   -11236086.956 8  -8736639.868 6
  24529261.775    -2347827.522 5  -3030002.598 3
  24447221.950    -3645487.595 5  -2871281.353 3
  23674707.331    26112081.258 6  10047777.529 5
  21243514.161    12807726.091 8    562995.056 9
  24701331.374    -4005944.283 5  -3254194.293 2
  23672989.131    21324259.646 6  14088505.473 3
 94  3 23 17 53  0.0020000  0  8 18 19 27 28 22 29 31 14
  21086893.977     3127891.838 9  -6980580.958 9
  22307637.174   -11252693.474 8  -8749579.979 6
  24520473.719    -2394022.138 5  -3065998.362 3
  24442980.577    -3667739.613 5  -2888620.481 3
  23698152.900    26235304.155 6  10143795.311 5
  21253088.123    12858044.293 8    602204.046 9
  24691016.385    -4060175.412 5  -3296452.175 2
  23699428.907    21463137.668 6  14196722.025 3
 94  3 23 17 53 30.0020000  0  8 18 19 27 28 22 29 31 14
  21086276.884     3124665.007 9  -6983095.384 9
  22304540.678   -11268979.266 8  -8762270.187 6
  24511714.803    -2440020.578 5  -3101841.190 3
  24438818.948    -3689552.706 5  -2905617.573 3
  23721675.186    26358900.008 6  10240103.712 5
  21262756.790    12908843.651 8    641787.926 9
  24680719.294    -4114237.013 5  -3338577.993 2
  23725902.769    21602291.288 6  14305153.347 4
 94  3 23 17 54  0.0020000  0  8 18 19 27 28 22 29 31 14
  21085747.721     3121867.783 9  -6985275.032 9
  22301503.510   -11284941.515 7  -8774708.285 6
  24503002.175    -2485815.996 5  -3137525.848 3
  24434767.462    -3710907.475 5  -2922257.487 3
  23745264.805    26482869.852 6  10336703.530 4
  21272512.966    12960126.974 8    681748.957 9
  24670476.974    -4168108.074 5  -3380555.330 2
  23752437.610    21741722.664 6  14413801.057 4
 94  3 23 17 54 30.0020000  0  8 18 19 27 28 22 29 31 14
  21085301.390     3119519.532 9  -6987104.844 9
  22298526.331   -11300578.386 7  -8786892.823 7
  24494330.558    -2531422.580 5  -3173063.382 3
  24430794.613    -3731810.178 5  -2938545.200 3
  23768924.666    26607199.271 6  10433583.554 4
  21282363.396    13011874.970 8    722072.066 9
  24660262.176    -4221788.839 5  -3422384.385 2
  23779020.357    21881411.444 6  14522649.343 4
 94  3 23 17 55  0.0020000  0  8 18 19 27 28 22 29 31 14
  21084946.076     3117650.772 9  -6988561.022 9
  22295615.167   -11315887.324 7  -8798821.823 7
  24485687.391    -2576833.159 5  -3208448.169 3
  24426895.362    -3752252.411 5  -2954474.121 3
  23792650.031    26731889.015 6  10530744.327 4
  21292298.279    13064095.200 8    762763.147 9
  24650096.783    -4275255.438 5  -3464046.567 2
  23805649.512    22021350.460 6  14631692.639 4
 94  3 23 17 55 30.0020000  0  8 18 19 27 28 22 29 31 14
  21084683.337     3116280.268 9  -6989628.944 9
  22292765.520   -11330869.580 7  -8810496.296 7
  24477086.016    -2622037.560 5  -3243672.360 3
  24423094.354    -3772226.760 5  -2970038.455 3
  23816443.090    26856955.378 6  10628198.568 4
  21302323.219    13116782.221 8    803817.959 9
  24639952.916    -4328502.338 5  -3505537.554 2
  23832325.674    22161519.810 6  14740915.402 4
 94  3 23 17 56  0.0020000  0  8 18 19 27 28 22 29 31 14
  21084516.773     3115408.152 9  -6990308.521 9
  22289972.053   -11345532.989 7  -8821922.275 7
  24468510.183    -2667031.268 5  -3278732.334 3
  24419384.542    -3791736.056 5  -2985240.412 3
  23840318.231    26982384.922 6  10725935.800 4
  21312440.644    13169941.487 8    845240.755 9
  24629857.674    -4381544.037 5  -3546868.613 2
  23859031.996    22301906.040 6  14850307.183 4
 94  3 23 17 56 30.0020000  0  8 18 19 27 28 22 29 31 14
  21084444.283     3115016.714 9  -6990613.530 9
  22287241.933   -11359879.281 7  -8833101.188 7
  24459998.086    -2711820.632 5  -3313633.090 3
  24415760.381    -3810788.367 5  -3000086.275 3
  23864254.890    27108182.125 6  10823959.557 4
  21322647.169    13223571.217 8    887030.155 9
  24619806.293    -4434378.787 5  -3588038.399 2
  23885789.672    22442507.207 6  14959866.440 4
 94  3 23 17 57  0.0020000  0  8 18 19 27 28 22 29 31 14
  21084454.926     3115079.324 9  -6990564.735 9
  22284569.793   -11373931.231 7  -8844050.734 7
  24451521.634    -2756406.572 5  -3348375.314 3
  24412223.789    -3829398.182 5  -3014587.371 3
  23888259.422    27234332.833 6  10922258.763 4
  21332939.104    13277669.463 8    929184.624 9
  24609793.884    -4487011.013 5  -3629050.357 2
  23912594.565    22583342.454 6  15069608.069 4
 94  3 23 17 57 30.0020000  0  8 18 19 27 28 22 29 31 14
  21084553.977     3115592.591 9  -6990164.787 9
  22281949.607   -11387689.531 7  -8854771.461 7
  24443066.287    -2800790.374 5  -3382960.035 2
  24408753.032    -3847567.430 5  -3028745.151 3
  23912334.375    27360836.214 6  11020832.776 4
  21343328.141    13332258.896 8    971721.835 9
  24599817.870    -4539438.258 5  -3669902.606 2
  23939435.913    22724431.571 6  15179547.548 4
 94  3 23 17 58  0.0020000  0  8 18 19 27 28 22 29 31 14
  21084734.062     3116549.924 9  -6989418.815 9
  22279386.112   -11401173.989 8  -8865278.803 7
  24434659.867    -2844986.003 5  -3417398.148 2
  24405381.716    -3865299.146 5  -3042562.025 3
  23936472.345    27487673.604 6  11119667.018 4
  21353814.912    13387354.568 8   1014653.505 9
  24589879.810    -4591669.323 5  -3710601.972 2
  23966331.794    22865779.038 6  15289688.321 3
 94  3 23 17 58 30.0020000  0  8 18 19 27 28 22 29 31 14
  21084997.790     3117940.001 9  -6988335.649 9
  22276869.684   -11414393.303 7  -8875579.543 7
  24426284.985    -2888991.337 5  -3451688.000 2
  24402090.654    -3882586.127 5  -3056032.370 3
  23960667.035    27614830.696 6  11218750.400 4
  21364390.450    13442943.700 8   1057969.699 9
  24579974.398    -4643702.659 5  -3751147.219 2
  23993281.037    23007389.350 6  15400033.944 3
 94  3 23 17 59  0.0020000  0  8 18 19 27 28 22 29 31 14
  21085349.386     3119777.118 9  -6986904.116 9
  22274407.219   -11427332.179 8  -8885661.759 7
  24417952.583    -2932796.416 5  -3485821.773 2
  24398890.340    -3899411.335 5  -3069142.840 3
  23984920.935    27742303.135 6  11318079.512 4
  21375065.850    13499042.842 8   1101683.305 9
  24570113.774    -4695534.757 5  -3791535.644 2
  24020279.207    23149255.569 6  15510578.938 3
 94  3 23 17 59 30.0020000  0  8 18 19 27 28 22 29 31 14
  21085786.094     3122065.779 9  -6985120.741 9
  22271997.187   -11439981.167 7  -8895518.087 7
  24409642.516    -2976408.691 5  -3519805.335 2
  24395793.364    -3915758.171 6  -3081880.558 3
  24009244.866    27870089.920 6  11417653.591 4
  21385838.202    13555648.942 8   1145791.935 9
  24560288.556    -4747170.499 5  -3831771.074 2
  24047316.020    23291341.188 6  15621294.918 3
 94  3 23 18  0  0.0020000  0  8 18 19 27 28 22 29 31 14
  21086301.407     3124793.416 9  -6982995.311 9
  22269648.043   -11452331.810 8  -8905141.935 7
  24401396.215    -3019823.922 5  -3553635.351 2
  24392753.588    -3931626.731 5  -3094245.612 3
  24033611.157    27998182.681 5  11517466.050 4
  21396700.373    13612735.828 8   1190275.215 9
  24550495.985    -4798606.435 5  -3871850.853 2
  24074399.990    23433638.192 6  15732175.630 3
 94  3 23 18  0 30.0020000  0  8 18 19 27 28 22 29 31 14
  21086906.089     3127964.467 9  -6980524.357 9
  22267360.627   -11464362.348 8  -8914516.361 7
  24393163.704    -3063037.738 5  -3587308.396 2
  24389828.903    -3947035.508 5  -3106252.404 3
  24058057.943    28126593.570 6  11617526.403 4
  21407653.770    13670285.658 8   1235119.236 9
  24540743.617    -4849830.399 5  -3911765.413 2
  24101515.438    23576145.023 5  15843219.822 3
 94  3 23 18  1  0.0020000  0  8 18 19 27 28 22 29 31 14
  21087591.954     3131575.502 9  -6977710.575 9
  22265130.321   -11476078.633 8  -8923645.917 7
  24384969.477    -3106081.855 5  -3620849.220 2
  24386979.435    -3962003.049 5  -3117915.383 3
  24082546.220    28255322.115 5  11717834.275 4
  21418687.631    13728286.756 8   1280314.886 9
  24531042.333    -4900855.336 4  -3951524.893 2
  24128666.232    23718844.773 5  15954414.319 3
 94  3 23 18  1 30.0020000  0  8 18 19 27 28 22 29 31 14
  21088363.830     3135627.274 9  -6974553.349 9
  22262959.254   -11487494.687 8  -8932541.524 7
  24376816.681    -3148973.011 5  -3654270.856 3
  24384218.467    -3976540.367 5  -3129243.103 3
  24107105.548    28384357.734 6  11818381.426 4
  21429810.501    13786715.552 8   1325843.798 9
  24521355.259    -4951687.263 5  -3991134.016 2
  24155856.688    23861738.663 5  16065760.095 3
 94  3 23 18  2  0.0020000  0  8 18 19 27 28 22 29 31 14
  21089221.266     3140121.452 9  -6971051.409 9
  22260838.942   -11498622.121 8  -8941212.244 7
  24368676.117    -3191713.288 5  -3687574.945 3
  24381538.352    -3990650.129 5  -3140237.642 3
  24131719.768    28513690.634 6  11919160.245 4
  21441007.899    13845558.345 8   1371695.302 9
  24511727.784    -5002328.491 5  -4030594.494 2
  24183085.398    24004816.396 5  16177249.115 3
 94  3 23 18  2 30.0020000  0  8 18 19 27 28 22 29 31 14
  21090166.452     3145080.601 9  -6967187.131 9
  22258780.507   -11509455.216 8  -8949653.595 7
  24360576.444    -3234297.855 5  -3720757.681 3
  24378935.644    -4004298.568 5  -3150872.777 3
  24156397.934    28643332.925 6  12020180.134 4
  21452285.522    13904835.019 8   1417884.907 9
  24502128.939    -5052763.484 5  -4069894.324 2
  24210343.248    24148069.275 5  16288874.611 3
 94  3 23 18  3  0.0020000  0  8 18 19 27 28 22 29 31 14
  21091193.810     3150496.168 9  -6962967.217 9
  22256771.508   -11520002.464 8  -8957872.231 7
  24352498.116    -3276712.917 5  -3753808.351 3
  24376423.323    -4017461.037 5  -3161129.200 3
  24181109.107    28773269.093 5  12121428.999 4
  21463650.984    13964571.864 8   1464433.072 9
  24492567.748    -5102988.559 5  -4109030.588 2
  24237638.512    24291492.977 5  16400633.234 3
 94  3 23 18  3 30.0020000  0  8 18 19 27 28 22 29 31 14
  21092315.004     3156389.110 9  -6958375.320 9
  22254817.011   -11530261.459 8  -8965866.239 7
  24344472.133    -3318916.942 5  -3786694.539 3
  24374005.167    -4030117.640 5  -3170991.435 3
  24205893.129    28903503.413 6  12222910.200 4
  21475112.349    14024787.967 8   1511354.695 9
  24483058.751    -5152974.359 5  -4147980.419 2
  24264964.655    24435087.949 5  16512525.269 3
 94  3 23 18  4  0.0020000  0  8 18 19 27 28 22 29 31 14
  21093523.617     3162731.768 9  -6953432.990 9
  22252917.496   -11540251.182 8  -8973650.411 7
  24336483.833    -3360921.464 5  -3819425.305 3
  24371704.290    -4042285.753 5  -3180473.001 3
  24230737.200    29034032.920 6  12324621.459 4
  21486663.502    14085483.169 8   1558649.637 9
  24473592.534    -5202716.914 5  -4186740.708 2
  24292326.292    24578838.710 5  16624538.711 4
 94  3 23 18  4 30.0020000  0  8 18 19 27 28 22 29 31 14
  21094809.817     3169507.979 9  -6948152.829 9
  22251066.307   -11549976.477 8  -8981228.556 7
  24328523.923    -3402733.393 5  -3852005.997 3
  24369470.776    -4053993.998 5  -3189596.220 3
  24255632.445    29164853.173 6  12426559.243 4
  21498304.623    14146661.759 8   1606321.229 9
  24464182.499    -5252222.820 5  -4225316.597 2
  24319707.177    24722755.758 5  16736681.743 4
 94  3 23 18  5  0.0020000  0  8 18 19 27 28 22 29 31 14
  21096188.143     3176724.792 8  -6942529.348 9
  22249265.934   -11559448.734 8  -8988609.523 7
  24320602.417    -3444354.550 6  -3884438.044 3
  24367339.252    -4065264.902 5  -3198378.695 3
  24280570.711    29295952.731 6  12528714.644 4
  21510037.571    14208320.165 8   1654366.708 9
  24454790.151    -5301502.093 5  -4263715.914 2
  24347126.495    24866849.896 5  16848962.742 4
 94  3 23 18  5 30.0020000  0  8 18 19 27 28 22 29 31 14
  21097645.554     3184396.121 8  -6936551.694 9
  22247512.478   -11568666.459 8  -8995792.151 7
  24312718.175    -3485807.300 5  -3916738.843 3
  24365275.331    -4076101.392 5  -3206822.631 3
  24305572.832    29427329.839 6  12631086.344 4
  21521858.387    14270429.403 8   1702763.482 9
  24445463.728    -5350559.089 5  -4301942.054 2
  24374586.975    25011118.360 6  16961379.613 4
 94  3 23 18  6  0.0020000  0  8 18 19 27 28 22 29 31 14
  21099191.973     3192515.008 8  -6930225.281 9
  22245807.558   -11577609.539 8  -9002760.758 7
  24304853.900    -3527102.728 5  -3948917.044 3
  24363296.881    -4086497.923 5  -3214923.725 3
  24330626.997    29558981.997 6  12733672.367 4
  21533762.217    14332995.900 8   1751516.594 9
  24436168.063    -5399412.297 5  -4340009.315 2
  24402064.662    25155566.468 5  17073936.449 4
 94  3 23 18  6 30.0020000  0  8 18 19 27 28 22 29 31 14
  21100826.322     3201110.560 9  -6923527.462 9
  22244163.076   -11586262.832 8  -9009503.593 7
  24297034.833    -3568217.598 6  -3980954.586 3
  24361400.543    -4096436.877 5  -3222668.334 3
  24355731.408    29690890.814 6  12836458.356 4
  21545756.763    14396024.461 8   1800629.710 9
  24426902.497    -5448067.680 5  -4377922.553 2
  24429595.473    25300183.420 6  17186624.852 4
 94  3 23 18  7  0.0020000  0  8 18 19 27 28 22 29 31 14
  21102553.636     3210191.399 8  -6916451.498 9
  22242571.448   -11594634.035 8  -9016026.600 7
  24289241.008    -3609158.531 5  -4012856.591 3
  24359605.866    -4105901.017 5  -3230042.895 3
  24380873.353    29823031.922 6  12939425.375 4
  21557836.600    14459504.363 8   1850094.541 9
  24417685.648    -5496516.538 5  -4415674.758 2
  24457134.318    25444957.661 5  17299435.815 3
 94  3 23 18  7 30.0020000  0  8 18 19 27 28 22 29 31 14
  21104370.678     3219736.347 8  -6909013.866 9
  22241030.935   -11602716.343 8  -9022324.475 7
  24281482.859    -3649922.462 5  -4044620.650 3
  24357891.143    -4114877.030 5  -3237037.078 3
  24406066.981    29955407.931 6  13042575.446 3
  21570001.848    14523441.553 8   1899915.698 9
  24408510.290    -5544733.906 5  -4453246.665 2
  24484721.610    25589877.052 5  17412359.838 3
 94  3 23 18  8  0.0020000  0  8 18 19 27 28 22 29 31 14
  21106274.900     3229741.905 8  -6901217.337 9
  22239551.609   -11610513.055 8  -9028399.816 7
  24273762.664    -3690496.981 6  -4076237.131 3
  24356266.867    -4123370.178 5  -3243655.031 3
  24431297.874    30088007.400 6  13145899.650 3
  21582261.112    14587853.369 8   1950106.708 9
  24399384.817    -5592716.371 5  -4490635.494 3
  24512316.546    25734937.957 5  17525394.195 3
 94  3 23 18  8 30.0020000  0  8 18 19 27 28 22 29 31 14
  21108270.289     3240221.079 8  -6893051.752 9
  22238119.980   -11618025.326 8  -9034253.512 7
  24266080.992    -3730875.959 5  -4107701.220 3
  24354734.928    -4131370.675 5  -3249889.115 3
  24456575.355    30220839.613 6  13249405.190 3
  21594609.473    14652746.050 8   2000672.408 9
  24390295.650    -5640426.829 5  -4527812.350 3
  24539950.905    25880165.010 5  17638557.974 3
 94  3 23 18  9  0.0020000  0  8 18 19 27 28 22 29 31 14
  21110348.900     3251150.403 8  -6884535.390 9
  22236737.427   -11625270.303 8  -9039898.931 7
  24258428.669    -3771087.285 5  -4139034.678 3
  24353323.655    -4138881.985 6  -3255741.997 3
  24481903.381    30353916.460 6  13353101.366 3
  21607045.464    14718094.024 8   2051592.904 9
  24381260.415    -5687865.772 5  -4564777.656 3
  24567627.715    26025555.658 5  17751849.231 3
 94  3 23 18  9 30.0020000  0  8 18 19 27 28 22 29 31 14
  21112513.311     3262536.655 8  -6875662.987 9
  22235414.233   -11632233.748 8  -9045324.960 7
  24250810.313    -3811121.885 5  -4170230.434 3
  24351990.987    -4145903.001 6  -3261212.864 3
  24507279.254    30487273.972 6  13457016.243 3
  21619569.234    14783908.946 8   2102877.216 9
  24372311.490    -5735041.747 6  -4601538.021 3
  24595324.761    26171103.270 5  17865262.786 3
 94  3 23 18 10  0.0020000  0  8 18 19 27 28 22 29 31 14
  21114773.986     3274394.269 8  -6866423.279 9
  22234145.361   -11638912.715 8  -9050529.347 7
  24243222.836    -3850978.474 5  -4201287.456 3
  24350730.870    -4152437.706 5  -3266304.737 3
  24532701.684    30620914.525 6  13561151.673 2
  21632179.913    14850175.012 8   2154513.111 9
  24363365.983    -5781969.204 5  -4638104.753 3
  24623040.544    26316804.578 5  17978796.119 3
 94  3 23 18 10 30.0020000  0  8 18 19 27 28 22 29 31 14
  21117119.742     3286724.218 8  -6856815.534 9
  22232928.534   -11645307.418 8  -9055512.226 7
  24235673.013    -3890661.383 6  -4232209.152 3
  24349590.729    -4158478.492 5  -3271011.797 3
  24558196.874    30754855.665 6  13665521.278 2
  21644872.227    14916884.406 8   2206494.421 9
  24354486.310    -5828641.269 5  -4674472.470 3
  24650800.096    26462644.897 5  18092437.740 3
 94  3 23 18 11  0.0020000  0  8 18 19 27 28 22 29 31 14
  21119556.185     3299545.953 8  -6846824.578 9
  22231766.538   -11651416.187 8  -9060272.289 7
  24228156.376    -3930166.263 6  -4262992.174 3
  24348548.411    -4164021.771 6  -3275331.146 3
  24583747.945    30889101.076 6  13770128.019 2
  21657654.718    14984051.706 8   2258832.560 9
  24345652.685    -5875062.674 5  -4710644.869 3
  24678581.084    26608605.494 5  18206173.126 3
 94  3 23 18 11 30.0030000  0  8 18 19 27 28 22 29 31 14
  21122091.530     3312853.620 8  -6836454.963 9
  22230656.077   -11657242.537 8  -9064812.264 7
  24220665.402    -3969508.586 6  -4293648.495 3
  24347576.723    -4169089.607 5  -3279280.040 3
  24609346.024    31023608.736 6  13874939.148 2
  21670528.196    15051692.735 8   2311539.841 9
  24336852.548    -5921248.934 5  -4746634.026 3
  24706366.628    26754669.951 5  18319989.392 3
 94  3 23 18 12  0.0030000  0  8 18 19 27 28 22 29 31 14
  21124713.275     3326646.397 8  -6825707.350 9
  22229601.557   -11662785.904 8  -9069131.780 7
  24213214.960    -4008692.460 6  -4324181.339 3
  24346707.115    -4173670.806 5  -3282849.747 3
  24634983.406    31158343.115 5  13979926.891 2
  21683487.924    15119803.709 8   2364613.309 9
  24328121.902    -5967175.355 5  -4782420.724 3
  24734178.315    26900833.882 5  18433883.209 3
 94  3 23 18 12 30.0030000  0  8 18 19 27 28 22 29 31 14
  21127432.033     3340919.916 8  -6814585.123 9
  22228596.173   -11668059.462 8  -9073241.033 7
  24205783.855    -4047737.754 6  -4354606.238 3
  24345935.929    -4177755.374 6  -3286032.467 3
  24660661.829    31293291.763 5  14085081.551 2
  21696539.598    15188397.791 8   2418063.227 9
  24319432.357    -6012837.237 5  -4818001.276 3
  24762020.610    27047098.538 5  18547855.468 3
 94  3 23 18 13  0.0030000  0  8 18 19 27 28 22 29 31 14
  21130233.893     3355649.498 8  -6803107.527 9
  22227639.445   -11673080.657 8  -9077153.630 7
  24198374.244    -4086655.443 6  -4384931.661 3
  24345242.389    -4181346.348 6  -3288830.567 3
  24686366.574    31428415.837 5  14190372.944 2
  21709682.260    15257462.768 8   2471880.095 9
  24310795.516    -6058243.086 5  -4853382.349 3
  24789874.597    27193459.205 5  18661902.580 3
 94  3 23 18 13 30.0030000  0  8 18 19 27 28 22 29 31 14
  21133125.242     3370827.293 8  -6791280.661 9
  22226734.972   -11677838.255 8  -9080860.835 7
  24190998.840    -4125422.286 6  -4415139.561 3
  24344658.484    -4184417.340 6  -3291223.479 3
  24712115.988    31563720.078 5  14295804.738 2
  21722914.229    15326990.273 8   2526057.331 9
  24302191.653    -6103372.940 5  -4888548.302 3
  24817734.970    27339927.322 5  18776033.370 3
 94  3 23 18 14  0.0030000  0  8 18 19 27 28 22 29 31 14
  21136098.883     3386460.533 9  -6779098.922 9
  22225878.554   -11682343.746 8  -9084371.597 7
  24183657.882    -4164008.225 6  -4445206.497 3
  24344175.668    -4186946.763 6  -3293194.429 4
  24737905.215    31699230.153 5  14401396.924 2
  21736230.681    15396973.387 8   2580589.607 9
  24293673.830    -6148207.653 5  -4923484.332 3
  24845633.956    27486520.066 5  18890261.318 2
 94  3 23 18 14 30.0030000  0  8 18 19 27 28 22 29 31 14
  21139157.456     3402545.182 8  -6766565.447 9
  22225067.286   -11686610.013 8  -9087695.953 7
  24176354.818    -4202394.257 6  -4475117.662 3
  24343799.998    -4188950.859 6  -3294755.969 4
  24763733.474    31834945.896 5  14507149.321 3
  21749635.750    15467416.726 8   2635480.503 9
  24285197.618    -6192764.491 6  -4958203.832 3
  24873554.856    27633237.481 5  19004586.398 2
 94  3 23 18 15  0.0030000  0  8 18 19 27 28 22 29 31 14
  21142304.797     3419093.909 8  -6753670.338 9
  22224304.674   -11690625.140 8  -9090824.619 7
  24169086.350    -4240559.622 6  -4504856.906 3
  24343504.792    -4190441.309 5  -3295917.300 4
  24789604.274    31970874.438 6  14613067.569 3
  21763130.908    15538320.732 8   2690730.353 9
  24276760.678    -6237049.384 5  -4992711.427 3
  24901508.015    27780084.317 5  19119012.293 2
 94  3 23 18 15 30.0030000  0  8 18 19 27 28 22 29 31 14
  21145549.181     3436120.277 8  -6740403.038 9
  22223585.622   -11694381.251 8  -9093751.453 7
  24161866.778    -4278505.708 6  -4534425.251 3
  24343324.827    -4191438.454 6  -3296694.240 4
  24815498.518    32107024.999 5  14719158.786 3
  21776707.639    15609683.456 8   2746337.649 9
  24268389.064    -6281070.744 5  -5027013.688 3
  24929470.137    27927055.677 5  19233535.227 2
 94  3 23 18 16  0.0030000  0  8 18 19 27 28 22 29 31 14
  21148881.464     3453645.118 8  -6726747.322 9
  22222922.691   -11697868.937 8  -9096469.109 7
  24154685.099    -4316238.244 6  -4563827.189 3
  24343230.572    -4191947.984 6  -3297091.192 4
  24841459.376    32243403.727 5  14825427.842 3
  21790379.824    15681520.579 8   2802314.585 9
  24260061.489    -6324819.272 5  -5061103.355 3
  24957459.300    28074150.822 5  19348154.616 2
 94  3 23 18 16 30.0030000  0  8 18 19 27 28 22 29 31 14
  21152310.670     3471666.485 8  -6712704.712 9
  22222314.262   -11701075.406 8  -9098967.662 7
  24147536.878    -4353795.335 6  -4593092.437 3
  24343217.831    -4191981.371 6  -3297117.172 4
  24867445.656    32379995.108 5  14931862.590 3
  21804137.720    15753821.612 8   2858653.040 9
  24251796.750    -6368290.663 5  -5094977.067 3
  24985476.914    28221341.883 5  19462848.744 2
 94  3 23 18 17  0.0030000  0  8 18 19 27 28 22 29 31 14
  21155835.180     3490188.956 8  -6698271.615 9
  22221758.836   -11703992.357 8  -9101240.591 8
  24140423.852    -4391203.612 6  -4622241.715 4
  24343302.762    -4191522.830 5  -3296759.791 4
  24893481.012    32516795.440 5  15038460.114 4
  21817980.097    15826561.307 8   2915333.265 9
  24243574.343    -6411464.899 5  -5128619.272 3
  25013488.682    28368607.975 5  19577601.335 2
 94  3 23 18 17 30.0030000  0  8 18 19 27 28 22 29 31 14
  21159455.294     3509209.724 8  -6683450.245 9
  22221262.380   -11706627.684 8  -9103294.084 8
  24133328.215    -4428476.291 6  -4651285.326 4
  24343496.098    -4190560.418 6  -3296009.792 4
  24919558.279    32653801.188 6  15145217.733 4
  21831903.118    15899742.377 8   2972357.462 9
  24235419.538    -6454322.909 5  -5162015.012 3
  25041523.954    28515929.716 5  19692397.291 2
 94  3 23 18 18  0.0030000  0  8 18 19 27 28 22 29 31 14
  21163167.594     3528720.238 8  -6668247.258 9
  22220807.325   -11708993.157 8  -9105137.286 8
  24126259.528    -4465625.939 6  -4680233.137 4
  24343771.698    -4189084.300 6  -3294859.493 4
  24945666.514    32790999.829 5  15252125.655 4
  21845912.959    15973368.818 8   3029728.676 9
  24227324.692    -6496856.874 6  -5195158.301 4
  25069582.219    28663301.717 6  19807232.359 2
 94  3 23 18 18 30.0030000  0  8 18 19 27 28 22 29 31 14
  21166969.262     3548701.364 8  -6652677.558 9
  22220406.143   -11711092.306 8  -9106772.975 8
  24119212.637    -4502657.965 6  -4709089.215 4
  24344140.472    -4187092.990 5  -3293307.772 4
  24971803.290    32928378.473 6  15359173.857 4
  21860008.211    16047431.021 8   3087439.467 9
  24219287.706    -6539089.606 5  -5228066.861 4
  25097631.551    28810719.466 6  19922103.130 2
 94  3 23 18 19  0.0030000  0  8 18 19 27 28 22 29 31 14
  21170860.089     3569143.522 8  -6636748.625 9
  22220055.506   -11712942.853 8  -9108214.967 8
  24112185.771    -4539564.157 6  -4737847.272 4
  24344623.048    -4184585.292 5  -3291353.658 4
  24997987.433    33065932.990 6  15466359.089 4
  21874185.157    16121932.235 8   3145492.330 9
  24211303.513    -6581044.228 6  -5260758.684 4
  25125686.189    28958186.144 5  20037011.978 3
 94  3 23 18 19 30.0030000  0  8 18 19 27 28 22 29 31 14
  21174841.782     3590050.413 8  -6620457.539 9
  22219749.118   -11714542.961 8  -9109461.785 8
  24105191.043    -4576321.212 6  -4766489.094 4
  24345197.241    -4181552.928 6  -3288990.729 4
  25024188.934    33203669.440 5  15573686.087 4
  21888453.989    16196905.756 8   3203913.233 9
  24203377.840    -6622720.433 6  -5293233.568 4
  25153766.850    29105728.863 5  20151980.106 3
 94  3 23 18 20  0.0030000  0  8 18 19 27 28 22 29 31 14
  21178905.709     3611418.798 8  -6603806.872 9
  22219492.196   -11715900.504 8  -9110519.611 8
  24098228.064    -4612923.305 6  -4795010.208 4
  24345868.386    -4178000.193 5  -3286222.313 4
  25050433.875    33341582.778 5  15681150.930 3
  21902809.281    16272336.476 8   3262690.391 9
  24195506.340    -6664131.537 6  -5325501.873 4
  25181862.110    29253347.985 5  20267007.753 3
 94  3 23 18 20 30.0030000  0  8 18 19 27 28 22 29 31 14
  21183059.213     3633248.132 8  -6586797.007 9
  22219278.444   -11717027.475 8  -9111397.754 8
  24091296.053    -4649358.565 6  -4823401.266 4
  24346657.949    -4173925.495 6  -3283047.172 4
  25076717.730    33479674.181 6  15788754.528 3
  21917247.705    16348214.021 8   3321815.730 9
  24187664.338    -6705283.442 5  -5357568.192 4
  25209958.629    29401031.849 5  20382085.846 4
 94  3 23 18 21  0.0030000  0  8 18 19 27 28 22 29 31 14
  21187303.135     3655551.709 8  -6569417.593 9
  22219105.763   -11717934.135 8  -9112104.237 8
  24084394.351    -4685612.221 6  -4851650.840 4
  24347532.804    -4169336.056 6  -3279470.931 4
  25103029.195    33617945.754 5  15896498.501 3
  21931772.050    16424543.335 8   3381293.087 9
  24179876.600    -6746150.014 5  -5389412.205 4
  25238071.966    29548778.449 5  20497212.819 4
 94  3 23 18 21 30.0030000  0  8 18 19 27 28 22 29 31 14
  21191637.625     3678325.763 8  -6551671.608 9
  22218972.715   -11718631.763 8  -9112647.834 8
  24077534.290    -4721690.038 6  -4879763.409 4
  24348507.489    -4164250.654 6  -3275508.223 4
  25129366.382    33756384.670 4  16004372.879 3
  21946380.817    16501309.535 8   3441110.845 9
  24172166.747    -6786727.655 5  -5421031.063 4
  25266200.443    29696569.334 4  20612374.278 4
 94  3 23 18 22  0.0030000  0  8 18 19 27 28 22 29 31 14
  21196061.512     3701579.894 8  -6533551.503 9
  22218884.127   -11719106.583 8  -9113017.827 8
  24070699.831    -4757589.384 6  -4907736.872 4
  24349558.801    -4158664.135 6  -3271155.057 4
  25155745.360    33894995.238 4  16112380.986 2
  21961072.266    16578514.268 8   3501270.362 9
  24164502.403    -6827000.339 5  -5452412.269 4
  25294334.377    29844400.223 4  20727566.946 4
 94  3 23 18 22 30.0030000  0  8 18 19 27 28 22 29 31 14
  21200578.755     3725310.111 8  -6515060.435 9
  22218836.819   -11719340.624 8  -9113200.196 8
  24063903.536    -4793328.067 6  -4935585.189 4
  24350719.718    -4152572.538 6  -3266408.291 4
  25182159.114    34033767.989 5  16220515.521 2
  21975848.826    16656163.109 8   3561775.933 9
  24156914.506    -6866957.754 6  -5483547.793 4
  25322482.670    29992277.164 4  20842795.469 4
 94  3 23 18 23  0.0030000  0  8 18 19 27 28 22 29 31 14
  21205184.766     3749520.760 8  -6496194.996 9
  22218842.755   -11719315.764 8  -9113180.807 8
  24057121.511    -4828926.290 6  -4963324.027 4
  24351971.471    -4145977.123 6  -3261268.973 4
  25208599.730    34172702.238 5  16328775.875 2
  21990710.378    16734255.105 8   3622626.804 9
  24149336.053    -6906594.342 5  -5514433.349 4
  25350621.010    30140210.051 3  20958067.551 4
 94  3 23 18 23 30.0030000  0  8 18 19 27 28 22 29 31 14
  21209881.734     3774200.843 8  -6476963.780 9
  22218902.204   -11719026.238 8  -9112955.197 8
  24050374.322    -4864401.208 6  -4990966.817 4
  24353327.043    -4138870.691 6  -3255731.469 4
  25235061.151    34311795.786 5  16437160.361 2
  22005649.576    16812781.698 8   3683816.325 9
  24141876.677    -6945917.535 5  -5545074.666 4
  25378774.520    30288199.677 3  21073383.850 4
 94  3 23 18 24  0.0030000  0  8 18 19 27 28 22 29 31 14
  21214665.733     3799344.799 8  -6457371.095 9
  22219005.662   -11718463.527 8  -9112516.714 8
  24043651.686    -4899754.399 6  -5018514.712 4
  24354778.188    -4131235.812 6  -3249782.186 4
  25261558.907    34451049.768 5  16545669.881 2
  22020680.480    16891748.545 8   3745348.900 9
  24134439.665    -6984924.871 5  -5575469.882 4
  25406953.362    30436247.500 3  21188745.532 4
 94  3 23 18 24 30.0030000  0  8 18 19 27 28 22 29 31 14
  21219537.660     3824951.967 8  -6437417.468 9
  22219160.805   -11717641.123 8  -9111875.879 8
  24036944.849    -4934987.198 6  -5045968.815 4
  24356324.427    -4123073.551 6  -3243421.923 4
  25288091.349    34590461.438 5  16654302.277 2
  22035790.949    16971149.038 8   3807219.391 9
  24127055.867    -7023622.410 5  -5605623.688 4
  25435137.001    30584341.783 3  21304143.358 3
 94  3 23 18 25  0.0030000  0  8 18 19 27 28 22 29 31 14
  21224501.234     3851029.250 8  -6417097.520 9
  22219364.334   -11716576.690 8  -9111046.451 8
  24030267.752    -4970078.695 6  -5073312.806 4
  24357986.807    -4114384.019 6  -3236650.837 4
  25314658.327    34730027.792 6  16763055.176 2
  22050978.975    17050991.444 8   3869434.220 9
  24119794.264    -7062008.808 6  -5635535.066 4
  25463321.329    30732463.137 4  21419562.308 3
 94  3 23 18 25 30.0030000  0  8 18 19 27 28 22 29 31 14
  21229554.175     3877581.461 8  -6396407.487 9
  22219611.753   -11715286.961 8  -9110041.464 8
  24023620.663    -5005010.441 6  -5100532.322 4
  24359736.755    -4105159.254 5  -3229462.657 4
  25341228.932    34869725.969 5  16871910.819 2
  22066262.005    17131287.731 8   3932002.733 9
  24112537.817    -7100081.009 6  -5665201.618 4
  25491513.932    30880588.127 4  21534984.116 3
 94  3 23 18 26  0.0030000  0  8 18 19 27 28 22 29 31 14
  21234699.394     3904624.681 8  -6375334.856 9
  22219897.785   -11713770.761 8  -9108860.025 8
  24017004.903    -5039779.815 6  -5127625.317 4
  24361601.404    -4095397.573 6  -3221856.138 4
  25367837.522    35009543.994 5  16980859.828 2
  22081626.458    17212041.913 8   3994928.042 9
  24105365.493    -7137827.040 6  -5694614.013 4
  25519696.612    31028708.731 5  21650402.494 2
 94  3 23 18 26 30.0030000  0  8 18 19 27 28 22 29 31 14
  21239942.164     3932165.082 8  -6353874.814 9
  22220228.816   -11712034.473 8  -9107507.061 9
  24010414.776    -5074382.631 6  -5154588.505 4
  24363550.205    -4085115.428 5  -3213844.048 4
  25394466.796    35149474.502 5  17089896.484 2
  22097079.380    17293246.211 8   4058204.089 9
  24098247.670    -7175230.485 6  -5723759.462 4
  25547889.904    31176817.097 5  21765811.376 2
 94  3 23 18 27  0.0030000  0  8 18 19 27 28 22 29 31 14
  21245277.091     3960211.329 8  -6332020.593 9
  22220602.267   -11710077.088 8  -9105981.831 8
  24003863.921    -5108820.381 6  -5181423.072 4
  24365610.169    -4074318.604 6  -3205430.911 4
  25421112.710    35289508.101 5  17199013.479 2
  22112615.885    17374896.242 8   4121827.453 9
  24091185.669    -7212283.336 6  -5752631.737 4
  25576066.228    31324908.112 5  21881206.745 2
 94  3 23 18 27 30.0030000  0  8 18 19 27 28 22 29 31 14
  21250709.480     3988744.584 8  -6309786.917 9
  22221015.951   -11707899.580 8  -9104285.083 8
  23997338.069    -5143108.638 6  -5208141.215 4
  24367759.681    -4063016.740 6  -3196624.257 3
  25447786.354    35429644.811 5  17308210.796 2
  22128236.151    17456972.573 8   4185782.984 9
  24084216.874    -7248986.562 6  -5781231.592 4
  25604247.139    31472981.467 5  21996588.315 2
 94  3 23 18 28  0.0030000  0  8 18 19 27 28 22 29 31 14
  21256230.008     4017760.242 8  -6287177.315 9
  22221472.984   -11705486.228 8  -9102404.531 9
  23990844.744    -5177247.181 6  -5234742.604 4
  24370004.347    -4051220.771 5  -3187432.570 3
  25474473.669    35569915.182 5  17417512.291 2
  22143936.072    17539469.679 8   4250066.430 9
  24077293.527    -7285324.264 6  -5809546.612 4
  25632412.490    31621046.273 5  22111963.271 1
 94  3 23 18 28 30.0030000  0  8 18 19 27 28 22 29 31 14
  21261842.603     4047256.671 8  -6264193.101 9
  22221979.364   -11702833.283 8  -9100337.317 9
  23984374.503    -5211237.739 6  -5261228.727 4
  24372349.174    -4038923.093 6  -3177849.946 3
  25501197.378    35710327.679 5  17526924.562 2
  22159714.749    17622395.486 8   4314683.895 9
  24070435.684    -7321304.259 6  -5837582.893 4
  25660591.392    31769103.854 5  22227332.551 1
 94  3 23 18 29  0.0030000  0  8 18 19 27 28 22 29 31 14
  21267547.143     4077226.208 8  -6240840.239 9
  22222529.783   -11699935.727 8  -9098079.469 9
  23977931.573    -5245098.011 6  -5287613.336 4
  24374787.476    -4026105.380 6  -3167862.100 3
  25527942.073    35850872.212 5  17636439.645 2
  22175579.016    17705750.928 7   4379636.134 9
  24063654.229    -7356945.752 6  -5865355.440 4
  25688771.643    31917157.789 5  22342699.012 1
 94  3 23 18 29 30.0030000  0  8 18 19 27 28 22 29 31 14
  21273337.485     4107661.681 8  -6217124.282 9
  22223132.336   -11696781.133 8  -9095621.334 9
  23971512.717    -5278825.378 6  -5313894.389 4
  24377322.131    -4012752.516 5  -3157457.259 3
  25554702.867    35991555.362 4  17746062.821 2
  22191522.279    17789533.928 7   4444921.562 9
  24056933.811    -7392244.752 6  -5892861.064 4
  25716933.338    32065222.977 5  22458074.218 1
 94  3 23 18 30  0.0030000  0  8 18 19 27 28 22 29 31 14
  21279221.661     4138578.408 8  -6193033.347 9
  22223781.596   -11693372.716 8  -9092965.417 9
  23965118.174    -5312434.642 6  -5340083.395 4
  24379976.583    -3998859.899 6  -3146631.848 3
  25581503.624    36132356.642 5  17855777.982 2
  22207544.237    17873742.926 7   4510538.938 9
  24050282.226    -7427217.016 6  -5920112.103 4
  25745118.715    32213287.574 5  22573448.973 1
 94  3 23 18 30 30.0030000  0  8 18 19 27 28 22 29 31 14
  21285193.737     4169965.579 8  -6168575.057 9
  22224472.708   -11689733.221 8  -9090129.457 9
  23958740.179    -5345946.586 6  -5366196.572 4
  24382714.948    -3984418.244 6  -3135378.590 3
  25608314.663    36273242.534 4  17965559.091 2
  22223646.720    17958362.374 7   4576476.116 9
  24043695.186    -7461889.182 6  -5947129.311 4
  25773301.395    32361345.499 5  22688818.478 1
 94  3 23 18 31  0.0030000  0  7 18 19 27 28 22 29 31
  21291259.768     4201834.771 8  -6143742.717 9
  22225207.919   -11685865.491 8  -9087115.636 9
  23952383.800    -5379338.967 6  -5392216.595 4
  24385571.130    -3969427.002 6  -3123697.098 3
  25635142.130    36414215.897 5  18075408.350 2
  22239827.238    18043383.888 8   4642726.612 9
  24037137.706    -7496245.280 6  -5973900.243 4
 94  3 23 18 31 30.0030000  0  7 18 19 27 28 22 29 31
  21297417.325     4234196.948 8  -6118525.463 9
  22225987.379   -11681776.570 8  -9083929.471 9
  23946058.119    -5412594.328 6  -5418129.849 4
  24388524.266    -3953903.600 6  -3111600.921 3
  25661985.217    36555283.948 4  18185331.414 2
  22256083.244    18128803.127 7   4709287.021 9
  24030672.592    -7530279.382 6  -6000420.257 4
 94  3 23 18 32  0.0030000  0  7 18 19 27 28 22 29 31
  21303669.856     4267060.300 8  -6092917.666 9
  22226809.710   -11677464.831 8  -9080569.683 9
  23939757.291    -5445701.981 6  -5443927.984 4
  24391578.462    -3937844.604 6  -3099087.432 3
  25688853.337    36696448.187 5  18295329.386 3
  22272412.520    18214636.617 7   4776170.217 9
  24024262.579    -7563982.149 6  -6026682.101 4
 94  3 23 18 32 30.0030000  0  7 18 19 27 28 22 29 31
  21310015.084     4300410.337 8  -6066930.646 9
  22227672.003   -11672939.512 8  -9077043.452 9
  23933485.153    -5478651.501 6  -5469602.914 4
  24394730.450    -3921261.658 6  -3086165.636 4
  25715733.568    36837709.094 5  18405402.738 3
  22288828.855    18300887.284 8   4843378.492 8
  24017909.227    -7597340.421 6  -6052675.466 4
 94  3 23 18 33  0.0030000  0  7 18 19 27 28 22 29 31
  21316455.495     4334252.913 8  -6040559.815 9
  22228575.338   -11668189.859 8  -9073342.433 9
  23927249.650    -5511433.026 6  -5495146.947 4
  24397980.859    -3904158.821 6  -3072838.712 4
  25742630.857    36979073.059 5  18515556.373 3
  22305321.157    18387565.666 7   4910920.063 8
  24011630.974    -7630336.299 6  -6078386.481 4
 94  3 23 18 33 30.0040000  0  7 18 19 27 28 22 29 31
  21322988.602     4368576.130 8  -6013814.459 9
  22229517.855   -11663222.844 8  -9069472.043 9
  23921030.635    -5544080.183 6  -5520586.276 4
  24401340.633    -3886537.561 6  -3059107.874 4
  25769539.509    37120532.560 4  18625784.448 3
  22321902.079    18474683.196 8   4978803.808 8
  24005427.189    -7662974.720 6  -6103818.938 4
 94  3 23 18 34  0.0040000  0  7 18 19 27 28 22 29 31
  21329608.050     4403360.567 8  -5986709.728 9
  22230503.633   -11658054.963 8  -9065445.131 9
  23914845.497    -5576614.431 6  -5545937.609 4
  24404792.833    -3868398.584 6  -3044973.558 4
  25796476.791    37262065.754 3  18736069.950 3
  22338563.674    18562236.674 8   5047027.247 8
  23999276.497    -7695250.908 6  -6128969.172 4
 94  3 23 18 34 30.0040000  0  7 18 19 27 28 22 29 31
  21336318.424     4438626.704 8  -5959229.640 9
  22231518.790   -11652691.669 8  -9061265.952 9
  23908676.368    -5609039.880 6  -5571204.179 4
  24408341.207    -3849736.488 6  -3030431.645 4
  25823419.409    37403682.121 4  18846420.247 3
  22355306.124    18650229.334 7   5115592.922 8
  23993209.597    -7727160.904 6  -6153834.015 4
 94  3 23 18 35  0.0040000  0  7 18 19 27 28 22 29 31
  21343118.886     4474367.390 8  -5931379.775 9
  22232579.336   -11647140.418 8  -9056940.305 9
  23902522.438    -5641368.755 6  -5596395.480 4
  24411999.394    -3830563.234 6  -3015491.444 4
  25850386.940    37545373.019 3  18956828.648 3
  22372130.117    18738630.313 8   5184476.737 8
  23987207.872    -7758717.526 6  -6178423.529 4
 94  3 23 18 35 30.0040000  0  7 18 19 27 28 22 29 31
  21350009.946     4510584.349 8  -5903158.777 9
  22233669.441   -11641399.485 8  -9052466.851 9
  23896392.102    -5673583.424 6  -5621497.785 4
  24415742.813    -3810871.255 6  -3000147.004 4
  25877371.229    37687143.622 4  19067299.119 3
  22389030.047    18827442.353 8   5253680.883 8
  23981266.285    -7789908.150 6  -6202727.851 4
 94  3 23 18 36  0.0040000  0  7 18 19 27 28 22 29 31
  21356994.330     4547285.308 8  -5874560.651 9
  22234803.736   -11635444.976 8  -9047826.985 9
  23890291.266    -5705646.396 6  -5646481.926 4
  24419594.966    -3790643.751 6  -2984385.299 4
  25904363.342    37828998.826 4  19177835.509 3
  22406010.052    18916671.835 7   5323210.296 8
  23975394.999    -7820717.505 6  -6226735.058 4
 94  3 23 18 36 30.0040000  0  7 18 19 27 28 22 29 31
  21364068.113     4584464.004 8  -5845590.250 9
  22235976.854   -11629272.031 8  -9043016.897 9
  23884221.577    -5737550.020 6  -5671341.851 4
  24423541.434    -3769878.672 6  -2968204.692 4
  25931383.217    37970931.535 4  19288432.327 2
  22423065.545    19006303.281 7   5393052.938 8
  23969613.562    -7851149.515 6  -6250448.244 4
 94  3 23 18 37  0.0040000  0  7 18 19 27 28 22 29 31
  21371233.123     4622100.641 8  -5816263.009 9
  22237197.489   -11622868.912 8  -9038027.450 9
  23878181.029    -5769286.172 6  -5696071.280 4
  24427600.204    -3748571.741 6  -2951601.876 4
  25958395.027    38112931.099 4  19399081.212 2
  22440196.735    19096336.816 7   5463208.912 8
  23963885.367    -7881195.241 6  -6273860.451 4
 94  3 23 18 37 30.0040000  0  7 18 19 27 28 22 29 31
  21378485.672     4660202.511 8  -5786573.262 9
  22238460.664   -11616241.030 9  -9032862.877 9
  23872174.597    -5800864.992 6  -5720678.145 4
  24431753.109    -3726713.786 6  -2934569.668 4
  25985425.424    38254989.872 4  19509776.304 2
  22457408.630    19186786.659 7   5533689.257 8
  23958252.507    -7910858.609 6  -6296974.696 4
 94  3 23 18 38  0.0040000  0  7 18 19 27 28 22 29 31
  21385828.369     4698799.285 8  -5756497.869 9
  22239764.222   -11609378.657 8  -9027515.573 9
  23866186.753    -5832297.870 6  -5745171.259 4
  24436022.034    -3704300.425 6  -2917104.710 4
  26012475.218    38397110.418 5  19620519.479 2
  22474699.130    19277645.899 7   5604488.629 8
  23952680.384    -7940138.937 6  -6319790.450 4
 94  3 23 18 38 30.0040000  0  7 18 19 27 28 22 29 31
  21393269.458     4737907.722 8  -5726023.785 9
  22241113.078   -11602302.393 8  -9022001.610 9
  23860235.273    -5863601.478 6  -5769563.661 5
  24440390.969    -3681341.603 6  -2899214.704 4
  26039533.466    38539298.296 5  19731315.111 2
  22492064.518    19368902.025 7   5675597.235 8
  23947176.315    -7969039.003 6  -6342309.929 4
 94  3 23 18 39  0.0040000  0  6 18 19 27 28 29 31
  21400808.489     4777534.435 8  -5695145.846 9
  22242499.888   -11595009.808 8  -9016319.076 9
  23854303.130    -5894779.483 6  -5793858.190 5
  24444856.798    -3657843.183 6  -2880904.222 4
  22509509.351    19460564.522 7   5747022.522 8
  23941753.879    -7997549.607 6  -6364525.935 4
 94  3 23 18 39 30.0040000  0  6 18 19 27 28 29 31
  21408451.517     4817683.620 8  -5663860.788 9
  22243923.572   -11587506.725 8  -9010472.525 9
  23848386.935    -5925842.154 6  -5818062.835 5
  24449426.174    -3633807.947 6  -2862175.476 4
  22527032.040    19552634.766 7   5818765.509 8
  23936397.667    -8025689.240 6  -6386452.867 4
 94  3 23 18 40  0.0040000  0  6 18 19 27 28 29 31
  21416187.122     4858340.800 8  -5632179.881 9
  22245396.872   -11579790.073 8  -9004459.547 9
  23842505.367    -5956774.202 6  -5842165.705 5
  24454112.320    -3609234.579 6  -2843027.370 3
  22544628.718    19645118.358 7   5890830.616 8
  23931117.932    -8053445.645 6  -6408081.190 4
 94  3 23 18 40 30.0040000  0  6 18 19 27 28 29 31
  21424012.575     4899467.528 8  -5600133.087 9
  22246902.940   -11571865.657 8  -8998284.677 9
  23836638.878    -5987583.552 6  -5866172.966 5
  24458882.918    -3584129.800 6  -2823465.188 4
  22562308.169    19738031.410 7   5963230.342 8
  23925909.248    -8080813.173 6  -6429406.468 4
 94  3 23 18 41  0.0040000  0  6 18 19 27 28 29 31
  21431928.924     4941059.994 8  -5567723.402 9
  22248455.385   -11563715.184 8  -8991933.672 9
  23830799.641    -6018267.844 6  -5890082.782 5
  24463765.637    -3558478.050 6  -2803476.829 4
  22580073.450    19831383.532 7   6035972.217 8
  23920768.047    -8107785.408 6  -6450423.745 4
 94  3 23 18 41 30.0040000  0  6 18 19 27 28 29 31
  21439933.863     4983124.167 8  -5534946.129 9
  22250045.124   -11555345.420 8  -8985411.766 9
  23824985.436    -6048830.012 6  -5913897.421 5
  24468762.848    -3532276.473 6  -2783060.002 4
  22597916.768    19925161.920 7   6109046.253 8
  23915718.553    -8134360.885 6  -6471131.867 4
 94  3 23 18 42  0.0040000  0  6 18 19 27 28 29 31
  21448024.362     5025655.457 8  -5501804.882 9
  22251678.124   -11546775.433 8  -8978733.867 9
  23819190.238    -6079288.618 6  -5937631.394 5
  24473841.992    -3505541.880 6  -2762227.835 4
  22615841.719    20019346.733 7   6182436.952 8
  23910734.533    -8160529.095 6  -6491522.649 4
 94  3 23 18 42 30.0040000  0  6 18 19 27 28 29 31
  21456213.492     5068679.403 8  -5468279.756 9
  22253349.797   -11537988.510 8  -8971886.927 9
  23813411.888    -6109643.099 6  -5961284.177 5
  24479027.922    -3478264.033 6  -2740972.364 4
  22633843.176    20113941.067 7   6256146.787 8
  23905840.961    -8186285.611 6  -6511592.596 4
 94  3 23 18 43  0.0040000  0  6 18 19 27 28 29 31
  21464495.619     5112198.288 8  -5434368.947 9
  22255060.262   -11528996.974 8  -8964880.536 9
  23807656.832    -6139889.316 6  -5984852.655 5
  24484331.040    -3450446.583 6  -2719296.418 4
  22651915.655    20208914.172 7   6330151.747 8
  23901008.786    -8211652.863 6  -6531359.251 4
 94  3 23 18 43 30.0040000  0  6 18 19 27 28 29 31
  21472870.231     5156206.929 8  -5400076.526 9
  22256808.532   -11519803.509 8  -8957716.808 9
  23801926.749    -6170016.080 6  -6008328.013 5
  24489719.570    -3422096.910 6  -2697205.745 4
  22670058.975    20304266.034 7   6404451.852 8
  23896263.671    -8236626.828 6  -6550819.437 4
 94  3 23 18 44  0.0040000  0  6 18 19 27 28 29 31
  21481337.809     5200701.645 8  -5365405.323 9
  22258601.291   -11510384.488 8  -8950377.310 9
  23796217.801    -6200003.331 6  -6031694.672 5
  24495216.085    -3393194.933 6  -2674684.728 4
  22688278.292    20400012.120 7   6479059.144 8
  23891590.416    -8261203.153 6  -6569969.768 4
 94  3 23 18 44 30.0040000  0  6 18 19 27 28 29 31
  21489894.875     5245680.503 8  -5330356.882 9
  22260438.959   -11500726.264 8  -8942851.439 9
  23790541.021    -6229834.093 6  -6054939.391 5
  24500824.122    -3363723.328 6  -2651719.826 4
  22706573.936    20496144.192 7   6553967.208 8
  23886971.094    -8285395.857 6  -6588821.190 4
 94  3 23 18 45  0.0040000  0  6 18 19 27 28 29 31
  21498544.038     5291129.495 8  -5294942.114 9
  22262321.595   -11490843.209 8  -8935150.380 9
  23784891.852    -6259513.506 6  -6078066.214 5
  24506548.030    -3333686.247 6  -2628314.306 4
  22724936.374    20592645.749 7   6629163.158 8
  23882442.339    -8309200.247 6  -6607370.015 4
 94  3 23 18 45 30.0040000  0  6 18 19 27 28 29 31
  21507284.457     5337058.270 8  -5259153.480 9
  22264242.426   -11480738.473 8  -8927276.553 9
  23779274.581    -6289046.911 6  -6101079.220 5
  24512370.869    -3303076.857 6  -2604462.867 3
  22743374.659    20689539.098 7   6704664.417 8
  23877997.646    -8332592.810 6  -6625597.961 4
 94  3 23 18 46  0.0040000  0  7 18 19 27 28  2 29 31
  21516117.932     5383474.743 8  -5222984.808 9
  22266206.996   -11470422.308 8  -8919237.989 9
  23773677.875    -6318450.913 6  -6123991.385 5
  24518300.434    -3271900.832 6  -2580169.836 3
  26216397.885    -1135408.44614   -121777.481
  22761883.276    20786824.769 7   6780471.392 8
  23873624.334    -8355563.145 6  -6643496.855 4
 94  3 23 18 46 30.0040000  0  7 18 19 27 28  2 29 31
  21525042.513     5430373.258 8  -5186440.524 9
  22268204.063   -11459921.352 8  -8911055.425 9
  23768105.273    -6347753.785 6  -6146824.750 5
  24524341.672    -3240192.938 6  -2555462.377 3
  26204903.783    -1195834.219 4   -168862.540
  22780473.047    20884499.179 7   6856581.254 8
  23869336.222    -8378100.532 6  -6661058.412 4
 94  3 23 18 47  0.0040000  0  7 18 19 27 28  2 29 31
  21534057.872     5477759.677 8  -5149516.061 9
  22270237.795   -11449237.652 8  -8902730.472 9
  23762542.024    -6376966.555 6  -6169587.925 5
  24530473.716    -3207970.845 6  -2530354.246 3
  26193429.976    -1256122.862 4   -215840.627 1
  22799139.114    20982586.058 7   6933012.522 8
  23865139.698    -8400177.205 6  -6678260.945 4
 94  3 23 18 47 30.0040000  0  7 18 19 27 28  2 29 31
  21543171.353     5525649.263 8  -5112199.528 9
  22272309.301   -11438355.312 8  -8894250.725 9
  23757004.108    -6406080.950 6  -6192274.442 5
  24536699.806    -3175234.879 6  -2504845.700 3
  26181977.964    -1316283.848 4   -262719.226 1
  22817885.587    21081100.954 7   7009777.315 8
  23861017.881    -8421783.630 6  -6695097.068 4
 94  3 23 18 48  0.0040000  0  7 18 19 27 28  2 29 31
  21552381.217     5574048.265 8  -5074486.024 9
  22274420.290   -11427256.947 8  -8885602.658 9
  23751483.040    -6435082.285 6  -6214872.845 6
  24543025.067    -3141989.257 6  -2478939.987 3
  26170545.199    -1376338.869 4   -309515.261 1
  22836709.285    21180025.236 7   7086861.118 8
  23856998.564    -8442925.628 6  -6711571.301 4
 94  3 23 18 48 30.0040000  0  7 18 19 27 28  2 29 31
  21561689.443     5622959.223 8  -5036373.613 9
  22276575.708   -11415939.537 8  -8876783.882 9
  23745989.703    -6463950.197 6  -6237367.306 6
  24549448.001    -3108220.723 6  -2452626.842 3
  26159152.096    -1436297.846 4   -356236.524 1
  22855616.326    21279354.030 7   7164260.115 7
  23853057.342    -8463610.805 6  -6727689.557 4
 94  3 23 18 49  0.0040000  0  7 18 19 27 28  2 29 31
  21571095.731     5672389.546 8  -4997856.477 9
  22278770.608   -11404401.496 8  -8867793.197 9
  23740524.277    -6492671.295 6  -6259747.325 6
  24555988.363    -3073908.998 6  -2425890.421 3
  26147754.376    -1496147.590 4   -402872.575 1
  22874590.820    21379075.407 7   7241965.018 7
  23849206.808    -8483858.027 6  -6743466.542 4
 94  3 23 18 49 30.0040000  0  7 18 19 27 28  2 29 31
  21580600.021     5722328.201 8  -4958943.270 9
  22281004.691   -11392653.495 8  -8858638.917 9
  23735089.459    -6521241.812 6  -6282010.046 6
  24562612.008    -3039044.123 6  -2398722.990 3
  26136392.722    -1555886.385 4   -449422.253 2
  22893637.984    21479174.209 7   7319964.005 7
  23845430.262    -8503692.787 6  -6758922.157 4
 94  3 23 18 50  0.0040000  0  7 18 19 27 28  2 29 31
  21590194.939     5772757.125 8  -4919648.011 9
  22283280.686   -11380708.705 8  -8849331.292 9
  23729681.383    -6549663.512 6  -6304156.797 6
  24569347.774    -3003625.887 6  -2371124.365 3
  26125033.406    -1615490.502 4   -495866.947 2
  22912758.417    21579648.451 7   7398255.549 7
  23841736.729    -8523117.189 6  -6774058.004 4
 94  3 23 18 50 30.0040000  0  7 18 19 27 28  2 29 31
  21599880.934     5823659.888 8  -4879983.545 9
  22285588.878   -11368573.304 8  -8839875.137 9
  23724298.190    -6577948.195 6  -6326196.789 5
  24576200.071    -2967642.774 6  -2343085.552 3
  26113722.656    -1674934.042 3   -542186.487 2
  22931953.829    21680519.843 7   7476856.564 7
  23838118.624    -8542128.724 6  -6788872.135 4
 94  3 23 18 51  0.0040000  0  7 18 19 27 28  2 29 31
  21609659.894     5875037.719 8  -4839948.899 9
  22287934.844   -11356237.519 8  -8830262.838 9
  23718944.376    -6606094.853 7  -6348129.225 5
  24583157.174    -2931090.391 6  -2314603.174 3
  26102448.571    -1734196.246 3   -588364.786 2
  22951224.788    21781799.837 7   7555775.973 7
  23834578.794    -8560722.045 6  -6803360.384 4
 94  3 23 18 51 30.0040000  0  7 18 19 27 28  2 29 31
  21619523.905     5926875.847 8  -4799555.550 9
  22290321.581   -11343710.645 8  -8820501.628 9
  23713609.450    -6634110.084 6  -6369959.259 5
  24590224.452    -2893983.167 6  -2285688.447 3
  26091202.516    -1793304.501 3   -634423.059 2
  22970573.783    21883477.210 7   7635005.028 7
  23831124.466    -8578892.342 6  -6817519.005 4
 94  3 23 18 52  0.0040000  0  7 18 19 27 28  2 29 31
  21629478.933     5979189.053 8  -4758792.064 9
  22292740.607   -11330992.206 8  -8810591.183 9
  23708304.292    -6661999.730 6  -6391691.428 5
  24597381.067    -2856318.118 6  -2256339.084 3
  26079988.690    -1852264.390 3   -680365.757 2
  22989996.047    21985547.411 7   7714540.176 7
  23827753.899    -8596618.075 6  -6831331.270 4
 94  3 23 18 52 30.0040000  0  7 18 19 27 28  2 29 31
  21639528.096     6032004.246 8  -4717637.360 9
  22295196.297   -11318086.920 8  -8800535.091 9
  23703020.630    -6689774.947 6  -6413334.421 5
  24604657.030    -2818089.555 6  -2226550.559 3
  26068783.677    -1911090.998 3   -726204.514 2
  23009495.628    22088005.100 7   7794377.286 7
  23824460.829    -8613898.839 6  -6844796.746 4
 94  3 23 18 53  0.0040000  0  7 18 19 27 28  2 29 31
  21649679.459     6085341.718 8  -4676075.725 9
  22297687.392   -11304996.119 8  -8790334.481 9
  23697752.138    -6717441.884 7  -6434893.045 5
  24612038.220    -2779297.681 6  -2196323.117 3
  26057623.513    -1969800.066 3   -771951.690 2
  23029059.514    22190825.891 7   7874497.315 7
  23821262.793    -8630731.849 6  -6857913.335 4
 94  3 23 18 53 30.0040000  0  7 18 19 27 28  2 29 31
  21659928.104     6139201.095 8  -4634107.399 9
  22300212.724   -11291710.631 8  -8779982.141 9
  23692508.678    -6745010.127 6  -6456374.773 5
  24619537.859    -2739934.744 6  -2165650.709 3
  26046463.708    -2028402.532 4   -817615.870 2
  23048695.050    22294002.720 7   7954894.774 7
  23818136.467    -8647103.645 6  -6870670.541 4
 94  3 23 18 54  0.0040000  0  7 18 19 27 28  2 29 31
  21670276.190     6193586.304 8  -4591729.344 9
  22302781.226   -11278217.920 8  -8769468.357 9
  23687279.578    -6772477.136 6  -6477777.621 5
  24627134.420    -2699978.868 6  -2134516.243 3
  26035329.087    -2086875.196 4   -863178.877 2
  23068396.481    22397552.773 7   8035583.060 7
  23815115.698    -8663010.059 6  -6883065.116 4
 94  3 23 18 54 30.0040000  0  7 18 19 27 28  2 29 31
  21680722.878     6248472.678 8  -4548960.754 9
  22305389.210   -11264518.349 8  -8758793.365 9
  23682073.022    -6799837.733 6  -6499097.536 5
  24634852.037    -2659442.704 6  -2102929.626 4
  26024240.873    -2145217.266 4   -908640.117 2
  23088174.599    22501469.024 7   8116556.707 7
  23812172.786    -8678470.067 6  -6895111.865 4
 94  3 23 18 55  0.0040000  0  7 18 19 27 28  2 29 31
  21691255.037     6303830.327 8  -4505824.938 9
  22308035.418   -11250607.003 8  -8747953.352 9
  23676886.103    -6827077.645 6  -6520323.425 5
  24642673.952    -2618346.331 6  -2070906.470 3
  26013159.285    -2203429.754 5   -954000.358 3
  23108018.642    22605746.764 7   8197812.008 7
  23809317.862    -8693479.319 6  -6906807.366 4
 94  3 23 18 55 30.0050000  0  7 18 19 27 28  2 29 31
  21701878.182     6359654.469 8  -4462325.643 9
  22310720.120   -11236488.674 8  -8736952.068 9
  23671732.581    -6854177.916 7  -6541440.488 5
  24650594.379    -2576700.518 6  -2038455.203 3
  26002109.954    -2261496.676 5   -999247.181 3
  23127933.225    22710406.155 7   8279364.720 7
  23806553.926    -8708021.795 6  -6918139.111 4
 94  3 23 18 56  0.0050000  0  7 18 19 27 28  2 29 31
  21712589.767     6415942.328 8  -4418464.988 9
  22313444.484   -11222188.458 8  -8725809.038 9
  23666604.271    -6881131.079 7  -6562442.934 5
  24658620.332    -2534541.650 6  -2005604.130 3
  25991087.035    -2319405.729 5  -1044370.997 3
  23147916.641    22815439.527 7   8361208.851 7
  23803867.006    -8722106.830 6  -6929114.412 4
 94  3 23 18 56 30.0050000  0  7 18 19 27 28  2 29 31
  21723390.869     6472697.878 8  -4374239.910 9
  22316202.754   -11207704.975 8  -8714523.232 9
  23661499.255    -6907946.116 7  -6583337.746 5
  24666725.971    -2491891.293 6  -1972370.093 3
  25980098.352    -2377161.197 5  -1089375.104 3
  23167977.343    22920842.867 7   8443341.249 7
  23801280.366    -8735724.507 6  -6939725.544 4
 94  3 23 18 57  0.0050000  0  7 18 19 27 28  2 29 31
  21734281.040     6529935.412 8  -4329639.247 9
  22318991.364   -11193038.551 8  -8703094.846 9
  23656422.150    -6934630.410 7  -6604130.656 5
  24674949.308    -2448734.025 6  -1938741.025 3
  25969137.640    -2434754.973 5  -1134253.249 3
  23188102.621    23026622.297 7   8525766.729 6
  23798776.320    -8748855.118 6  -6949957.143 4
 94  3 23 18 57 30.0050000  0  7 18 19 27 28  2 29 31
  21745265.346     6587659.484 8  -4284659.467 9
  22321816.458   -11178187.513 8  -8691522.617 9
  23651366.510    -6961199.338 7  -6624833.708 5
  24683256.797    -2405055.186 6  -1904705.586 3
  25958212.963    -2492187.732 5  -1179005.912 2
  23208310.821    23132781.359 7   8608488.009 6
  23796376.871    -8761498.190 6  -6959808.829 4
 94  3 23 18 58  0.0050000  0  7 18 19 27 28  2 29 31
  21756347.444     6645884.610 8  -4239289.258 9
  22324682.444   -11163133.150 8  -8679791.941 9
  23646330.566    -6987663.250 7  -6645454.918 6
  24691675.749    -2360827.405 6  -1870242.378 3
  25947312.359    -2549462.561 5  -1223635.501 2
  23228581.857    23239320.450 7   8691505.426 6
  23794059.415    -8773651.094 6  -6969278.548 4
 94  3 23 18 58 30.0050000  0  7 18 19 27 28  2 29 31
  21767517.921     6704599.746 8  -4193537.221 9
  22327587.433   -11147869.323 8  -8667898.057 9
  23641313.809    -7014036.936 7  -6666005.827 6
  24700203.585    -2316022.787 6  -1835329.701 3
  25936437.298    -2606595.260 5  -1268154.343 2
  23248927.392    23346226.051 7   8774808.428 6
  23791845.628    -8785321.497 6  -6978372.332 4
 94  3 23 18 59  0.0050000  0  7 18 19 27 28  2 29 31
  21778785.710     6763805.794 8  -4147402.670 9
  22330527.228   -11132411.977 8  -8655853.394 9
  23636314.860    -7040305.115 7  -6686474.517 6
  24708836.708    -2270644.058 6  -1799969.637 3
  25925584.931    -2663597.576 5  -1312571.597 2
  23269338.912    23453492.010 7   8858392.221 6
  23789710.476    -8796520.714 6  -6987098.930 4
 94  3 23 18 59 30.0050000  0  7 18 19 27 28  2 29 31
  21790147.095     6823509.191 8  -4100880.563 9
  22333507.315   -11116758.787 8  -8643656.098 9
  23631336.026    -7066466.410 7  -6706859.933 6
  24717582.943    -2224713.805 6  -1764179.859 3
  25914764.342    -2720469.780 4  -1356887.484 2
  23289825.110    23561114.330 7   8942253.703 6
  23787665.982    -8807265.125 6  -6995471.167 4
 94  3 23 19  0  0.0050000  0  7 18 19 27 28  2 29 31
  21801602.375     6883710.516 8  -4053970.473 9
  22336519.779   -11100916.783 8  -8631311.686 9
  23626378.239    -7092516.094 7  -6727158.362 6
  24726423.553    -2178244.502 6  -1727970.012 3
  25903971.154    -2777215.371 4  -1401104.721 2
  23310363.891    23669076.569 7   9026380.061 6
  23785706.718    -8817568.551 6  -7003499.739 4
 94  3 23 19  0 30.0050000  0  7 18 19 27 28  2 29 31
  21813153.888     6944411.496 8  -4006671.045 9
  22339573.975   -11084876.831 8  -8618813.032 9
  23621444.854    -7118431.580 7  -6747352.239 6
  24735366.602    -2131245.191 6  -1691347.197 3
  25893199.191    -2833819.851 4  -1445212.002 2
  23330978.040    23777382.429 7   9110774.151 6
  23783825.730    -8827414.953 6  -7011172.224 4
 94  3 23 19  1  0.0050000  0  7 18 19 27 28  2 29 31
  21824797.317     7005611.223 8  -3958982.979 9
  22342665.375   -11068643.253 8  -8606163.511 9
  23616537.401    -7144225.433 7  -6767451.324 6
  24744395.332    -2083737.435 6  -1654328.179 3
  25882466.291    -2890277.840 4  -1489205.117 2
  23351646.302    23886028.916 7   9195433.682 6
  23782048.470    -8836794.588 6  -7018480.984 4
 94  3 23 19  1 30.0050000  0  7 18 19 27 28  2 29 31
  21836539.888     7067295.458 8  -3910917.372 9
  22345787.113   -11052215.180 8  -8593362.421 9
  23611651.024    -7169924.532 7  -6787476.592 6
  24753542.269    -2035715.049 6  -1616908.148 3
  25871734.651    -2946592.811 4  -1533086.747 2
  23372387.413    23995011.551 7   9280355.131 6
  23780355.992    -8845699.347 6  -7025419.732 4
 94  3 23 19  2  0.0050000  0  7 18 19 27 28  2 29 31
  21848365.261     7129448.794 8  -3862486.221 9
  22348950.344   -11035601.728 8  -8580416.877 9
  23606777.808    -7195530.046 7  -6807428.925 6
  24762782.083    -1987160.904 6  -1579073.763 3
  25861060.480    -3002777.132 4  -1576866.610 2
  23393189.442    24104325.581 7   9365534.814 6
  23778747.396    -8854119.723 6  -7031981.000 4
 94  3 23 19  2 30.0050000  0  7 18 19 27 28  2 29 31
  21860282.311     7192070.085 8  -3813690.418 9
  22352145.622   -11018803.302 9  -8567327.197 9
  23601919.851    -7221037.608 7  -6827304.913 6
  24772127.573    -1938061.073 6  -1540814.168 3
  25850383.312    -3058822.029 4  -1620537.888 2
  23414056.616    24213981.077 7   9450980.584 6
  23777242.348    -8862041.341 6  -7038153.635 4
 94  3 23 19  3  0.0050000  0  7 18 19 27 28  2 29 31
  21872288.160     7255160.296 8  -3764529.241 9
  22355378.344   -11001823.065 9  -8554095.856 9
  23597089.445    -7246439.349 7  -6847098.488 6
  24781571.215    -1888407.346 6  -1502122.990 3
  25839745.327    -3114721.616 4  -1664095.833 2
  23434986.656    24323994.576 7   9536705.295 6
  23775825.858    -8869471.351 6  -7043943.210 4
 94  3 23 19  3 30.0050000  0  7 18 19 27 28  2 29 31
  21884383.047     7318730.988 8  -3714993.662 9
  22358646.231   -10984649.814 8  -8540714.102 9
  23592280.924    -7271713.867 7  -6866792.901 6
  24791132.886    -1838182.816 6  -1462986.998 3
  25829142.027    -3170469.143 4  -1707535.343 2
  23455997.071    24434370.766 7   9622712.651 6
  23774506.981    -8876411.859 6  -7049351.369 5
 94  3 23 19  4  0.0050000  0  7 18 19 27 28  2 29 31
  21896571.259     7382776.505 8  -3665088.086 9
  22361948.265   -10967277.958 9  -8527177.602 9
  23587495.637    -7296845.300 7  -6886375.812 6
  24800802.302    -1787383.484 6  -1423403.116 3
  25818555.726    -3226051.469 4  -1750846.130 2
  23477067.384    24545103.163 7   9708997.565 6
  23773282.509    -8882871.732 6  -7054385.005 5
 94  3 23 19  4 30.0050000  0  7 18 19 27 28  2 29 31
  21908848.989     7447297.763 8  -3614811.796 9
  22365291.161   -10949708.054 9  -8513486.770 9
  23582739.249    -7321841.093 7  -6905853.037 6
  24810569.000    -1736023.060 6  -1383382.019 3
  25808015.383    -3281457.869 5  -1794019.832 2
  23498202.003    24656186.930 7   9795556.256 6
  23772144.227    -8888854.582 7  -7059046.939 5
 94  3 23 19  5  0.0050000  0  7 18 19 27 28  2 29 31
  21921220.405     7512303.897 8  -3564157.703 9
  22368676.328   -10931939.912 9  -8499641.478 9
  23578010.473    -7346700.686 7  -6925224.134 6
  24820448.541    -1684110.806 6  -1342930.919 3
  25797501.991    -3336676.921 5  -1837047.563 2
  23519408.482    24767620.555 7   9882387.576 6
  23771096.872    -8894354.023 7  -7063332.194 5
 94  3 23 19  5 30.0050000  0  7 18 19 27 28  2 29 31
  21933685.565     7577795.576 8  -3513125.233 9
  22372096.480   -10913974.832 9  -8485642.718 9
  23573299.444    -7371432.425 7  -6944495.607 6
  24830431.750    -1631635.290 6  -1302040.916 3
  25787033.298    -3391710.809 5  -1879930.983 2
  23540681.036    24879389.635 7   9969480.292 6
  23770141.763    -8899345.941 6  -7067221.969 5
 94  3 23 19  6  0.0050000  0  7 18 19 27 28  2 29 31
  21946234.578     7643751.674 8  -3461730.897 9
  22375545.772   -10895834.543 9  -8471507.432 9
  23568616.476    -7396054.367 7  -6963681.519 6
  24840523.753    -1578620.846 6  -1260730.964 3
  25776585.411    -3446578.762 5  -1922685.167 2
  23562010.220    24991489.441 7  10056830.706 6
  23769290.353    -8903834.659 7  -7070719.675 5
 94  3 23 19  6 30.0050000  0  7 18 19 27 28  2 29 31
  21958877.695     7710196.760 8  -3409955.525 9
  22379029.061   -10877526.288 9  -8457241.262 9
  23563951.076    -7420580.495 7  -6982792.771 6
  24850705.994    -1525075.728 6  -1219007.522 3
  25766170.561    -3501278.616 5  -1965308.291 2
  23583403.529    25103929.688 7  10144446.429 6
  23768530.888    -8907803.402 6  -7073812.178 5
 94  3 23 19  7  0.0050000  0  7 18 19 27 28  2 29 31
  21971617.136     7777135.363 8  -3357795.605 9
  22382549.733   -10859045.254 9  -8442840.453 9
  23559301.595    -7445002.157 7  -7001822.623 6
  24861005.634    -1470993.621 6  -1176865.627 3
  25755798.851    -3555823.032 5  -2007810.342 3
  23604868.969    25216713.875 7  10232330.140 5
  23767882.168    -8911244.546 7  -7076493.559 5
 94  3 23 19  7 30.0050000  0  7 18 19 27 28  2 29 31
  21984448.613     7844572.145 8  -3305247.489 9
  22386099.246   -10840378.668 9  -8428295.068 9
  23554675.288    -7469316.361 7  -7020768.754 6
  24871405.015    -1416359.904 6  -1134293.910 3
  25745452.654    -3610220.969 5  -2050198.193 3
  23626396.946    25329851.557 7  10320489.297 5
  23767322.785    -8914153.135 6  -7078759.988 5
 94  3 23 19  8  0.0050000  0  7 18 19 27 28  2 29 31
  21997374.884     7912501.014 8  -3252315.929 9
  22389688.121   -10821525.473 9  -8413604.279 9
  23550067.537    -7493527.410 7  -7039634.499 6
  24881902.907    -1361188.775 6  -1091303.434 3
  25735131.939    -3664468.487 5  -2092468.854 3
  23647994.654    25443336.298 7  10408918.894 5
  23766877.113    -8916549.778 7  -7080627.488 5
 94  3 23 19  8 30.0050000  0  7 18 19 27 28  2 29 31
  22010399.248     7980931.179 8  -3198993.752 9
  22393311.383   -10802475.598 9  -8398760.224 9
  23545479.364    -7517621.880 7  -7058409.390 6
  24892500.990    -1305476.593 6  -1047891.343 3
  25724850.467    -3718554.036 5  -2134613.321 3
  23669655.079    25557158.107 7  10497611.142 5
  23766513.705    -8918429.387 7  -7082092.097 5
 94  3 23 19  9  0.0050000  0  8 18 19 27 28  2 29 31 16
  22023509.052     8049838.741 8  -3145299.589 9
  22396973.948   -10783236.478 9  -8383768.721 9
  23540923.028    -7541589.392 7  -7077085.391 6
  24903205.170    -1249227.579 6  -1004060.951 3
  25714573.761    -3772495.897 5  -2176645.859 3
  23691376.631    25671301.375 7  10586553.868 5
  23766249.798    -8919817.551 6  -7083173.750 5
  26304253.444    -1658665.03615    -67326.787
 94  3 23 19  9 30.0050000  0  8 18 19 27 28  2 29 31 16
  22036711.402     8119209.769 8  -3091244.277 9
  22400668.500   -10763808.226 9  -8368629.828 9
  23536387.288    -7565433.829 7  -7095665.446 6
  24914008.041    -1192445.494 6   -959815.165 3
  25704341.784    -3826277.504 5  -2218553.478 3
  23713153.795    25785766.048 7  10675747.025 5
  23766077.417    -8920722.544 6  -7083878.936 5
  26299222.627    -1685084.487 5    -87913.317
 94  3 23 19 10  0.0050000  0  8 18 19 27 28  2 29 31 16
  22049998.324     8189034.579 8  -3036835.383 9
  22404400.496   -10744209.508 9  -8353358.123 9
  23531871.364    -7589153.060 7  -7114147.954 6
  24924907.236    -1135155.273 6   -915173.471 3
  25694139.128    -3879892.195 5  -2260331.079 2
  23734998.323    25900539.120 7  10765180.491 5
  23765991.377    -8921144.745 6  -7084207.917 5
  26294271.165    -1711106.130 5   -108189.892
 94  3 23 19 10 30.0050000  0  8 18 19 27 28  2 29 31 16
  22063374.284     8259326.609 8  -2982062.404 9
  22408161.962   -10724448.943 8  -8337960.276 9
  23527382.992    -7612735.114 7  -7132523.553 6
  24935909.949    -1077356.020 6   -870135.094 3
  25683969.808    -3933347.818 5  -2301984.734 2
  23756902.119    26015627.682 7  10854859.800 5
  23766009.604    -8921074.886 6  -7084153.457 5
  26289397.529    -1736736.711 5   -128161.768 1
 94  3 23 19 11  0.0050000  0  8 18 19 27 28  2 29 31 16
  22076840.002     8330084.544 8  -2926926.386 9
  22411953.527   -10704525.521 8  -8322435.546 9
  23522920.221    -7636188.194 7  -7150798.676 6
  24947011.923    -1019033.915 6   -824689.294 3
  25673830.827    -3986636.464 5  -2343508.249 2
  23778862.876    26131047.246 7  10944797.039 5
  23766117.859    -8920493.569 7  -7083700.463 5
  26284602.169    -1761970.662 5   -147824.606 1
 94  3 23 19 11 30.0050000  0  8 18 19 27 28  2 29 31 16
  22090393.289     8401313.724 8  -2871423.167 9
  22415776.721   -10684430.760 8  -8306777.297 9
  23518479.096    -7659527.851 7  -7168985.400 6
  24958205.544     -960197.345 6   -778842.634 3
  25663713.161    -4039743.581 5  -2384890.306 2
  23800888.568    26246796.324 7  11034991.024 5
  23766329.932    -8919379.792 7  -7082832.592 5
  26279863.799    -1786799.317 5   -167171.626 1
 94  3 23 19 12  0.0050000  0  8 18 19 27 28  2 29 31 16
  22104042.510     8473033.779 8  -2815537.439 9
  22419632.741   -10664171.736 8  -8290991.046 9
  23514057.307    -7682759.865 7  -7187088.244 6
  24969503.253     -900847.007 6   -732595.632 3
  25653652.126    -4092680.615 5  -2426139.890 2
  23822974.368    26362860.753 6  11125430.748 5
  23766648.282    -8917729.441 7  -7081546.578 5
  26275223.341    -1811211.021 5   -186193.753 1
 94  3 23 19 12 30.0050000  0  8 18 19 27 28  2 29 31 16
  22117781.369     8545240.966 8  -2759272.139 9
  22423523.628   -10643728.762 8  -8275061.469 9
  23509653.925    -7705896.736 7  -7205116.965 6
  24980900.492     -840962.450 6   -685932.362 3
  25643596.967    -4145458.338 5  -2467265.314 2
  23845124.204    26479251.828 6  11216125.001 5
  23767056.449    -8915548.575 7  -7079847.175 5
  26270657.412    -1835188.647 5   -204877.599 2
 94  3 23 19 13  0.0050000  0  8 18 19 27 28  2 29 31 16
  22131611.304     8617911.221 8  -2702646.003 9
  22427447.671   -10623092.636 8  -8258981.374 9
  23505267.752    -7728941.892 7  -7223074.207 6
  24992396.154     -780547.236 6   -638855.589 3
  25633581.531    -4198070.400 5  -2508261.638 2
  23867329.741    26595961.482 6  11307067.498 5
  23767570.863    -8912850.708 7  -7077744.927 5
  26266182.320    -1858729.972 5   -223221.480 2
 94  3 23 19 13 30.0050000  0  8 18 19 27 28  2 29 31 16
  22145528.989     8691046.937 8  -2645657.179 9
  22431410.927   -10602268.102 8  -8242754.471 9
  23500905.052    -7751882.071 7  -7240949.668 6
  25003988.079     -719610.985 6   -591372.789 3
  25623599.251    -4250519.361 5  -2549130.887 2
  23889602.672    26712978.030 6  11398249.103 5
  23768183.759    -8909653.352 7  -7075253.451 5
  26261783.016    -1881830.416 5   -241221.748 2
 94  3 23 19 14  0.0050000  0  8 18 19 27 28  2 29 31 16
  22159534.124     8764642.922 8  -2588309.685 9
  22435409.889   -10581254.057 8  -8226379.881 9
  23496561.419    -7774702.390 7  -7258731.698 6
  25015688.559     -658139.973 6   -543473.323 3
  25613657.954    -4302809.310 5  -2589876.229 2
  23911926.148    26830309.563 6  11489676.203 5
  23768886.712    -8905955.545 7  -7072372.025 5
  26257468.313    -1904489.849 5   -258878.504 2
 94  3 23 19 14 30.0050000  0  8 18 19 27 28  2 29 31 16
  22173622.930     8838692.855 8  -2530608.469 9
  22439447.614   -10560038.512 8  -8209848.295 9
  23492244.558    -7797395.534 7  -7276414.659 7
  25027483.534     -596130.770 6   -495154.484 3
  25603733.234    -4354923.507 5  -2630484.649 2
  23934317.737    26947962.865 7  11581354.010 5
  23769682.871    -8901746.477 6  -7069092.208 5
  26253236.173    -1926711.260 5   -276193.933 2
 94  3 23 19 15  0.0050000  0  8 18 19 27 28  2 29 31 16
  22187805.002     8913212.035 8  -2472541.613 9
  22443522.663   -10538623.668 8  -8193161.408 9
  23487948.711    -7819958.048 7  -7293995.831 7
  25039381.757     -533601.132 6   -446430.110 3
  25593862.628    -4406845.625 5  -2670943.356 2
  23956765.117    27065923.630 6  11673271.393 5
  23770590.313    -8897010.215 7  -7065401.583 5
  26249098.737    -1948497.285 5   -293170.064 2
 94  3 23 19 15 30.0050000  0  8 18 19 27 28  2 29 31 16
  22202081.359     8988222.884 8  -2414091.655 9
  22447636.864   -10517000.860 8  -8176312.467 9
  23483680.566    -7842401.737 7  -7311484.406 7
  25051387.905     -470547.208 6   -397297.199 4
  25584021.610    -4458572.274 5  -2711249.771 2
  23979267.658    27184193.686 6  11765429.806 5
  23771590.420    -8891723.953 6  -7061282.402 5
  26245034.091    -1969842.184 5   -309802.456 2
 94  3 23 19 16  0.0050000  0  8 18 19 27 28  2 29 31 16
  22216442.137     9063708.236 8  -2355271.931 9
  22451789.709   -10495179.845 8  -8159309.087 9
  23479426.271    -7864754.238 7  -7328901.916 7
  25063479.464     -406975.258 6   -347760.627 4
  25574209.073    -4510123.654 5  -2751419.604 2
  24001834.476    27302761.999 6  11857820.607 5
  23772701.481    -8885901.600 7  -7056745.452 5
  26241053.717    -1990771.891 5   -326111.307 2
 94  3 23 19 16 30.0050000  0  8 18 19 27 28  2 29 31 16
  22230899.778     9139679.256 8  -2296073.763 9
  22455979.939   -10473161.364 9  -8142151.837 9
  23475189.754    -7887009.809 7  -7346243.932 7
  25075676.760     -342887.439 6   -297822.093 4
  25564431.642    -4561495.064 5  -2791449.209 3
  24024453.097    27421633.547 6  11950447.673 5
  23773912.823    -8879544.466 6  -7051791.848 5
  26237144.753    -2011280.543 5   -342092.146 2
 94  3 23 19 17  0.0050000  0  8 18 19 27 28  2 29 31 16
  22245447.087     9216124.105 8  -2236506.392 9
  22460203.235   -10450961.546 8  -8124853.299 9
  23470977.700    -7909159.649 7  -7363503.529 7
  25087970.769     -278278.800 6   -247477.712 4
  25554690.516    -4612699.543 5  -2831348.772 3
  24047129.309    27540809.235 6  12043311.738 5
  23775221.926    -8872667.614 7  -7046433.228 5
  26233331.423    -2031362.904 5   -357740.699 2
 94  3 23 19 17 30.0060000  0  8 18 19 27 28  2 29 31 16
  22260079.867     9293025.461 8  -2176583.310 9
  22464458.819   -10428604.589 8  -8107432.303 9
  23466782.884    -7931193.325 7  -7380672.633 7
  25100371.804     -213126.392 6   -196709.629 4
  25544971.604    -4663757.862 5  -2871134.408 3
  24069866.528    27660294.532 6  12136417.064 5
  23776617.640    -8865278.569 6  -7040675.530 5
  26229586.295    -2051021.623 5   -373059.221 2
 94  3 23 19 18  0.0060000  0  8 18 19 27 28  2 29 31 16
  22274800.636     9370375.162 8  -2116310.848 9
  22468740.125   -10406097.184 9  -8089894.057 9
  23462614.960    -7953087.158 7  -7397732.741 7
  25112868.863     -147424.187 6   -145513.118 4
  25535284.800    -4714670.228 5  -2910806.324 3
  24092666.014    27780088.010 6  12229762.535 5
  23778135.999    -8857375.082 6  -7034516.919 5
  26225931.346    -2070246.872 5   -388039.871 2
 94  3 23 19 18 30.0060000  0  8 18 19 27 28  2 29 31 16
  22289604.958     9448167.747 8  -2055693.284 9
  22473052.759   -10383441.391 9  -8072240.214 9
  23458476.834    -7974838.160 7  -7414681.572 7
  25125480.502      -81182.413 6    -93896.166 4
  25525619.252    -4765433.408 5  -2950361.988 3
  24115515.596    27900176.614 6  12323337.966 5
  23779733.683    -8848949.005 7  -7027951.120 5
  26222351.194    -2089028.133 5   -402674.660 2
 94  3 23 19 19  0.0060000  0  8 18 19 27 28  2 29 31 16
  22304493.790     9526418.673 8  -1994718.583 9
  22477396.392   -10360618.300 9  -8054455.994 9
  23454365.900    -7996447.344 7  -7431519.892 7
  25138186.576      -14390.744 5    -41850.732 4
  25515999.901    -4816028.432 5  -2989786.631 3
  24138428.074    28020555.758 6  12417139.797 5
  23781442.890    -8839966.326 7  -7020951.607 5
  26218866.706    -2107344.572 5   -416947.217 2
 94  3 23 19 19 30.0060000  0  8 18 19 27 28  2 29 31 16
  22319472.261     9605123.010 8  -1933390.576 9
  22481771.294   -10337628.365 9  -8036541.779 9
  23450272.864    -8017947.396 7  -7448273.193 7
  25150994.309       52919.790 5     10598.988 4
  25506394.850    -4866460.039 5  -3029083.925 3
  24161380.125    28141204.933 6  12511152.044 5
  23783261.671    -8830427.585 7  -7013518.823 5
  26215465.201    -2125211.713 5   -430869.686 2
 94  3 23 19 20  0.0060000  0  8 18 19 27 28  2 29 31 16
  22334538.151     9684299.193 8  -1871694.886 9
  22486182.890   -10314445.521 9  -8018477.230 9
  23446200.603    -8039353.084 7  -7464952.944 7
  25163900.554      120732.079 5     63439.742 4
  25496836.417    -4916698.613 6  -3068230.803 3
  24184397.050    28262128.256 6  12605377.919 5
  23785180.972    -8820330.928 7  -7005651.253 5
  26212149.107    -2142627.306 4   -444440.306 2
 94  3 23 19 20 30.0060000  0  8 18 19 27 28  2 29 31 16
  22349695.268     9763951.101 8  -1809628.494 9
  22490630.341   -10291070.953 9  -8000263.278 9
  23442143.032    -8060680.907 7  -7481572.008 7
  25176896.617      189026.906 6    116656.473 4
  25487321.335    -4966729.406 5  -3107215.782 3
  24207458.405    28383323.267 6  12699815.496 5
  23787204.301    -8809686.450 7  -6997356.842 5
  26208937.010    -2159588.432 4   -457656.794 2
 94  3 23 19 21  0.0060000  0  8 18 19 27 28  2 29 31 16
  22364942.622     9844083.522 8  -1747187.697 9
  22495114.456   -10267511.531 8  -7981905.301 9
  23438096.164    -8081939.158 7  -7498136.873 7
  25189983.607      257801.647 5    170247.126 4
  25477832.004    -5016558.095 5  -3146043.294 3
  24230572.494    28504804.837 6  12794476.343 5
  23789332.828    -8798505.780 7  -6988644.602 5
  26205779.656    -2176102.769 4   -470525.133 2
 94  3 23 19 21 30.0060000  0  8 18 19 27 28  2 29 31 16
  22380286.090     9924697.796 8  -1684371.425 9
  22499636.406   -10243757.980 8  -7963396.043 9
  23434069.921    -8103099.564 7  -7514625.498 7
  25203168.480      327073.464 5    224225.134 4
  25468393.668    -5066173.757 5  -3184704.811 3
  24253754.425    28626605.090 6  12889385.516 5
  23791555.999    -8786799.253 7  -6979522.616 5
  26202735.324    -2192162.208 5   -483038.966 2
 94  3 23 19 22  0.0060000  0  8 18 19 27 28  2 29 31 16
  22395715.449    10005781.186 8  -1621189.599 9
  22504190.253   -10219815.850 8  -7944739.865 9
  23430070.060    -8124148.337 7  -7531027.138 7
  25216446.707      396849.608 5    278596.084 4
  25458996.493    -5115587.292 5  -3223208.823 3
  24276991.608    28748728.897 6  12984546.804 5
  23793887.155    -8774573.033 7  -6969995.674 5
  26199756.766    -2207762.795 5   -495195.241 2
 94  3 23 19 22 30.0060000  0  8 18 19 27 28  2 29 31 16
  22411229.439    10087311.660 8  -1557659.400 9
  22508779.146   -10195695.971 8  -7925945.178 9
  23426084.079    -8145068.349 7  -7547328.464 7
  25229819.489      467145.097 5    333371.753 4
  25449619.405    -5164817.062 5  -3261569.618 3
  24300289.260    28871170.734 6  13079955.909 5
  23796313.165    -8761816.441 7  -6960055.458 5
  26196873.182    -2222893.146 5   -506985.129 2
 94  3 23 19 23  0.0060000  0  8 18 19 27 28  2 29 31 16
  22426826.471    10169276.945 8  -1493790.396 9
  22513404.225   -10171400.436 8  -7907013.600 9
  23422136.352    -8165841.483 7  -7563515.299 7
  25243309.700      537980.137 5    388567.864 4
  25440291.183    -5213874.078 5  -3299795.805 3
  24323649.778    28993919.297 6  13175604.026 5
  23798850.039    -8748523.696 7  -6949697.458 5
  26194089.849    -2237554.601 5   -518409.607 2
 94  3 23 19 23 30.0060000  0  8 18 19 27 28  2 29 31 16
  22442507.445    10251674.777 8  -1429584.315 9
  22518060.541   -10146927.516 8  -7887943.800 9
  23418207.632    -8186460.111 7  -7579581.760 7
  25256877.707      609344.963 5    444176.764 4
  25430986.944    -5262753.656 5  -3337883.744 3
  24347062.399    29116951.573 6  13271473.237 5
  23801472.473    -8734689.066 7  -6938917.201 5
  26191384.102    -2251737.657 5   -529461.366 2
 94  3 23 19 24  0.0060000  0  8 18 19 27 28  2 29 31 16
  22458268.164    10334513.962 8  -1365034.362 9
  22522750.674   -10122279.871 8  -7868737.854 9
  23414313.628    -8206928.936 7  -7595531.499 7
  25270556.758      681221.537 5    500184.403 4
  25421711.395    -5311464.262 5  -3375840.009 3
  24370526.675    29240238.786 6  13367541.066 5
  23804213.356    -8720297.978 7  -6927703.378 5
  26188773.000    -2265444.019 5   -540141.707 2
 94  3 23 19 24 30.0060000  0  8 18 19 27 28  2 29 31 16
  22474119.331    10417809.026 8  -1300129.154 9
  22527473.844   -10097460.326 8  -7849397.959 9
  23410443.637    -8227255.567 7  -7611370.419 7
  25284330.003      753598.241 5    556581.841 4
  25412482.285    -5360005.201 5  -3413664.042 3
  24394029.924    29363764.631 6  13463794.866 5
  23807063.453    -8705345.390 7  -6916051.990 5
  26186269.853    -2278675.775 5   -550452.191 2
 94  3 23 19 25  0.0060000  0  8 18 19 27 28  2 29 31 16
  22490064.033    10501584.102 8  -1234849.910 9
  22532232.360   -10072455.305 8  -7829913.546 9
  23406600.538    -8247442.354 7  -7627100.380 7
  25298199.661      826468.715 5    613363.979 4
  25403281.624    -5408362.623 5  -3451345.083 3
  24417588.155    29487536.669 6  13560240.474 4
  23810014.430    -8689821.249 7  -6903955.230 5
  26183841.774    -2291436.597 5   -560395.689 2
 94  3 23 19 25 30.0060000  0  8 18 19 27 28  2 29 31 16
  22506093.306    10585831.053 8  -1169202.974 9
  22537023.583   -10047262.798 9  -7810283.016 9
  23402782.771    -8267511.529 7  -7642738.673 7
  25312155.569      899809.787 5    670512.848 4
  25394112.082    -5456545.609 5  -3488890.217 3
  24441175.766    29611541.448 6  13656867.469 4
  23813081.607    -8673721.087 7  -6891409.643 5
  26181510.737    -2303747.615 5   -569988.659 2
 94  3 23 19 26  0.0060000  0  8 18 19 27 28  2 29 31 16
  22522213.476    10670544.385 8  -1103192.616 9
  22541858.156   -10021871.231 9  -7790497.385 9
  23398985.060    -8287468.513 7  -7658289.551 8
  25326207.052      973651.765 6    728051.995 4
  25384974.708    -5504554.794 5  -3526299.897 3
  24464825.254    29735790.764 6  13753684.986 4
  23816251.642    -8657029.784 7  -6878403.412 5
  26179239.540    -2315613.531 5   -579234.809 2
 94  3 23 19 26 30.0060000  0  8 18 19 27 28  2 29 31 16
  22538421.935    10755722.567 8  -1036820.076 9
  22546726.786    -9996274.279 9  -7770551.715 9
  23395212.891    -8307315.246 7  -7673754.542 8
  25340357.316     1048021.414 6    786002.362 4
  25375875.167    -5552367.402 5  -3563556.474 3
  24488523.188    29860308.496 6  13850711.659 4
  23819542.044    -8639751.268 7  -6864939.640 5
  26177061.547    -2327025.996 5   -588127.698 2
 94  3 23 19 27  0.0060000  0  8 18 19 27 28  2 29 31 16
  22554715.325    10841350.875 8   -970096.743 9
  22551638.226    -9970475.318 9  -7750448.633 9
  23391449.087    -8327056.479 7  -7689137.305 8
  25354610.528     1122922.541 6    844366.823 4
  25366817.088    -5599972.632 5  -3600651.382 3
  24512265.851    29985105.030 6  13947955.596 4
  23822943.669    -8621901.116 7  -6851030.409 5
  26174976.341    -2337988.513 5   -596669.889 2
 94  3 23 19 27 30.0060000  0  8 18 19 27 28  2 29 31 16
  22571097.394    10927427.484 8   -903024.093 9
  22556583.212    -9944487.498 8  -7730198.396 9
  23387716.791    -8346698.500 7  -7704442.770 8
  25368958.955     1198349.353 6    903140.954 4
  25357795.164    -5647372.760 5  -3637586.492 3
  24536065.595    30110181.120 6  14045417.378 4
  23826446.474    -8603487.799 7  -6836682.390 5
  26172982.511    -2348500.605 5   -604861.171 2
 94  3 23 19 28  0.0060000  0  8 18 19 27 28  2 29 31 16
  22587563.016    11013958.544 8   -835597.342 9
  22561558.328    -9918334.072 8  -7709819.104 9
  23383997.535    -8366238.601 7  -7719668.812 8
  25383415.607     1274293.528 6    962318.218 4
  25348815.720    -5694570.158 5  -3674363.635 3
  24559932.612    30235553.886 6  14143110.311 4
  23830049.410    -8584534.726 7  -6821913.741 5
  26171056.555    -2358558.484 5   -612698.522 2
 94  3 23 19 28 30.0060000  0  8 18 19 27 28  2 29 31 16
  22604121.452    11100965.105 8   -767800.052 9
  22566568.250    -9892019.721 8  -7689314.412 9
  23380298.486    -8385669.270 8  -7734809.556 8
  25397961.267     1350731.424 6   1021880.190 4
  25339872.221    -5741554.752 5  -3710974.948 3
  24583843.639    30361238.278 6  14241046.094 4
  23833757.213    -8565050.123 7  -6806730.933 5
  26169214.630    -2368152.097 4   -620174.063 2
 94  3 23 19 29  0.0060000  0  8 18 19 27 28  2 29 31 16
  22620765.540    11188429.357 8   -699646.161 9
  22571602.485    -9865559.534 8  -7668696.096 9
  23376621.772    -8404993.994 8  -7749867.787 8
  25412593.028     1427632.475 6   1081803.061 4
  25330969.944    -5788354.305 6  -3747442.102 3
  24607815.464    30487217.473 6  14339211.584 4
  23837569.344    -8545031.406 7  -6791131.943 5
  26167499.157    -2377293.458 5   -627297.209 2
 94  3 23 19 29 30.0060000  0  8 18 19 27 28  2 29 31 16
  22637495.608    11276348.750 8   -631137.569 9
  22576667.748    -9838945.043 8  -7647957.538 9
  23372968.710    -8424196.098 7  -7764830.447 8
  25427316.855     1504998.115 6   1142087.963 4
  25322101.034    -5834975.133 5  -3783769.934 4
  24631846.647    30613482.247 6  14437599.591 4
  23841476.389    -8524461.658 7  -6775103.551 5
  26165851.828    -2385976.237 5   -634063.009 2
 94  3 23 19 30  0.0060000  0  8 18 19 27 28  2 29 31 16
  22654307.459    11364703.962 8   -562289.409 9
  22581761.822    -9812161.667 8  -7627087.401 9
  23369341.851    -8443253.387 7  -7779680.284 8
  25442126.302     1582839.516 6   1202743.609 4
  25313259.885    -5881402.059 5  -3819946.737 4
  24655915.965    30740019.223 6  14536199.712 4
  23845501.553    -8503339.098 7  -6758644.425 5
  26164288.740    -2394190.140 5   -640463.475 2
 94  3 23 19 30 30.0060000  0  8 18 19 27 28  2 29 31 16
  22671202.863    11453477.319 8   -493115.396 9
  22586895.198    -9785195.414 8  -7606074.727 9
  23365739.455    -8462170.993 7  -7794421.243 8
  25457033.243     1661160.204 6   1263772.679 4
  25304467.422    -5927627.618 6  -3855966.624 4
  24680058.941    30866804.242 6  14634993.116 4
  23849632.813    -8481640.711 7  -6741736.574 5
  26162820.656    -2401928.430 5   -646493.334 2
 94  3 23 19 31  0.0060000  0  8 18 19 27 28  2 29 31 16
  22688172.225    11542658.103 8   -423623.928 9
  22592064.699    -9758035.159 8  -7584910.906 9
  23362168.957    -8480939.815 7  -7809046.305 8
  25472030.630     1739972.714 6   1325185.019 4
  25295704.608    -5973650.190 6  -3891828.296 4
  24704221.224    30993816.963 6  14733963.958 5
  23853869.929    -8459358.011 7  -6724373.439 5
  26161436.215    -2409193.739 5   -652154.648 2
 94  3 23 19 31 30.0060000  0  8 18 19 27 28  2 29 31 16
  22705220.343    11632248.859 8   -353812.988 9
  22597270.745    -9730671.333 8  -7563588.446 9
  23358626.729    -8499564.949 8  -7823559.379 8
  25487126.889     1819279.332 6   1386982.383 3
  25286990.241    -6019458.118 6  -3927522.713 4
  24728436.360    31121042.847 6  14833100.888 5
  23858217.640    -8436496.873 7  -6706559.548 5
  26160113.770    -2415991.800 5   -657451.854 2
 94  3 23 19 32  0.0060000  0  8 18 19 27 28  2 29 31 16
  22722347.666    11722259.995 8   -283674.497 9
  22602516.483    -9703098.775 8  -7542103.345 9
  23355104.947    -8518063.774 8  -7837974.041 8
  25502313.746     1899079.624 6   1449164.404 3
  25278310.919    -6065054.844 6  -3963052.569 4
  24752683.214    31248490.582 6  14932410.689 5
  23862677.862    -8413059.418 7  -6688296.573 5
  26158926.652    -2422321.771 5   -662384.274 2
 94  3 23 19 32 30.0060000  0  8 18 19 27 28  2 29 31 16
  22739562.079    11812707.750 8   -213195.780 9
  22607804.163    -9675313.292 8  -7520452.327 9
  23351606.519    -8536457.706 8  -7852306.970 8
  25517589.041     1979365.977 6   1511725.172 3
  25269671.770    -6110458.643 6  -3998432.108 4
  24776984.061    31376173.358 6  15031903.618 5
  23867253.384    -8389055.455 7  -6669592.188 5
  26157814.212    -2428180.910 5   -666949.894 2
 94  3 23 19 33  0.0060000  0  8 18 19 27 28  2 29 31 16
  22756857.855    11903603.003 8   -142368.370 9
  22613131.265    -9647310.535 8  -7498632.003 9
  23348128.147    -8554733.625 8  -7866547.919 8
  25532964.437     2060144.438 6   1574669.394 3
  25261066.258    -6155660.101 6  -4033653.966 4
  24801323.821    31504097.093 6  15131584.327 4
  23871922.442    -8364501.933 7  -6650459.547 5
  26156797.196    -2433561.095 5   -671142.257 2
 94  3 23 19 33 30.0060000  0  8 18 19 27 28  2 29 31 16
  22774238.743    11994940.265 8    -71196.524 9
  22618500.638    -9619104.342 8  -7476653.127 9
  23344667.883    -8572902.115 8  -7880705.178 8
  25548422.155     2141414.543 6   1637996.746 3
  25252508.532    -6200656.594 6  -4068716.118 4
  24825715.954    31632269.521 6  15231458.817 4
  23876692.140    -8339396.309 7  -6630896.703 5
  26155859.175    -2438442.112 5   -674945.614 2
 94  3 23 19 34  0.0060000  0  8 18 19 27 28  2 29 31 16
  22791705.461    12086716.769 8       317.610 9
  22623906.855    -9590715.434 8  -7454531.901 9
  23341229.833    -8590963.991 8  -7894779.350 8
  25563982.193     2223174.103 6   1701705.459 3
  25243980.276    -6245454.766 6  -4103623.697 4
  24850157.854    31760692.372 6  15331528.429 4
  23881575.190    -8313750.218 7  -6610912.732 6
  26155028.541    -2442814.407 5   -678352.658 2
 94  3 23 19 34 30.0060000  0  8 18 19 27 28  2 29 31 16
  22809248.326    12178928.705 8     72171.006 9
  22629336.486    -9562164.557 8  -7432284.465 9
  23337819.544    -8608907.940 8  -7908761.642 8
  25579629.111     2305406.623 6   1765782.742 3
  25235494.920    -6290050.261 6  -4138373.377 4
  24874639.086    31889345.902 6  15431777.803 4
  23886562.327    -8287561.014 7  -6590505.546 6
  26154284.665    -2446682.788 5   -681366.977 2
 94  3 23 19 35  0.0060000  0  8 18 19 27 28  2 29 31 16
  22826881.968    12271571.998 8    144360.534 9
  22634799.334    -9533456.534 8  -7409914.581 9
  23334430.240    -8626709.404 8  -7922632.893 8
  25595367.016     2388116.740 6   1830232.154 3
  25227054.294    -6334430.356 6  -4172955.206 4
  24899158.062    32018227.692 6  15532205.064 4
  23891653.253    -8260802.412 7  -6569654.643 6
  26153672.969    -2450047.289 6   -683988.697 2
 94  3 23 19 35 30.0060000  0  8 18 19 27 28  2 29 31 16
  22844591.069    12364639.097 8    216880.310 9
  22640292.821    -9504595.606 8  -7387425.537 9
  23331074.483    -8644370.398 8  -7936394.675 8
  25611196.478     2471292.337 6   1895044.263 3
  25218639.209    -6378618.223 6  -4207387.265 4
  24923733.668    32147343.611 6  15632814.755 4
  23896851.564    -8233473.399 7  -6548359.290 6
  26153112.657    -2452925.797 5   -686231.739 2
 94  3 23 19 36  0.0060000  0  8 18 19 27 28  2 29 31 16
  22862382.312    12458138.410 8    289736.858 9
  22645813.080    -9475571.171 8  -7364809.090 9
  23327736.504    -8661876.027 8  -7950035.423 8
  25627114.618     2554924.595 6   1960212.244 3
  25210267.355    -6422620.702 6  -4241674.834 4
  24948345.070    32276690.082 6  15733604.057 4
  23902165.145    -8205581.774 7  -6526625.555 6
  26152658.171    -2455337.911 5   -688111.278 2
 94  3 23 19 36 30.0060000  0  8 18 19 27 28  2 29 31 16
  22880259.716    12552070.804 8    362930.915 9
  22651372.941    -9446370.625 8  -7342055.405 9
  23324438.397    -8679224.771 8  -7963553.897 8
  25643109.984     2639017.556 6   2025739.219 3
  25201928.688    -6466435.039 6  -4275815.807 4
  24972998.533    32406276.869 6  15834580.670 4
  23907579.067    -8177111.196 7  -6504440.644 6
  26152290.746    -2457289.730 6   -689632.194 2
 94  3 23 19 37  0.0060000  0  8 18 19 27 28  2 29 31 16
  22898214.556    12646426.606 8    436454.866 9
  22656963.111    -9416974.831 8  -7319149.597 9
  23321167.752    -8696416.231 8  -7976949.823 8
  25659210.368     2723595.472 6   2091644.019 3
  25193635.709    -6510050.404 6  -4309801.709 4
  24997717.021    32536121.148 6  15935757.876 4
  23913108.889    -8148060.706 7  -6481803.888 6
  26152013.288    -2458768.072 5   -690784.146 2
 94  3 23 19 37 30.0060000  0  8 18 19 27 28  2 29 31 16
  22916253.728    12741221.690 8    510321.121 8
  22662597.560    -9387375.749 8  -7296085.365 9
  23317920.849    -8713468.735 8  -7990237.476 8
  25675394.964     2808655.874 5   2157924.860 3
  25185368.752    -6553463.241 5  -4343629.844 4
  25022466.417    32666212.778 6  16037127.805 4
  23918744.418    -8118430.378 7  -6458715.319 5
  26151817.733    -2459764.320 5   -691560.486 2
 94  3 23 19 38  0.0060000  0  8 18 19 27 28  2 29 31 16
  22934377.531    12836454.162 8    584528.201 8
  22668265.916    -9357593.630 8  -7272878.524 9
  23314697.331    -8730411.601 8  -8003439.701 8
  25691673.095     2894194.355 5   2224578.180 2
  25177149.762    -6596673.586 6  -4377300.183 4
  25047263.630    32796522.973 6  16138668.088 4
  23924494.167    -8088210.402 7  -6435167.266 6
  26151692.570    -2460285.402 5   -691966.562 2
 94  3 23 19 38 30.0060000  0  8 18 19 27 28  2 29 31 16
  22952578.980    12932117.226 8    659070.786 8
  22673971.266    -9327615.467 8  -7249518.915 9
  23311494.528    -8747246.979 8  -8016558.172 8
  25708035.857     2980217.669 5   2291609.288 2
  25168966.957    -6639668.748 6  -4410802.851 4
  25072104.763    32927062.861 6  16240387.350 4
  23930365.723    -8057391.634 7  -6411152.634 6
  26151713.795    -2460320.874 5   -691994.228 2
 94  3 23 19 39  0.0060000  0  8 18 19 27 28  2 29 31 16
  22970864.851    13028212.845 8    733950.453 8
  22679714.151    -9297434.801 8  -7226001.506 9
  23308310.642    -8763972.396 8  -8029590.936 8
  25724502.138     3066719.697 6   2359013.430 2
  25160826.272    -6682447.634 6  -4444136.959 4
  25096986.937    33057820.179 6  16342276.002 4
  23936338.368    -8025987.314 7  -6386681.701 6
  26151790.932    -2459872.874 5   -691645.150 2
 94  3 23 19 39 30.0060000  0  8 18 19 27 28  2 29 31 16
  22989233.525    13124734.160 8    809161.814 8
  22685490.851    -9267074.852 8  -7202344.415 9
  23305146.003    -8780594.012 8  -8042542.849 8
  25741055.298     3153681.039 6   2426775.463 2
  25152724.621    -6725024.013 6  -4477313.298 4
  25121912.762    33188778.411 6  16444321.202 4
  23942423.255    -7994014.089 7  -6361767.512 6
  26151957.616    -2458965.772 5   -690938.314 2
 94  3 23 19 40  0.0070000  0  8 18 19 27 28  2 29 31 16
  23007682.333    13221687.247 8    884709.622 8
  22691305.836    -9236516.535 8  -7178532.739 9
  23302013.712    -8797066.737 8  -8055378.734 8
  25757693.390     3241136.312 5   2494922.386 2
  25144666.260    -6767369.995 6  -4510310.115 4
  25146873.871    33319984.865 6  16546559.864 4
  23948621.464    -7961460.473 7  -6336401.023 6
  26152216.637    -2457572.803 5   -689852.914 2
 94  3 23 19 40 30.0070000  0  8 18 19 27 28  2 29 31 16
  23026211.635    13319048.507 8    960575.477 8
  22697159.104    -9205755.919 8  -7154563.442 9
  23298912.179    -8813371.123 8  -8068083.450 8
  25774426.396     3329060.690 6   2563434.846 2
  25136650.079    -6809492.500 6  -4543132.818 4
  25171891.312    33451433.352 6  16648987.105 4
  23954914.858    -7928358.375 7  -6310607.175 6
  26152577.767    -2455686.953 5   -688383.463 2
 94  3 23 19 41  0.0070000  0  8 18 19 27 28  2 29 31 16
  23044818.074    13416829.855 8   1036768.689 8
  22703048.557    -9174810.935 8  -7130450.455 9
  23295838.377    -8829505.091 8  -8080655.347 9
  25791250.419     3417456.879 6   2632314.985 2
  25128675.510    -6851400.195 6  -4575788.104 4
  25196952.223    33583106.758 6  16751589.616 3
  23961315.097    -7894697.128 7  -6284377.610 6
  26153037.619    -2453295.303 5   -686519.857 2
 94  3 23 19 41 30.0070000  0  8 18 19 27 28  2 29 31 16
  23063504.318    13515032.439 8   1113290.122 8
  22708969.158    -9143684.908 8  -7106196.423 9
  23292802.768    -8845472.829 8  -8093097.726 9
  25808157.724     3506324.869 6   2701562.714 2
  25120738.205    -6893097.467 6  -4608279.457 4
  25222045.691    33715007.469 6  16854369.217 3
  23967837.292    -7860447.805 7  -6257689.824 6
  26153596.072    -2450378.544 5   -684247.074 2
 94  3 23 19 42  0.0070000  0  8 18 19 27 28  2 29 31 16
  23082272.645    13613655.008 8   1190138.833 8
  22714930.621    -9112366.859 8  -7081792.759 9
  23289791.863    -8861288.948 8  -8105421.989 9
  25825153.978     3595639.617 5   2771158.599 2
  25112842.001    -6934594.714 6  -4640614.905 4
  25247185.477    33847128.836 6  16957320.778 3
  23974468.101    -7825604.543 7  -6230539.208 6
  26154252.048    -2446929.263 5   -681559.355 2
 94  3 23 19 42 30.0070000  0  8 18 19 27 28  2 29 31 16
  23101119.458    13712703.995 8   1267319.794 8
  22720926.860    -9080859.632 8  -7057241.679 9
  23286807.399    -8876969.997 8  -8117640.985 9
  25842227.248     3685379.515 5   2841085.737 2
  25104986.809    -6975895.648 6  -4672797.421 4
  25272373.440    33979452.154 6  17060429.680 3
  23981215.650    -7790155.518 7  -6202916.596 6
  26155010.793    -2442956.652 5   -678463.794 2
 94  3 23 19 43  0.0070000  0  8 18 19 27 28  2 29 31 16
  23120050.662    13812181.868 8   1344834.958 8
  22726953.587    -9049169.820 8  -7032548.342 9
  23283847.128    -8892535.324 8  -8129769.815 9
  25859384.611     3775553.922 5   2911351.439 2
  25097168.702    -7016983.848 6  -4704814.159 4
  25297589.553    34111980.962 6  17163698.733 3
  23988078.679    -7754079.137 7  -6174805.116 6
  26155853.539    -2438473.624 5   -674970.600 2
 94  3 23 19 43 30.0070000  0  8 18 19 27 28  2 29 31 16
  23139058.343    13912071.214 8   1422670.775 8
  22733023.335    -9017291.973 8  -7007708.459 9
  23280904.665    -8907991.747 8  -8141813.770 9
  25876624.236     3866153.166 5   2981948.192 2
  25089388.038    -7057845.581 6  -4736654.432 4
  25322850.485    34244720.300 6  17267131.800 3
  23995061.804    -7717395.042 7  -6146220.105 6
  26156814.374    -2433492.796 5   -671089.461 2
 94  3 23 19 44  0.0070000  0  8 18 19 27 28  2 29 31 16
  23158143.971    14012373.974 8   1500828.691 8
  22739126.240    -8985222.140 8  -6982718.991 9
  23277988.734    -8923311.982 8  -8153751.598 9
  25893960.124     3957188.555 5   3052884.848 2
  25081659.119    -7098456.847 6  -4768299.528 4
  25348151.470    34377675.619 6  17370733.166 3
  24002150.907    -7680127.282 7  -6117180.282 6
  26157856.333    -2428015.639 5   -666821.575 2
 94  3 23 19 44 30.0070000  0  8 18 19 27 28  2 29 31 16
  23177313.420    14113091.931 8   1579310.188 8
  22745262.093    -8952961.990 8  -6957581.208 9
  23275103.471    -8938478.119 8  -8165569.362 9
  25911368.953     4048694.232 5   3124187.916 2
  25073983.233    -7138806.105 6  -4799740.466 4
  25373489.839    34510843.697 5  17474500.334 4
  24009356.538    -7642278.084 7  -6087687.396 6
  26158989.788    -2422046.460 5   -662170.293 2
 94  3 23 19 45  0.0070000  0  8 18 19 27 28  2 29 31 16
  23196554.370    14214212.266 8   1658105.202 8
  22751436.528    -8920522.830 8  -6932303.945 9
  23272245.430    -8953494.176 8  -8177270.163 9
  25928867.359     4140678.624 5   3195864.018 2
  25066358.551    -7178901.723 6  -4830983.747 4
  25398870.538    34644205.075 6  17578418.116 4
  24016667.817    -7603870.221 7  -6057759.159 6
  26160218.338    -2415593.207 5   -657141.799 2
 94  3 23 19 45 30.0070000  0  8 18 19 27 28  2 29 31 16
  23215871.826    14315739.516 8   1737217.291 8
  22757642.652    -8887902.010 8  -6906885.133 9
  23269418.327    -8968352.958 8  -8188848.418 9
  25946464.516     4233135.503 5   3267908.324 2
  25058770.594    -7218752.393 6  -4862036.183 4
  25424278.188    34777749.476 5  17682478.509 4
  24024078.986    -7564922.242 7  -6027410.083 6
  26161535.806    -2408651.379 5   -651732.625 2
 94  3 23 19 46  0.0070000  0  8 18 19 27 28  2 29 31 16
  23235271.186    14417685.599 7   1816655.743 8
  22763889.727    -8855089.879 8  -6881317.253 9
  23266620.993    -8983049.951 8  -8200300.603 9
  25964145.166     4326065.361 5   3340321.091 2
  25051227.846    -7258381.191 6  -4892915.743 4
  25449726.311    34911475.711 6  17786680.580 4
  24031588.967    -7525433.812 7  -5996639.877 6
  26162956.462    -2401226.810 5   -645947.265 2
 94  3 23 19 46 30.0070000  0  8 18 19 27 28  2 29 31 16
  23254751.101    14520044.660 8   1896415.976 8
  22770169.779    -8822082.093 8  -6855596.932 9
  23263848.693    -8997610.924 8  -8211646.820 9
  25981914.555     4419443.346 5   3413083.116 3
  25043725.749    -7297806.175 6  -4923636.480 4
  25475213.587    35045375.133 6  17891017.624 4
  24039208.852    -7485392.068 7  -5965438.521 6
  26164443.972    -2393325.030 5   -639790.088 2
 94  3 23 19 47  0.0070000  0  8 18 19 27 28  2 29 31 16
  23274304.045    14622807.337 8   1976490.745 8
  22776490.364    -8788869.786 8  -6829717.232 9
  23261105.802    -9012041.830 8  -8222891.681 9
  25999774.091     4513239.652 5   3486171.098 3
  25036259.718    -7337039.051 6  -4954207.480 4
  25500725.385    35179457.484 5  17995497.186 4
  24046935.433    -7444795.037 7  -5933804.447 6
  26166053.648    -2384936.234 5   -633253.389 2
 94  3 23 19 47 30.0070000  0  8 18 19 27 28  2 29 31 16
  23293940.061    14725970.156 7   2056877.316 8
  22782854.028    -8755428.520 8  -6803659.109 9
  23258382.907    -9026335.667 8  -8234029.714 9
  26017697.903     4607445.502 5   3559578.187 3
  25028829.182    -7376089.531 6  -4984636.396 4
  25526276.367    35313740.943 5  18100133.487 4
  24054764.963    -7403634.949 7  -5901731.655 6
  26167739.651    -2376052.369 5   -626330.942 2
 94  3 23 19 48  0.0070000  0  8 18 19 27 28  2 29 31 16
  23313644.969    14829522.077 8   2137567.067 8
  22789262.842    -8721744.625 8  -6777411.911 9
  23255692.869    -9040477.966 8  -8245049.675 9
  26035707.245     4702060.866 6   3633304.383 3
  25021430.724    -7414953.636 6  -5014920.071 4
  25551862.754    35448233.833 5  18204932.973 4
  24062708.264    -7361886.069 7  -5869200.040 6
  26169525.844    -2366661.689 5   -619013.546 2
 94  3 23 19 48 30.0070000  0  8 18 19 27 28  2 29 31 16
  23333419.790    14933446.800 7   2218547.334 8
  22795717.163    -8687835.330 8  -6750989.092 9
  23253029.573    -9054474.772 8  -8255956.244 9
  26053782.062     4797083.864 6   3707348.250 3
  25014073.667    -7453625.017 6  -5045053.552 5
  25577506.611    35582927.454 6  18309888.854 4
  24070773.220    -7319530.707 7  -5836195.859 6
  26171392.472    -2356758.801 5   -611297.038 2
 94  3 23 19 49  0.0070000  0  8 18 19 27 28  2 29 31 16
  23353265.721    15037742.925 8   2299816.987 7
  22802209.169    -8653713.576 8  -6724400.731 9
  23250397.785    -9068310.755 8  -8266737.530 9
  26071950.085     4892543.811 6   3781732.572 3
  25006756.033    -7492089.804 6  -5075026.068 5
  25603168.995    35717820.830 5  18415000.415 4
  24078947.182    -7276569.677 7  -5802719.714 6
  26173388.041    -2346342.467 5   -603180.450 2
 94  3 23 19 49 30.0070000  0  8 18 19 27 28  2 29 31 16
  23373185.940    15142421.535 8   2381384.689 7
  22808740.747    -8619393.625 8  -6697657.900 9
  23247794.207    -9081991.247 8  -8277397.617 9
  26090196.683     4988447.294 6   3856462.525 4
  24999476.682    -7530334.832 6  -5104827.327 5
  25628878.567    35852898.373 6  18520255.445 4
  24087234.165    -7233001.986 7  -5768770.840 6
  26175465.542    -2335424.933 5   -594673.285 2
 94  3 23 19 50  0.0070000  0  8 18 19 27 28  2 29 31 16
  23393182.547    15247506.748 8   2463269.220 7
  22815306.022    -8584887.642 8  -6670770.140 9
  23245220.309    -9095503.895 8  -8287926.959 9
  26108531.600     5084802.609 5   3931544.527 4
  24992249.226    -7568332.707 6  -5134436.011 5
  25654606.635    35988155.561 5  18625650.489 4
  24095646.491    -7188811.192 7  -5734336.457 6
  26177643.025    -2323991.339 5   -585764.011 2
 94  3 23 19 50 30.0070000  0  8 18 19 27 28  2 29 31 16
  23413258.209    15352995.105 8   2545467.873 7
  22821903.225    -8550223.821 8  -6643759.365 9
  23242677.289    -9108873.274 8  -8298344.639 9
  26126948.330     5181594.332 5   4006966.601 4
  24985058.494    -7606096.704 6  -5163862.458 5
  25680384.320    36123576.792 5  18731173.313 4
  24104167.762    -7144031.893 7  -5699443.491 6
  26179926.784    -2312062.288 5   -576468.689 2
 94  3 23 19 51  0.0070000  0  8 18 19 27 28  2 29 31 16
  23433411.187    15458894.639 8   2627986.967 7
  22828530.557    -8515391.920 8  -6616617.642 9
  23240161.941    -9122100.634 8  -8308651.669 9
  26145456.827     5278818.271 6   4082725.474 4
  24977915.369    -7643623.214 6  -5193103.812 5
  25706195.461    36259169.160 6  18836829.503 4
  24112792.641    -7098686.885 7  -5664109.709 6
  26182274.938    -2299647.971 5   -566795.220 2
 94  3 23 19 51 30.0070000  0  8 18 19 27 28  2 29 31 16
  23453641.362    15565216.582 8   2710835.181 7
  22835195.633    -8480369.463 8  -6589327.412 9
  23237672.554    -9135182.513 8  -8318845.327 9
  26164031.458     5376456.349 5   4158807.036 4
  24970821.530    -7680924.033 6  -5222169.334 5
  25732024.950    36394944.756 5  18942628.471 4
  24121534.289    -7052771.015 7  -5628331.101 6
  26184726.581    -2286746.731 5   -556742.324 2
 94  3 23 19 52  0.0070000  0  8 18 19 27 28  2 29 31 16
  23473953.920    15671942.385 8   2793998.079 7
  22841896.744    -8445154.000 8  -6561886.811 9
  23235214.316    -9148104.073 8  -8328914.073 9
  26182687.063     5474513.679 5   4235215.287 4
  24963765.705    -7718001.109 6  -5251060.525 5
  25757896.919    36530911.692 5  19048576.516 4
  24130377.387    -7006286.312 7  -5592109.253 6
  26187289.777    -2273344.456 5   -546299.027 2
 94  3 23 19 52 30.0070000  0  8 18 19 27 28  2 29 31 16
  23494335.820    15779063.284 8   2877468.870 7
  22848637.158    -8409723.536 8  -6534278.655 9
  23232784.798    -9160860.545 8  -8338854.174 9
  26201434.344     5573010.935 5   4311966.387 4
  24956750.621    -7754845.993 6  -5279770.744 5
  25783817.005    36667090.537 5  19154689.692 4
  24139336.295    -6959235.957 7  -5555446.649 6
  26189930.708    -2259440.350 5   -535464.654 2
 94  3 23 19 53  0.0070000  0  8 18 19 27 28  2 29 31 16
  23514790.989    15886558.457 8   2961231.284 7
  22855421.791    -8374080.259 8  -6506504.675 9
  23230389.066    -9173449.116 8  -8348663.446 9
  26220261.251     5671937.009 5   4389051.591 4
  24949785.123    -7791473.488 6  -5308311.584 5
  25809764.012    36803467.471 5  19260957.233 4
  24148396.863    -6911613.544 7  -5518338.252 6
  26192667.214    -2245040.568 5   -524244.118 2
 94  3 23 19 53 30.0070000  0  8 18 19 27 28  2 29 31 16
  23535315.320    15994417.726 7   3045277.410 7
  22862241.350    -8338238.615 8  -6478576.143 9
  23228030.389    -9185859.592 8  -8358333.946 9
  26239165.893     5771276.171 5   4466458.663 3
  24942852.483    -7827891.620 6  -5336689.313 5
  25835756.708    36940028.878 5  19367368.484 4
  24157565.445    -6863417.016 7  -5480782.522 6
  26195507.058    -2230127.369 5   -512623.490 2
 94  3 23 19 54  0.0070000  0  8 18 19 27 28  2 29 31 16
  23555908.604    16102628.730 7   3129597.623 7
  22869097.273    -8302210.306 8  -6450502.120 9
  23225698.783    -9198093.355 8  -8367866.740 9
  26258148.812     5871026.058 5   4544185.836 3
  24935967.839    -7864071.756 6  -5364881.531 5
  25861769.340    37076768.970 5  19473919.023 4
  24166850.288    -6814650.851 7  -5442782.918 6
  26198443.105    -2214700.755 5   -500602.749 2
 94  3 23 19 54 30.0070000  0  8 18 19 27 28  2 29 31 16
  23576572.668    16211213.430 7   3214209.007 7
  22875994.089    -8265976.882 8  -6422268.302 9
  23223404.951    -9210152.028 8  -8377263.099 9
  26277205.059     5971176.303 5   4622224.921 3
  24929129.902    -7900001.346 6  -5392878.565 5
  25887825.561    37213690.308 5  19580610.769 4
  24176237.089    -6765301.793 7  -5404329.122 6
  26201474.756    -2198762.950 5   -488183.735 2
 94  3 23 19 55  0.0070000  0  8 18 19 27 28  2 29 31 16
  23597309.732    16320187.047 7   3299123.472 7
  22882926.670    -8229547.843 8  -6393882.041 9
  23221144.216    -9222038.122 8  -8386524.991 9
  26296341.322     6071703.592 5   4700557.819 3
  24922340.713    -7935683.270 6  -5420682.598 5
  25913917.308    37350775.637 5  19687430.273 4
  24185739.521    -6715364.878 7  -5365417.218 6
  26204605.129    -2182311.768 5   -475364.653 2
 94  3 23 19 55 30.0070000  0  8 18 19 27 28  2 29 31 16
  23618118.657    16429548.735 7   3384340.308 7
  22889896.005    -8192922.345 8  -6365342.695 9
  23218912.921    -9233774.010 8  -8395669.841 9
  26315536.703     6172602.203 5   4779180.077 3
  24915602.547    -7971105.280 6  -5448284.101 5
  25940032.349    37488004.701 5  19794361.778 4
  24195351.856    -6664850.664 7  -5326055.511 6
  26207841.449    -2165367.060 5   -462161.028 2
 94  3 23 19 56  0.0070000  0  8 18 19 27 28  2 29 31 16
  23639006.606    16539306.990 7   3469866.158 7
  22896904.073    -8156085.608 8  -6336638.748 9
  23216708.187    -9245361.498 8  -8404699.043 9
  26334812.968     6273891.751 5   4858106.911 3
  24908915.617    -8006251.554 6  -5475670.745 5
  25966170.444    37625379.931 5  19901407.220 3
  24205076.284    -6613738.985 7  -5286228.209 6
  26211149.539    -2147937.701 5   -448579.768 2
 94  3 23 19 56 30.0070000  0  8 18 19 27 28  2 29 31 16
  23659970.553    16649469.363 7   3555706.902 7
  22903955.312    -8119035.035 8  -6307768.192 9
  23214528.456    -9256793.046 8  -8413606.748 9
  26354163.942     6375582.893 5   4937346.702 2
  24902274.314    -8041150.378 6  -5502864.590 5
  25992333.842    37762894.458 5  20008561.189 3
  24214923.897    -6562022.936 7  -5245930.011 6
  26214558.869    -2130020.493 5   -434618.329 2
 94  3 23 19 57  0.0070000  0  8 18 19 27 28  2 29 31 16
  23681006.990    16760017.716 7   3641848.425 7
  22911043.185    -8081784.653 8  -6278741.912 9
  23212384.910    -9268064.270 8  -8422389.516 9
  26373601.705     6477695.423 5   5016914.847 2
  24895673.304    -8075827.645 6  -5529885.761 5
  26018528.567    37900536.398 5  20115814.434 3
  24224870.621    -6509714.936 7  -5205170.539 6
  26218058.556    -2111624.533 5   -420283.809 2
 94  3 23 19 57 30.0070000  0  8 18 19 27 28  2 29 31 16
  23702114.717    16870942.543 7   3728283.314 7
  22918171.950    -8044326.419 8  -6249553.679 9
  23210273.682    -9279161.129 8  -8431036.417 9
  26393104.014     6580238.906 5   5096818.790 2
  24889117.353    -8110284.229 6  -5556734.996 5
  26044752.433    38038319.263 5  20223177.498 3
  24234940.620    -6456813.196 7  -5163948.389 6
  26221650.909    -2092743.885 5   -405571.671 2
 94  3 23 19 58  0.0070000  0  8 18 19 27 28  2 29 31 16
  23723297.333    16982251.077 7   3815017.163 7
  22925340.647    -8006657.385 8  -6220201.205 9
  23208198.459    -9290060.474 8  -8439529.396 9
  26412698.329     6683231.025 4   5177072.346 2
  24882600.164    -8144522.666 7  -5583414.234 5
  26071005.229    38176273.759 5  20330674.273 3
  24245121.422    -6403315.157 7  -5122261.615 6
  26225346.810    -2073342.532 5   -390453.774 2
 94  3 23 19 58 30.0070000  0  8 18 19 27 28  2 29 31 16
  23744547.732    17093928.386 7   3902038.390 7
  22932550.026    -7968769.772 8  -6190678.398 9
  23206163.527    -9300762.484 8  -8447868.620 9
  26432382.193     6786667.769 4   5257672.349 2
  24876125.667    -8178550.185 6  -5609929.123 5
  26097286.984    38314403.705 5  20438307.758 3
  24255418.303    -6349238.673 7  -5080124.121 6
  26229136.397    -2053412.996 5   -374924.296 2
 94  3 23 19 59  0.0070000  0  8 18 19 27 28  2 29 31 16
  23765863.785    17205953.011 7   3989330.267 7
  22939801.076    -7930672.577 8  -6160992.282 9
  23204157.256    -9311298.521 8  -8456078.520 9
  26452149.158     6890512.493 5   5338590.234 2
  24869690.172    -8212362.213 7  -5636276.071 5
  26123597.190    38452690.012 5  20546063.119 3
  24265804.553    -6294605.628 7  -5037552.911 6
  26233023.776    -2032965.641 5   -358991.283 2
 94  3 23 19 59 30.0070000  0  8 18 19 27 28  2 29 31 16
  23787247.801    17318326.234 7   4076893.753 7
  22947091.939    -7892354.440 8  -6131134.007 9
  23202182.943    -9321679.697 8  -8464167.739 9
  26471988.644     6994738.505 5   5419805.241 2
  24863302.704    -8245936.453 7  -5662437.769 6
  26149951.555    38591138.613 5  20653944.892 3
  24276312.189    -6239408.298 7  -4994542.014 6
  26237008.257    -2011980.939 5   -342639.626 2
 94  3 23 20  0  0.0070000  0  8 18 19 27 28  2 29 31 16
  23808694.923    17431023.842 7   4164710.016 7
  22954423.903    -7853828.482 8  -6101113.792 9
  23200232.104    -9331921.066 8  -8472148.029 9
  26491885.959     7099322.888 5   5501299.520 2
  24856958.466    -8279284.414 7  -5688423.132 6
  26176311.886    38729726.192 4  20761934.985 3
  24286924.242    -6183652.477 7  -4951095.938 6
  26241115.294    -1990473.342 5   -325880.491 2
 94  3 23 20  0 30.0070000  0  8 18 19 27 28  2 29 31 16
  23830195.829    17544008.492 7   4252749.944 7
  22961789.684    -7815122.835 8  -6070953.547 9
  23198303.629    -9342058.110 8  -8480047.012 9
  26511840.625     7204208.568 5   5583028.584 2
  24850646.366    -8312438.204 6  -5714257.192 6
  26202701.987    38868398.395 5  20869990.996 3
  24297633.219    -6127368.565 7  -4907238.354 6
  26245298.808    -1968498.201 5   -308757.048 3
 94  3 23 20  1  0.0070000  0  8 18 19 27 28  2 29 31 16
  23851760.590    17657345.502 7   4341064.447 7
  22969194.258    -7776196.223 8  -6040621.146 9
  23196405.253    -9352042.770 8  -8487827.275 9
  26531853.900     7309438.213 4   5665025.625 2
  24844384.600    -8345344.933 7  -5739898.739 6
  26229125.964    39007200.486 5  20978148.227 3
  24308456.985    -6070505.160 7  -4862929.229 6
  26249576.247    -1946014.335 5   -291237.188 3
 94  3 23 20  1 30.0070000  0  8 18 19 27 28  2 29 31 16
  23873400.779    17771050.398 7   4429665.600 7
  22976646.049    -7737042.237 8  -6010111.547 9
  23194541.323    -9361834.936 8  -8495457.542 9
  26551972.792     7415038.281 5   5747311.324 2
  24838172.061    -8377991.442 7  -5765337.522 6
  26255568.618    39146159.137 5  21086427.444 2
  24319383.881    -6013048.084 7  -4818157.485 6
  26253949.229    -1923016.611 5   -273316.907 3
 94  3 23 20  2  0.0070000  0  8 18 19 27 28  2 29 31 16
  23895104.763    17885117.059 7   4518548.648 7
  22984139.451    -7697673.828 8  -5979434.876 9
  23192716.696    -9371425.426 8  -8502930.636 9
  26572133.055     7521017.230 5   5829892.200 2
  24832006.350    -8410391.013 7  -5790583.869 6
  26282041.461    39285264.334 5  21194820.905 2
  24330428.955    -5955015.059 7  -4772936.997 6
  26258424.321    -1899524.504 5   -255011.403 3
 94  3 23 20  2 30.0070000  0  8 18 19 27 28  2 29 31 16
  23916883.396    17999565.569 7   4607729.247 7
  22991667.780    -7658090.848 8  -5948591.003 9
  23190929.424    -9380820.474 8  -8510251.452 9
  26592371.504     7627396.219 5   5912784.900 2
  24825885.937    -8442541.452 7  -5815636.094 6
  26308528.994    39424519.267 5  21303331.019 2
  24341585.131    -5896418.169 7  -4727277.086 6
  26262978.528    -1875538.086 5   -236320.721 3
 94  3 23 20  3  0.0080000  0  8 18 19 27 28  2 29 31 16
  23938734.939    18114400.889 7   4697211.266 7
  22999240.687    -7618297.465 8  -5917583.182 9
  23189178.995    -9390015.961 8  -8517416.761 9
  26612692.037     7734182.201 5   5995994.690 2
  24819818.107    -8474451.699 7  -5840501.179 6
  26335069.021    39563932.126 5  21411964.170 2
  24352841.439    -5837248.634 7  -4681170.976 6
  26267646.836    -1851049.710 5   -217238.882 3
 94  3 23 20  3 30.0080000  0  8 18 19 27 28  2 29 31 16
  23960658.012    18229594.576 7   4786972.525 7
  23006853.347    -7578300.079 8  -5886416.397 9
  23187469.189    -9399006.446 8  -8524422.314 9
  26633095.012     7841363.221 5   6079512.350 2
  24813783.435    -8506131.437 7  -5865186.626 6
  26361628.444    39703486.382 5  21520707.477 2
  24364210.138    -5777507.468 7  -4634619.436 6
  26272394.620    -1826058.327 5   -197765.119 3
 94  3 23 20  4  0.0080000  0  8 18 19 27 28  2 29 31 16
  23982647.998    18345154.003 7   4877018.754 7
  23014506.988    -7538083.314 8  -5855078.662 9
  23185795.508    -9407794.262 8  -8531269.970 9
  26653561.244     7948951.147 5   6163346.973 2
  24807802.336    -8537579.917 7  -5889691.883 6
  26388213.050    39843177.657 5  21629557.582 2
  24375687.902    -5717176.031 7  -4587607.965 6
  26277241.244    -1800553.092 5   -177890.963 3
 94  3 23 20  4 30.0080000  0  8 18 19 27 28  2 29 31 16
  24004707.956    18461081.781 7   4967352.032 7
  23022201.791    -7497644.657 8  -5823568.027 9
  23184157.412    -9416387.947 8  -8537966.333 9
  26674106.260     8056930.434 5   6247486.658 2
  24801863.117    -8568794.892 7  -5914015.188 6
  26414815.764    39982998.851 5  21738508.885 2
  24387286.423    -5656247.355 7  -4540131.079 6
  26282201.640    -1774534.063 5   -157616.409 3
 94  3 23 20  5  0.0080000  0  8 18 19 27 28  2 29 31 16
  24026833.479    18577353.074 7   5057952.996 6
  23029940.034    -7456988.015 8  -5791887.511 9
  23182561.886    -9424788.219 8  -8544511.975 9
  26694732.131     8165276.833 5   6331912.327 2
  24795968.748    -8599769.384 6  -5938151.075 6
  26441444.169    40122939.549 5  21847553.332 3
  24398992.389    -5594721.275 7  -4492188.692 6
  26287250.565    -1748008.866 5   -136947.455 3
 94  3 23 20  5 30.0080000  0  8 18 19 27 28  2 29 31 16
  24049023.218    18693970.362 7   5148823.555 6
  23037719.918    -7416102.113 8  -5760028.388 9
  23180997.839    -9433001.033 8  -8550911.564 9
  26715420.899     8274008.822 5   6416638.492 2
  24790123.934    -8630473.156 6  -5962076.038 6
  26468098.507    40263005.041 5  21956695.035 3
  24410808.859    -5532604.528 7  -4443786.058 6
  26292391.016    -1720968.514 5   -115877.109 3
 94  3 23 20  6  0.0080000  0  8 18 19 27 28  2 29 31 16
  24071282.508    18810926.447 7   5239958.104 6
  23045544.232    -7374985.672 8  -5727989.618 9
  23179468.328    -9441040.205 8  -8557175.860 9
  26736182.426     8383118.544 5   6501659.043 2
  24784335.721    -8660902.636 7  -5985787.252 6
  26494768.613    40403188.143 5  22065928.291 3
  24422739.010    -5469922.456 7  -4394942.907 6
  26297630.070    -1693420.248 5    -94410.932 3
 94  3 23 20  6 30.0080000  0  8 18 19 27 28  2 29 31 16
  24093605.744    18928226.367 7   5331360.572 6
  23053414.114    -7333629.726 8  -5695764.215 9
  23177973.473    -9448900.672 8  -8563300.897 9
  26757020.610     8492613.545 5   6586979.715 2
  24778598.054    -8691041.966 7  -6009272.391 6
  26521478.293    40543508.097 5  22175268.275 3
  24434779.964    -5406683.819 7  -4345666.083 6
  26302973.031    -1665352.910 5    -72540.325 3
 94  3 23 20  7  0.0080000  0  8 18 19 27 28  2 29 31 16
  24115981.234    19045848.813 7   5423014.371 6
  23061325.427    -7292050.812 8  -5663365.066 9
  23176508.687    -9456594.537 8  -8569296.091 9
  26777925.168     8602478.213 5   6672588.497 2
  24772916.896    -8720911.952 7  -6032547.666 6
  26548197.745    40683951.338 5  22284704.251 3
  24446909.986    -5342902.948 7  -4295966.721 6
  26308418.521    -1636776.201 5    -50272.816 3
 94  3 23 20  7 30.0080000  0  8 18 19 27 28  2 29 31 16
  24138431.911    19163814.595 7   5514935.701 6
  23069281.499    -7250243.223 8  -5630787.734 9
  23175081.645    -9464103.282 8  -8575147.066 9
  26798908.841     8712709.484 5   6758482.936 2
  24767281.788    -8750524.765 7  -6055622.541 6
  26574950.535    40824526.049 5  22394242.718 3
  24459152.611    -5278576.394 7  -4245842.155 6
  26313949.782    -1607675.198 5    -27596.750 3
 94  3 23 20  8  0.0080000  0  8 18 19 27 28  2 29 31 16
  24160951.901    19282142.964 7   5607139.569 6
  23077282.420    -7208204.812 8  -5598030.547 9
  23173689.529    -9471408.300 8  -8580839.295 9
  26819953.073     8823294.989 5   6844653.430 2
  24761693.926    -8779889.584 7  -6078504.159 6
  26601723.110    40965246.594 5  22503894.799 3
  24471501.692    -5213683.627 7  -4195276.396 6
  26319581.893    -1578055.277 5     -4516.331 3
 94  3 23 20  8 30.0080000  0  8 18 19 27 28  2 29 31 16
  24183540.154    19400844.999 7   5699634.596 6
  23085320.455    -7165947.655 8  -5565102.885 9
  23172337.585    -9478516.567 8  -8586378.195 9
  26841059.481     8934220.816 5   6931089.102 2
  24756148.485    -8809017.592 7  -6101201.244 6
  26628535.678    41106098.670 5  22613649.330 3
  24483962.505    -5148198.535 7  -4144249.069 6
  26325325.586    -1547921.864 5     18964.240 3
 94  3 23 20  9  0.0080000  0  8 18 19 27 28  2 29 31 16
  24206200.746    19519923.903 7   5792423.300 6
  23093406.607    -7123458.074 8  -5531994.133 9
  23171026.052    -9485402.788 8  -8591744.073 9
  26862231.034     9045482.314 5   7017786.305 2
  24750652.930    -8837907.727 7  -6123712.997 6
  26655359.639    41247073.681 4  22723499.735 3
  24496540.478    -5082104.077 7  -4092746.913 6
  26331166.353    -1517271.418 5     42847.663 3
 94  3 23 20  9 30.0080000  0  8 18 19 27 28  2 29 31 16
  24228928.762    19639358.057 7   5885488.808 6
  23101537.548    -7080743.823 8  -5498710.305 9
  23169756.641    -9492071.316 8  -8596940.331 9
  26883457.150     9157076.571 4   7104742.844 2
  24745200.274    -8866556.613 7  -6146036.742 6
  26682207.642    41388161.650 4  22833438.127 3
  24509229.014    -5015418.346 7  -4040784.030 6
  26337086.175    -1486132.833 5     67111.438 3
 94  3 23 20 10  0.0080000  0  8 18 19 27 28  2 29 31 16
  24251718.355    19759118.735 7   5978808.752 6
  23109706.413    -7037806.465 8  -5465252.635 9
  23168528.032    -9498542.690 8  -8601982.964 9
  26904761.181     9269009.466 4   7191963.163 2
  24739792.288    -8894967.595 7  -6168175.133 6
  26709082.657    41529348.416 5  22943453.456 3
  24522033.839    -4948144.186 7  -3988362.636 6
  26343100.881    -1454517.130 5     91747.028 3
 94  3 23 20 10 30.0080000  0  8 18 19 27 28  2 29 31 16
  24274562.510    19879185.600 7   6072367.283 6
  23117922.166    -6994634.639 8  -5431612.253 9
  23167336.567    -9504800.784 8  -8606859.385 9
  26926127.030     9381290.090 4   7279454.516 2
  24734436.586    -8923125.908 7  -6190116.613 6
  26735947.449    41670623.682 4  23053537.802 3
  24534945.631    -4880292.793 7  -3935491.446 6
  26349209.092    -1422402.394 5    116771.424 3
 94  3 23 20 11  0.0080000  0  8 18 19 27 28  2 29 31 16
  24297468.932    19999533.771 7   6166144.996 6
  23126180.039    -6951241.327 8  -5397799.297 9
  23166185.723    -9510839.054 8  -8611564.541 9
  26947557.604     9493907.400 4   7367208.171 2
  24729127.261    -8951031.485 7  -6211861.186 6
  26762853.462    41811988.039 4  23163691.504 3
  24547953.535    -4811889.393 7  -3882190.120 6
  26355423.700    -1389801.961 5    142174.389 3
 94  3 23 20 11 30.0080000  0  8 18 19 27 28  2 29 31 16
  24320421.193    20120167.332 7   6260145.099 6
  23134476.765    -6907637.878 8  -5363822.595 9
  23165072.504    -9516691.101 8  -8616124.565 9
  26969057.580     9606858.190 5   7455221.697 3
  24723861.467    -8978696.531 7  -6233418.305 6
  26789790.144    41953443.420 4  23273916.180 3
  24561082.137    -4742936.113 7  -3828460.289 6
  26361715.354    -1356714.804 6    167956.508 3
 94  3 23 20 12  0.0080000  0  8 18 19 27 28  2 29 31 16
  24343436.500    20241102.793 7   6354380.447 6
  23142813.514    -6863819.849 8  -5329678.677 9
  23163995.769    -9522356.181 8  -8620538.904 9
  26990618.294     9720138.422 5   7543491.956 3
  24718640.701    -9006131.305 7  -6254795.996 6
  26816715.524    42094983.359 4  23384206.756 3
  24574305.472    -4673439.764 7  -3774307.312 6
  26368102.942    -1323119.184 5    194134.837 3
 94  3 23 20 12 30.0080000  0  8 18 19 27 28  2 29 31 16
  24366509.247    20362346.266 7   6448855.810 6
  23151194.601    -6819786.488 8  -5295366.982 9
  23162953.781    -9527818.996 8  -8624795.636 9
  27012228.803     9833747.703 5   7632018.541 3
  24713459.358    -9033335.562 7  -6275994.082 6
  26843663.868    42236607.411 4  23494562.847 3
  24587632.356    -4603406.188 7  -3719735.696 6
  26374599.715    -1289030.985 6    220697.060 3
 94  3 23 20 13  0.0080000  0  8 18 19 27 28  2 29 31 16
  24389642.912    20483921.049 7   6543589.316 6
  23159618.290    -6775521.502 8  -5260874.788 9
  23161953.853    -9533072.977 8  -8628889.646 9
  27033917.858     9947710.259 4   7720820.514 3
  24708326.881    -9060312.850 7  -6297015.268 6
  26870636.855    42378331.483 4  23604996.843 3
  24601062.369    -4532819.835 7  -3664733.354 6
  26381168.167    -1254456.308 5    247638.333 3
 94  3 23 20 13 30.0080000  0  8 18 19 27 28  2 29 31 16
  24412839.653    20605837.544 7   6638589.109 6
  23168088.416    -6731007.599 8  -5226188.631 9
  23160994.367    -9538110.653 8  -8632815.089 9
  27055665.732    10062039.718 4   7809908.288 3
  24703241.562    -9087055.374 7  -6317853.553 6
  26897622.523    42520151.752 4  23715505.778 2
  24614602.016    -4461685.925 7  -3609304.331 6
  26387842.807    -1219381.790 5    274969.080 3
 94  3 23 20 14  0.0080000  0  8 18 19 27 28  2 29 31 16
  24436110.173    20728088.519 7   6733849.534 6
  23176605.520    -6686255.095 8  -5191316.553 9
  23160083.958    -9542906.604 8  -8636552.183 9
  27077499.347    10176723.497 4   7899272.185 3
  24698199.053    -9113541.268 7  -6338491.867 6
  26924630.856    42662064.935 4  23826087.159 2
  24628237.236    -4390016.713 7  -3553458.206 6
  26394620.904    -1183821.941 6    302678.009 3
 94  3 23 20 14 30.0080000  0  7 18 19 27  2 29 31 16
  24459437.024    20850676.881 7   6829372.853 6
  23185165.254    -6641261.044 8  -5156256.268 9
  23159219.446    -9547446.960 8  -8640090.118 9
  24693210.446    -9139751.474 7  -6358915.345 6
  26951650.790    42804092.017 5  23936757.271 2
  24641983.530    -4317793.887 7  -3497180.689 6
  26401478.267    -1147770.106 5    330770.318 3
 94  3 23 20 15  0.0080000  0  7 18 19 27  2 29 31 16
  24482824.973    20973598.132 7   6925155.562 6
  23193770.407    -6596043.443 8  -5121021.780 9
  23158400.803    -9551749.511 8  -8643442.745 9
  24688280.899    -9165679.228 7  -6379118.728 6
  26978703.852    42946228.325 5  24047512.488 2
  24655828.785    -4245020.710 7  -3440474.327 6
  26408424.278    -1111207.622 5    359260.537 3
 94  3 23 20 15 30.0080000  0  7 18 19 27  2 29 31 16
  24506278.367    21096849.657 7   7021195.641 6
  23202414.832    -6550610.094 8  -5085619.179 9
  23157622.482    -9555832.252 8  -8646624.100 9
  24683402.376    -9191310.072 7  -6399090.756 6
  27005776.250    43088473.241 5  24158352.293 2
  24669785.533    -4171696.550 7  -3383338.626 6
  26415501.239    -1074124.004 6    388156.794 3
 94  3 23 20 16  0.0080000  0  7 18 19 27  2 29 31 16
  24529793.128    21220411.367 7   7117477.416 6
  23211102.518    -6504967.980 8  -5050053.910 9
  23156883.103    -9559718.962 8  -8649652.700 9
  24678577.157    -9216669.358 7  -6418851.194 6
  27032858.751    43230829.454 5  24269278.877 2
  24683845.919    -4097813.925 7  -3325767.770 6
  26422641.366    -1036534.235 5    417447.473 2
 94  3 23 20 16 30.0080000  0  8 18 19 27 28  2 29 31 16
  24553364.849    21344272.727 7   7213992.680 6
  23219832.534    -6459092.534 8  -5014306.825 9
  23156178.831    -9563428.400 8  -8652543.162 9
  27187546.263       98976.50313    105358.260
  24673795.227    -9241784.977 7  -6438421.765 6
  27059968.504    43373291.861 5  24380288.247 2
  24698012.282    -4023355.660 7  -3267748.357 6
  26429898.232     -998427.585 5    447140.930 3
 94  3 23 20 17  0.0080000  0  8 18 19 27 28  2 29 31 16
  24576987.925    21468425.318 7   7310734.899 6
  23228606.440    -6412976.994 8  -4978372.629 9
  23155504.148    -9566971.871 8  -8655304.297 9
  27209747.064      215593.180 4    196228.410 1
  24669059.495    -9266673.820 7  -6457815.605 6
  27087093.395    43515838.296 5  24491363.057 2
  24712291.786    -3948324.495 7  -3209282.498 6
  26437237.541     -959811.635 5    477231.247 3
 94  3 23 20 17 30.0080000  0  8 18 19 27 28  2 29 31 16
  24600666.943    21592862.391 7   7407698.773 6
  23237431.491    -6366611.272 8  -4942243.503 9
  23154864.031    -9570345.060 8  -8657932.756 9
  27231998.110      332533.028 5    287350.216 1
  24664363.846    -9291348.159 7  -6477042.315 6
  27114232.857    43658460.627 5  24602496.943 1
  24726674.659    -3872730.449 7  -3150378.057 6
  26444669.306     -920707.330 5    507702.052 2
 94  3 23 20 18  0.0080000  0  8 18 19 27 28  2 29 31 16
  24624398.993    21717564.786 7   7504869.401 6
  23246301.960    -6319988.871 8  -4905914.367 9
  23154259.320    -9573518.374 8  -8660405.456 9
  27254316.309      449792.157 5    378720.399 1
  24659707.050    -9315807.693 7  -6496101.658 6
  27141388.568    43801141.233 5  24713676.360 1
  24741166.597    -3796582.158 7  -3091041.746 6
  26452206.958     -881120.951 5    538548.581 3
 94  3 23 20 18 30.0080000  0  7 18 19 27  2 29 31 16
  24648180.839    21842544.832 7   7602256.367 6
  23255225.432    -6273100.547 8  -4869378.018 9
  23153699.068    -9576464.412 8  -8662701.065 9
  24655100.319    -9340029.915 7  -6514976.078 6
  27168553.572    43943869.340 5  24824892.717 1
  24755759.864    -3719891.745 7  -3031282.994 6
  26459823.305     -841044.157 5    569777.201 3
 94  3 23 20 19  0.0080000  0  8 18 19 27  7  2 29 31 16
  24672019.077    21967801.236 7   7699858.698 6
  23264193.604    -6225966.366 8  -4832650.102 9
  23153182.525    -9579173.503 8  -8664812.036 9
  27357195.158     -749579.42413  -1088399.701 2
  24650538.767    -9363998.607 7  -6533652.920 6
  27195713.000    44086629.512 5  24936133.984 1
  24770453.772    -3642681.431 6  -2971119.125 6
  26467569.943     -800492.782 5    601375.610 3
 94  3 23 20 19 30.0080000  0  7 18 19 27  7  2 31 16
  24695907.679    22093336.889 7   7797678.598 6
  23273212.140    -6178590.692 8  -4795734.026 9
  23152712.780    -9581634.758 8  -8666729.913 9
  27342750.947     -825542.123 4  -1147591.312 2
  24646030.248    -9387700.896 7  -6552122.210 6
  24785242.953    -3564944.284 6  -2910544.771 6
  26475359.120     -759467.766 5    633343.105 3
 94  3 23 20 20  0.0080000  0  7 18 19 27  7  2 31 16
  24719850.034    22219160.885 7   7895723.199 6
  23282273.907    -6130966.083 8  -4758623.953 9
  23152294.330    -9583840.425 8  -8668448.600 9
  27328278.107     -901546.787 4  -1206815.535 2
  24641571.405    -9411130.844 7  -6570379.261 6
  24800141.949    -3486659.773 7  -2849543.861 5
  26483265.966     -717959.544 5    665687.142 3
 94  3 23 20 20 30.0080000  0  7 18 19 27  7  2 31 16
  24743850.159    22345284.261 7   7994001.061 6
  23291374.827    -6083118.311 8  -4721340.006 9
  23151916.532    -9585819.438 8  -8669990.700 9
  27313801.489     -977587.622 4  -1266067.920 2
  24637161.758    -9434310.351 7  -6588441.173 7
  24815145.662    -3407832.640 7  -2788120.142 5
  26491250.039     -675995.920 5    698385.999 3
 94  3 23 20 21  0.0080000  0  7 18 19 27  7  2 31 16
  24767901.219    22471706.740 7   8092512.010 6
  23300522.424    -6035061.535 8  -4683893.167 9
  23151580.554    -9587586.215 8  -8671367.406 9
  27299324.661    -1053670.427 4  -1325353.066 2
  24632794.921    -9457241.163 7  -6606309.274 7
  24830247.977    -3328453.753 7  -2726266.464 6
  26499321.621     -633579.779 5    731437.468 2
 94  3 23 20 21 30.0080000  0  7 18 19 27  7  2 31 16
  24792023.839    22598433.497 7   8191260.038 5
  23309707.166    -5986792.343 8  -4646280.834 9
  23151286.218    -9589140.957 8  -8672578.894 9
  27284833.023    -1129791.492 4  -1384667.965 2
  24628480.818    -9479922.073 7  -6623982.671 7
  24845456.299    -3248529.578 7  -2663987.918 6
  26507476.546     -590700.077 5    764850.190 2
 94  3 23 20 22  0.0080000  0  7 18 19 27  7  2 31 16
  24816193.617    22725460.773 7   8290242.253 5
  23318933.218    -5938309.325 8  -4608501.855 9
  23151030.315    -9590486.078 8  -8673627.044 9
  27270350.619    -1205954.962 4  -1444015.883 2
  24624210.334    -9502356.566 7  -6641464.049 7
  24860763.941    -3168091.004 7  -2601308.522 6
  26515731.061     -547360.957 5    798620.880 2
 94  3 23 20 22 30.0080000  0  7 18 19 27  7  2 31 16
  24840419.785    22852765.087 7   8389440.312 5
  23328196.026    -5889631.504 8  -4570571.117 9
  23150808.859    -9591635.897 8  -8674522.992 9
  27255848.099    -1282164.081 4  -1503399.423 2
  24619989.856    -9524554.440 7  -6658761.056 7
  24876165.779    -3087172.424 7  -2538255.126 6
  26524062.803     -503566.758 5    832746.171 2
 94  3 23 20 23  0.0080000  0  7 18 19 27  7  2 31 16
  24864695.509    22980329.944 7   8488841.396 5
  23337499.186    -5840744.761 8  -4532477.552 9
  23150629.972    -9592583.738 8  -8675261.568 9
  27241335.416    -1358421.275 4  -1562820.335 2
  24615809.730    -9546507.132 7  -6675866.986 7
  24891654.586    -3005782.140 7  -2474834.134 6
  26532494.047     -459277.204 5    867257.496 2
 94  3 23 20 23 30.0080000  0  7 18 19 27  7  2 31 16
  24889018.301    23108154.850 7   8588445.113 5
  23346846.594    -5791631.479 8  -4494207.490 9
  23150492.847    -9593313.796 8  -8675830.459 9
  27226831.517    -1434697.894 4  -1622256.392 2
  24611678.470    -9568216.912 7  -6692783.677 7
  24907229.044    -2923920.345 6  -2411045.780 5
  26541024.251     -414480.799 5    902163.658 2
 94  3 23 20 24  0.0080000  0  7 18 19 27  7  2 31 16
  24913381.475    23236214.929 6   8688232.088 5
  23356231.837    -5742303.009 8  -4455769.736 9
  23150391.158    -9593838.001 8  -8676238.924 9
  27212300.097    -1511013.608 4  -1681722.871 2
  24607586.482    -9589709.523 7  -6709531.114 7
  24922899.736    -2841580.049 6  -2346884.536 5
  26549629.824     -369197.510 5    937449.326 2
 94  3 23 20 24 30.0080000  0  7 18 19 27  7  2 31 16
  24937804.787    23364513.098 7   8788204.590 5
  23365662.019    -5692748.698 8  -4417155.991 9
  23150335.966    -9594148.535 8  -8676480.891 9
  27197775.212    -1587363.962 4  -1741216.366 2
  24603538.715    -9610979.679 7  -6726105.216 7
  24938666.211    -2758725.004 7  -2282322.177 5
  26558338.075     -323419.229 5    973120.628 2
 94  3 23 20 25  0.0080000  0  7 18 19 27  7  2 31 16
  24962268.571    23493066.691 7   8888376.111 5
  23375138.129    -5642953.281 8  -4378354.387 9
  23150314.021    -9594236.489 8  -8676549.410 9
  27183232.909    -1663736.399 4  -1800727.043 2
  24599535.976    -9632018.369 7  -6742498.952 7
  24954527.780    -2675329.773 6  -2217338.906 5
  26567147.267     -277159.330 5   1009167.225 2
 94  3 23 20 25 30.0080000  0  7 18 19 27  7  2 31 16
  24986778.193    23621868.479 7   8988741.039 5
  23384660.616    -5592916.109 8  -4339364.386 9
  23150344.480    -9594099.713 8  -8676442.832 9
  27168698.102    -1740129.591 4  -1860253.867 2
  24595580.424    -9652826.579 7  -6758713.098 7
  24970507.617    -2591389.522 6  -2151930.953 5
  26576029.068     -230471.179 5   1045547.567 2
 94  3 23 20 26  0.0080000  0  7 18 19 27  7  2 31 16
  25011334.523    23750927.297 6   9089306.257 5
  23394228.043    -5542621.550 8  -4300173.835 9
  23150408.276    -9593730.163 8  -8676154.863 9
  27154153.611    -1816545.568 4  -1919798.461 2
  24591666.214    -9673382.338 7  -6774730.536 7
  24986583.178    -2506892.891 6  -2086089.450 5
  26584995.321     -183353.242 5   1082262.747 2
 94  3 23 20 26 30.0080000  0  7 18 19 27  7  2 31 16
  25035941.758    23880242.036 6   9190070.899 5
  23403848.473    -5492072.260 8  -4260784.793 9
  23150523.216    -9593132.023 8  -8675688.785 9
  27139614.246    -1892973.667 4  -1979352.488 2
  24587805.636    -9693678.651 7  -6790545.803 7
  25002769.963    -2421861.658 6  -2019831.352 5
  26594041.168     -135805.258 5   1119313.116 2
 94  3 23 20 27  0.0080000  0  7 18 19 27  7  2 31 16
  25060597.559    24009820.181 6   9291040.764 5
  23413516.870    -5441265.613 8  -4221195.218 9
  23150687.173    -9592296.568 8  -8675037.771 9
  27125072.423    -1969402.033 4  -2038906.665 2
  24583993.386    -9713704.259 7  -6806150.134 7
  25019048.393    -2336306.584 6  -1953165.101 5
  26603180.641      -87820.686 5   1156703.587 2
 94  3 23 20 27 30.0090000  0  7 18 19 27  7  2 31 16
  25085302.586    24139643.250 6   9392201.517 5
  23423232.633    -5390209.018 8  -4181410.872 9
  23150889.413    -9591227.248 8  -8674204.523 9
  27110525.863    -2045852.971 4  -2098478.438 2
  24580232.459    -9733469.845 7  -6821551.862 7
  25035426.745    -2250248.278 6  -1886106.704 5
  26612394.013      -39398.132 5   1194435.376 2
 94  3 23 20 28  0.0090000  0  7 18 19 27  7  2 31 16
  25110055.670    24269709.144 6   9493551.450 5
  23432995.045    -5338912.217 8  -4141439.360 9
  23151136.652    -9589929.815 8  -8673193.549 9
  27095968.571    -2122317.555 4  -2158060.887 2
  24576520.489    -9752974.922 7  -6836750.586 7
  25051897.342    -2163694.301 6  -1818662.078 5
  26621695.044        9486.590 5   1232527.290 2
 94  3 23 20 28 30.0090000  0  7 18 19 27  7  2 31 16
  25134852.014    24400029.033 6   9595099.312 5
  23442802.486    -5287383.020 8  -4101286.769 9
  23151427.150    -9588403.518 8  -8672004.228 9
  27081407.682    -2198787.141 4  -2217647.196 2
  24572855.406    -9772227.132 7  -6851752.273 7
  25068462.884    -2076637.610 6  -1750825.731 5
  26631093.178       58841.121 5   1270985.275 2
 94  3 23 20 29  0.0090000  0  7 18 19 27  7  2 31 16
  25159701.931    24530586.870 6   9696832.585 5
  23452648.719    -5235625.551 8  -4060956.289 9
  23151762.468    -9586637.820 8  -8670628.354 9
  27066860.073    -2275260.774 4  -2277236.722 3
  24569238.200    -9791235.852 7  -6866564.224 7
  25085123.700    -1989084.715 6  -1682602.726 5
  26640564.791      108660.533 5   1309805.549 2
 94  3 23 20 29 30.0090000  0  7 18 19 27  7  2 31 16
  25184589.292    24661373.097 6   9798743.817 5
  23462545.977    -5183630.139 8  -4020440.414 9
  23152140.567    -9584627.645 8  -8669061.978 9
  27052313.843    -2351729.635 4  -2336822.524 3
  24565668.332    -9809997.353 7  -6881183.549 7
  25101879.400    -1901027.508 6  -1613986.766 5
  26650137.853      158958.491 5   1348998.691 2
 94  3 23 20 30  0.0090000  0  7 18 19 27  7  2 31 16
  25209518.234    24792384.462 6   9900830.468 5
  23472482.898    -5131402.105 8  -3979743.246 9
  23152571.069    -9582376.043 8  -8667307.476 9
  27037767.733    -2428182.807 5  -2396396.123 3
  24562147.389    -9828518.158 7  -6895615.300 7
  25118731.424    -1812470.704 6  -1544981.463 5
  26659798.875      209733.343 5   1388563.431 2
 94  3 23 20 30 30.0090000  0  7 18 19 27  7  2 31 16
  25234492.894    24923602.147 7  10003077.927 5
  23482466.467    -5078939.310 8  -3938863.168 9
  23153048.608    -9579873.777 8  -8665357.670 9
  27023215.177    -2504631.183 5  -2455966.038 3
  24558659.664    -9846816.586 7  -6909873.778 7
  25135677.762    -1723430.721 6  -1475599.695 5
  26669549.955      260973.399 5   1428490.681 2
 94  3 23 20 31  0.0090000  0  7 18 19 27  7  2 31 16
  25259503.650    25055030.191 7  10105489.272 5
  23492498.212    -5026221.328 8  -3897784.234 9
  23153574.324    -9577108.405 8  -8663202.818 9
  27008669.277    -2581078.109 5  -2515534.821 3
  24555225.031    -9864883.658 7  -6923951.972 7
  25152712.120    -1633907.776 6  -1405841.596 5
  26679379.460      312674.268 5   1468776.988 2
 94  3 23 20 31 30.0090000  0  7 18 19 27  7  2 31 16
  25284548.551    25186687.835 6  10208079.536 5
  23502578.374    -4973254.414 8  -3856511.327 9
  23154147.018    -9574101.182 8  -8660859.534 9
  26994117.022    -2657542.738 5  -2575117.444 3
  24551827.124    -9882723.501 7  -6937853.120 7
  25169836.625    -1543908.421 6  -1335712.252 5
  26689308.436      364813.238 5   1509404.667 2
 94  3 23 20 32  0.0090000  0  7 18 19 27  7  2 31 16
  25309652.182    25318599.995 6  10310868.128 5
  23512706.442    -4920037.876 8  -3815043.894 9
  23154767.738    -9570841.643 8  -8658319.616 9
  26979564.796    -2734016.092 5  -2634706.838 3
  24548477.483    -9900336.005 7  -6951577.107 7
  25187051.217    -1453429.663 6  -1265209.312 5
  26699305.735      417381.028 5   1550366.538 2
 94  3 23 20 32 30.0090000  0  7 18 19 27  7  2 31 16
  25334805.549    25450781.413 6  10413866.512 5
  23522878.430    -4866574.279 8  -3773383.968 9
  23155437.654    -9567326.274 8  -8655580.376 9
  26965016.827    -2810494.768 5  -2694300.429 3
  24545169.333    -9917718.805 7  -6965122.093 7
  25204359.525    -1362467.070 6  -1194329.450 5
  26709409.700      470377.894 5   1591662.761 2
 94  3 23 20 33  0.0090000  0  7 18 19 27  7  2 31 16
  25360011.439    25583237.447 6  10517078.873 5
  23533100.633    -4812875.446 8  -3731540.740 9
  23156150.531    -9563569.761 8  -8652653.213 9
  26950456.807    -2886969.532 5  -2753890.942 3
  24541909.210    -9934851.298 7  -6978472.060 7
  25221768.353    -1271018.633 6  -1123070.941 5
  26719563.761      523796.442 5   1633287.508 2
 94  3 23 20 33 30.0090000  0  7 18 19 27  7  2 31 16
  25385267.395    25715954.769 6  10620494.856 5
  23543358.452    -4758947.456 8  -3689518.943 9
  23156909.305    -9559582.052 8  -8649545.908 9
  26935915.674    -2963415.114 5  -2813458.704 2
  24538697.353    -9951731.257 7  -6991625.237 7
  25239262.262    -1179083.846 6  -1051433.469 5
  26729820.171      577650.850 5   1675251.870 2
 94  3 23 20 34  0.0090000  0  7 18 19 27  7  2 31 16
  25410565.621    25848896.757 6  10724085.909 5
  23553665.467    -4704785.359 8  -3647314.734 9
  23157714.068    -9555365.759 8  -8646260.480 9
  26921371.213    -3039818.839 5  -2872993.876 2
  24535532.384    -9968365.372 7  -7004586.835 7
  25256847.219    -1086664.458 6   -979418.419 5
  26740136.059      631945.647 5   1717559.440 2
 94  3 23 20 34 30.0090000  0  7 18 19 27  7  2 31 16
  25435903.690    25982045.376 6  10827837.973 5
  23564020.418    -4650374.003 8  -3604916.277 9
  23158558.344    -9550918.700 8  -8642795.226 9
  26906842.251    -3116170.850 5  -2932488.688 2
  24532417.061    -9984735.464 7  -7017342.698 7
  25274525.350     -993752.912 6   -907019.840 5
  26750565.959      686691.710 5   1760218.621 2
 94  3 23 20 35  0.0090000  0  7 18 19 27  7  2 31 16
  25461272.848    26115373.334 6  10931729.771 4
  23574423.996    -4595708.190 8  -3562319.566 9
  23159450.016    -9546250.341 8  -8639157.551 9
  26892320.484    -3192472.021 5  -2991943.877 2
  24529352.253   -10000846.310 8  -7029896.577 7
  25292298.846     -900358.142 6   -834244.738 5
  26761059.684      741886.460 5   1803227.420 2
 94  3 23 20 35 30.0090000  0  7 18 19 27  7  2 31 16
  25486685.205    26248886.059 6  11035765.543 4
  23584877.819    -4540759.726 8  -3519502.607 9
  23160380.422    -9541339.032 8  -8635330.548 9
  26877821.741    -3268721.367 4  -3051358.685 2
  24526333.942   -10016705.169 8  -7042254.089 7
  25310167.466     -806470.895 6   -761085.887 5
  26771649.793      797548.514 5   1846600.388 2
 94  3 23 20 36  0.0090000  0  7 18 19 27  7  2 31 16
  25512121.156    26382580.619 6  11139942.994 4
  23595388.572    -4485530.870 8  -3476467.141 9
  23161365.540    -9536166.521 8  -8631300.031 9
  26863304.201    -3344940.522 4  -3110749.933 2
  24523358.082   -10032323.121 8  -7054423.873 7
  25328120.807     -712102.814 6   -687552.372 5
  26782344.828      853653.625 5   1890318.578 2
 94  3 23 20 36 30.0090000  0  7 18 19 27  7  2 31 16
  25537604.324    26516472.290 6  11244274.054 4
  23605951.250    -4430032.730 8  -3433221.852 9
  23162403.422    -9530708.031 8  -8627046.655 9
  26848807.347    -3421118.865 4  -3170109.365 2
  24520436.665   -10047693.327 8  -7066400.609 7
  25346173.949     -617251.912 6   -613642.619 5
  26793097.634      910210.128 5   1934388.482 2
 94  3 23 20 37  0.0090000  0  7 18 19 27  7  2 31 16
  25563117.562    26650565.023 6  11348761.781 4
  23616559.496    -4374274.266 8  -3389773.704 9
  23163498.144    -9524958.664 8  -8622566.623 9
  26834325.633    -3497260.409 4  -3229440.164 2
  24517554.640   -10062832.826 8  -7078197.573 7
  25364311.932     -521943.955 6   -539376.725 5
  26803947.393      967216.622 5   1978809.035 2
 94  3 23 20 37 30.0090000  0  7 18 19 27  7  2 31 16
  25588670.012    26784858.543 6  11453405.958 4
  23627219.696    -4318267.194 8  -3346131.857 9
  23164648.987    -9518910.645 8  -8617853.890 9
  26819846.077    -3573375.072 4  -3288749.911 2
  24514716.865   -10077750.392 8  -7089821.619 7
  25382530.050     -426197.982 6   -464769.515 5
  26814886.910     1024652.936 5   2023564.545 2
 94  3 23 20 38  0.0090000  0  7 18 19 27  7  2 31 16
  25614270.310    26919345.648 6  11558200.980 4
  23637920.818    -4262030.257 8  -3302310.885 9
  23165855.652    -9512563.759 8  -8612908.261 9
  26805356.658    -3649442.254 4  -3348022.742 2
  24511920.131   -10092438.697 8  -7101267.016 7
  25400831.001     -330014.557 6   -389821.445 5
  26825877.332     1082508.593 5   2068646.806 2
 94  3 23 20 38 30.0090000  0  7 18 19 27  7  2 31 16
  25639900.766    27054048.560 6  11663164.166 4
  23648666.729    -4205563.012 8  -3258310.449 9
  23167119.247    -9505930.916 8  -8607739.815 9
  26790914.366    -3725438.044 5  -3407239.897 2
  24509170.584   -10106878.547 8  -7112518.810 8
  25419218.261     -233384.112 6   -314525.039 5
  26836975.439     1140801.951 5   2114070.141 2
 94  3 23 20 39  0.0090000  0  7 18 19 27  7  2 31 16
  25665573.373    27188972.233 6  11768299.336 4
  23659457.908    -4148847.316 8  -3214116.416 9
  23168434.796    -9499022.309 8  -8602356.492 9
  26776443.114    -3801368.763 5  -3466406.376 2
  24506476.170   -10121062.007 8  -7123570.799 8
  25437699.777     -136297.963 6   -238873.522 5
  26848134.553     1199517.421 5   2159822.401 2
 94  3 23 20 39 30.0090000  0  7 18 19 27  7  2 31 16
  25691290.080    27324119.376 6  11873608.674 4
  23670296.695    -4091884.981 8  -3169730.205 9
  23169797.323    -9491847.795 8  -8596765.960 9
  26762013.444    -3877229.433 5  -3525518.275 2
  24503829.422   -10134973.725 7  -7134411.075 7
  25456266.104      -38726.080 6   -162843.549 5
  26859387.143     1258630.162 5   2205884.158 2
 94  3 23 20 40  0.0090000  0  7 18 19 27  7  2 31 16
  25717051.756    27459493.904 6  11979095.172 4
  23681183.898    -4034680.089 8  -3125154.987 9
  23171211.924    -9484421.134 8  -8590978.955 9
  26747596.694    -3953013.757 5  -3584570.730 2
  24501230.701   -10148606.547 8  -7145034.009 8
  25474928.874       59337.531 6    -86430.406 5
  26870729.041     1318146.073 5   2252260.097 2
 94  3 23 20 40 30.0090000  0  7 18 19 27  7  2 31 16
  25742852.344    27595091.315 6  12084755.362 4
  23692114.750    -3977236.088 8  -3080393.444 9
  23172672.333    -9476750.357 8  -8585001.730 9
  26733183.752    -4028744.689 5  -3643581.557 2
  24498688.761   -10161971.761 8  -7155448.413 8
  25493681.012      157873.900 6     -9648.849 4
  26882125.172     1378055.335 5   2298942.612 2
 94  3 23 20 41  0.0090000  0  7 18 19 27  7  2 31 16
  25768702.129    27730898.985 6  12190579.394 4
  23703096.238    -3919519.820 8  -3035419.748 9
  23174182.148    -9468810.909 8  -8578815.149 9
  26718776.566    -4104422.603 5  -3702551.091 3
  24496195.777   -10175071.901 8  -7165656.269 8
  25512514.184      256878.309 6     67497.381 4
  26893606.923     1438365.160 5   2345937.142 2
 94  3 23 20 41 30.0090000  0  7 18 19 27  7  2 31 16
  25794578.205    27866901.503 6  12296555.227 4
  23714128.780    -3861537.678 8  -2990238.894 9
  23175741.428    -9460617.702 8  -8572430.852 9
  26704387.367    -4180049.846 5  -3761481.126 3
  24493750.759   -10187917.287 8  -7175665.635 8
  25531440.172      356321.305 6    144985.362 4
  26905156.458     1499093.370 5   2393257.752 2
 94  3 23 20 42  0.0090000  0  7 18 19 27  7  2 31 16
  25820496.252    28003089.094 6  12402675.329 4
  23725216.035    -3803282.772 8  -2944845.448 9
  23177352.273    -9452156.922 8  -8565838.028 9
  26690018.405    -4255625.466 5  -3820370.920 3
  24491355.088   -10200518.764 8  -7185484.929 8
  25550445.665      456182.160 6    222798.995 4
  26916809.750     1560257.189 5   2440917.817 2
 94  3 23 20 42 30.0090000  0  7 18 19 27  7  2 31 16
  25846440.232    28139435.633 6  12508919.249 4
  23736355.153    -3744742.630 8  -2899229.771 9
  23179011.234    -9443431.533 8  -8559039.017 9
  26675636.221    -4331148.810 5  -3879220.002 3
  24488998.929   -10212888.201 8  -7195123.411 8
  25569524.876      556457.340 6    300935.433 4
  26928515.687     1621849.885 5   2488912.053 2
 94  3 23 20 43  0.0090000  0  7 18 19 27  7  2 31 16
  25872415.749    28275931.106 6  12615279.205 4
  23747552.731    -3685912.283 8  -2853387.970 9
  23180721.071    -9434444.384 8  -8552036.038 9
  26661275.743    -4406602.840 5  -3938015.095 3
  24486689.328   -10225031.870 8  -7204585.976 8
  25588687.041      657160.133 6    379405.083 4
  26940314.798     1683880.275 5   2537247.347 2
 94  3 23 20 43 30.0090000  0  7 18 19 27  7  2 31 16
  25898423.285    28412582.973 6  12721761.050 4
  23758799.056    -3626808.357 8  -2807332.983 9
  23182485.799    -9425188.544 8  -8544823.701 9
  26646943.055    -4481961.846 5  -3996736.130 3
  24484420.918   -10236935.402 8  -7213861.427 8
  25607937.554      758319.367 6    458230.424 4
  26952202.528     1746349.695 5   2585924.732 2
 94  3 23 20 44  0.0090000  0  7 18 19 27  7  2 31 16
  25924455.223    28549389.846 6  12828363.652 4
  23770097.394    -3567432.623 8  -2761066.200 9
  23184302.661    -9415633.283 8  -8537378.040 9
  26632622.959    -4557206.963 5  -4055368.407 3
  24482202.514   -10248597.177 8  -7222948.481 8
  25627276.266      859960.843 6    537431.520 4
  26964181.336     1809250.195 5   2634938.074 2
 94  3 23 20 44 30.0090000  0  7 18 19 27  7  2 31 16
  25950514.742    28686336.648 6  12935075.307 4
  23781447.716    -3507810.740 8  -2714607.615 9
  23186173.696    -9405797.422 8  -8529713.731 9
  26618317.192    -4632348.054 5  -4113919.610 3
  24480026.320   -10260035.684 8  -7231861.577 8
  25646707.614      962070.257 6    616997.233 5
  26976207.600     1872560.780 5   2684270.854 2
 94  3 23 20 45  0.0090000  0  7 18 19 27  7  2 31 16
  25976608.048    28823448.119 6  13041915.297 4
  23792832.245    -3447954.067 8  -2667966.055 9
  23188105.738    -9395657.247 8  -8521812.290 9
  26604045.183    -4707382.157 5  -4172387.471 3
  24477898.304   -10271231.876 8  -7240585.825 8
  25666230.338     1064647.944 6    696927.860 5
  26988357.439     1936285.603 5   2733926.532 2
 94  3 23 20 45 30.0090000  0  7 18 19 27  7  2 31 16
  26002734.362    28960735.400 6  13148892.219 4
  23804268.098    -3387859.158 8  -2621138.891 9
  23190094.322    -9385206.779 8  -8513669.068 9
  26589780.818    -4782307.802 5  -4230770.814 2
  24475816.065   -10282167.908 8  -7249107.379 8
  25685833.887     1167680.967 6    777213.269 5
  27000553.476     2000418.367 5   2783899.990 2
 94  3 23 20 46  0.0090000  0  7 18 19 27  7  2 31 16
  26028894.521    29098210.970 6  13256015.882 4
  23815753.027    -3327521.775 8  -2574122.769 9
  23192141.125    -9374438.860 8  -8505278.489 9
  26575540.436    -4857131.543 5  -4289074.796 2
  24473781.763   -10292855.182 8  -7257435.108 8
  25705526.774     1271158.214 6    857844.840 4
  27012840.500     2064963.335 5   2834194.725 2
 94  3 23 20 46 30.0090000  0  7 18 19 27  7  2 31 16
  26055085.650    29235853.690 6  13363269.767 4
  23827277.559    -3266953.123 8  -2526926.438 9
  23194241.351    -9363394.456 8  -8496672.448 9
  26561319.841    -4931889.799 5  -4347327.722 2
  24471792.281   -10303312.476 8  -7265583.611 8
  25725294.429     1375047.546 6    938797.519 4
  27025193.088     2129889.933 5   2884786.804 2
 94  3 23 20 47  0.0090000  0  7 18 19 27  7  2 31 16
  26081314.762    29373665.935 6  13470655.750 4
  23838850.597    -3206132.518 8  -2479533.788 9
  23196395.899    -9352077.847 8  -8487854.331 9
  26547100.385    -5006581.485 5  -4405528.777 2
  24469847.227   -10313530.896 8  -7273545.985 8
  25745144.527     1479351.160 6   1020072.998 4
  27037627.100     2195196.933 5   2935675.268 2
 94  3 23 20 47 30.0090000  0  7 18 19 27  7  2 31 16
  26107557.514    29511637.959 6  13578166.264 4
  23850474.360    -3145047.456 8  -2431935.053 9
  23198603.781    -9340492.054 8  -8478826.429 9
  26532908.749    -5081195.451 5  -4463669.268 2
  24467947.053   -10323518.798 8  -7281328.720 8
  25765073.021     1584077.885 6   1101678.175 4
  27050117.533     2260877.067 5   2986854.518 2
 94  3 23 20 48  0.0090000  0  7 18 19 27  7  2 31 16
  26133849.972    29649757.896 6  13685792.007 4
  23862151.037    -3083686.063 8  -2384121.023 9
  23200858.130    -9328632.834 8  -8469585.478 9
  26518718.643    -5155738.366 5  -4521754.425 2
  24466090.468   -10333278.757 8  -7288933.861 8
  25785077.932     1689233.667 6   1183617.701 4
  27062686.032     2326921.809 5   3038317.840 2
 94  3 23 20 48 30.0090000  0  7 18 19 27  7  2 31 16
  26160161.557    29788008.557 6  13793519.626 4
  23873881.766    -3022037.160 8  -2336082.924 9
  23203165.213    -9316512.404 8  -8460140.988 9
  26504544.366    -5230204.618 5  -4579779.827 2
  24464280.471   -10342794.019 8  -7296348.311 8
  25805174.639     1794808.136 6   1265883.469 4
  27075317.188     2393312.859 5   3090051.076 2
 94  3 23 20 49  0.0090000  0  7 18 19 27  7  2 31 16
  26186498.624    29926406.909 6  13901362.354 4
  23885668.915    -2960109.411 8  -2287827.544 9
  23205525.359    -9304109.531 8  -8450476.389 9
  26490399.528    -5304564.088 5  -4637722.002 2
  24462518.771   -10352050.862 8  -7303561.401 8
  25825340.689     1900797.410 6   1348472.446 4
  27088018.405     2460055.190 5   3142058.044 2
 94  3 23 20 49 30.0090000  0  7 18 19 27  7  2 31 16
  26212860.814    30064960.894 6  14009326.326 4
  23897504.872    -2897897.580 8  -2239350.816 9
  23207943.635    -9291396.923 8  -8440570.454 9
  26476270.459    -5378806.232 5  -4695572.806 2
  24460807.106   -10361046.216 8  -7310570.720 8
  25845589.241     2007197.937 6   1431381.903 4
  27100783.928     2527162.956 5   3194349.691 2
 94  3 23 20 50  0.0090000  0  7 18 19 27  7  2 31 16
  26239246.448    30203669.715 6  14117410.949 4
  23909396.139    -2835405.314 8  -2190655.563 9
  23210418.002    -9278385.080 8  -8430431.356 9
  26462165.524    -5452928.397 5  -4753330.101 3
  24459141.669   -10369786.600 8  -7317381.370 8
  25865917.928     2113992.844 6   1514598.669 4
  27113636.450     2594647.254 5   3246934.791 2
 94  3 23 20 50 30.0090000  0  7 18 19 27  7  2 31 16
  26265677.770    30342517.444 6  14225603.823 4
  23921335.674    -2772671.738 8  -2141772.266 9
  23212951.488    -9265094.300 8  -8420074.902 9
  26448082.294    -5526949.473 5  -4811008.658 3
  24457523.119   -10378301.329 8  -7324016.198 9
  25886302.766     2221147.103 6   1598095.438 4
  27126547.492     2662497.017 5   3299804.684 2
 94  3 23 20 51  0.0090000  0  7 18 19 27  7  2 31 16
  26292129.777    30481511.027 6  14333910.311 4
  23933319.578    -2709695.518 8  -2092699.906 9
  23215534.890    -9251504.245 8  -8409485.248 9
  26434020.798    -5600867.564 5  -4868606.950 3
  24455944.322   -10386596.927 8  -7330480.277 9
  25906767.228     2328668.751 6   1681878.466 4
  27139534.831     2730737.308 5   3352978.816 2
 94  3 23 20 51 30.0090000  0  7 18 19 27  7  2 31 16
  26318598.603    30620628.707 6  14442313.524 4
  23945351.628    -2646462.555 8  -2043427.483 9
  23218176.001    -9237618.152 8  -8398664.919 9
  26419965.628    -5674696.333 5  -4926135.636 3
  24454406.717   -10394688.857 8  -7336785.636 9
  25927301.003     2436568.186 6   1765955.891 4
  27152601.285     2799381.458 5   3406467.716 2
 94  3 23 20 52  0.0100000  0  7 18 19 27  7  2 31 16
  26345104.334    30759871.505 6  14550814.227 4
  23957434.373    -2582973.497 8  -1993955.510 8
  23220875.093    -9223444.057 8  -8387620.162 9
  26405934.112    -5748427.562 5  -4983588.379 3
  24452902.808   -10402563.625 8  -7342921.783 9
  25947910.565     2544861.112 6   1850339.934 4
  27165739.720     2868427.390 5   3460269.631 2
 94  3 23 20 52 30.0100000  0  7 18 19 27  7  2 31 16
  26371612.732    30899235.341 5  14659409.229 4
  23969564.666    -2519231.278 8  -1944286.294 8
  23223630.035    -9208974.580 8  -8376345.251 9
  26391919.834    -5822060.202 5  -5040964.298 3
  24451448.934   -10410220.781 8  -7348888.376 9
  25968588.480     2653550.245 6   1935032.672 4
  27178942.520     2937858.120 5   3514371.423 2
 94  3 23 20 53  0.0100000  0  7 18 19 27  7  2 31 16
  26398155.337    31038714.495 5  14768094.105 4
  23981744.154    -2455230.521 8  -1894415.579 8
  23226435.194    -9194224.821 8  -8364851.951 9
  26377931.578    -5895582.740 6  -5098254.433 3
  24450032.055   -10417665.566 8  -7354689.478 9
  25989351.057     2762643.178 6   2020040.103 4
  27192224.765     3007665.399 4   3568766.643 2
 94  3 23 20 53 30.0100000  0  7 18 19 27  7  2 31 16
  26424729.840    31178316.030 6  14876874.304 3
  23993971.729    -2390970.415 8  -1844342.809 8
  23229293.535    -9179209.775 8  -8353151.904 9
  26363959.241    -5968987.992 5  -5155453.185 3
  24448657.567   -10424886.253 8  -7360315.948 9
  26010187.142     2872139.220 6   2105361.623 4
  27205584.086     3077833.265 5   3623442.820 2
 94  3 23 20 54  0.0100000  0  7 18 19 27  7  2 31 16
  26451312.078    31318059.411 5  14985765.048 3
  24006249.160    -2326444.521 8  -1794062.903 8
  23232201.881    -9163919.730 8  -8341237.593 9
  26350021.350    -6042259.919 6  -5212548.037 3
  24447326.458   -10431869.838 8  -7365757.678 9
  26031099.765     2982040.564 6   2190998.967 4
  27219014.458     3148349.258 5   3678390.275 2
 94  3 23 20 54 30.0100000  0  7 18 19 27  7  2 31 16
  26477935.237    31457944.091 5  15094765.888 3
  24018578.424    -2261645.144 8  -1743569.908 8
  23235168.568    -9148333.984 8  -8329092.866 9
  26336101.596    -6115391.732 6  -5269533.731 4
  24446042.717   -10438617.613 8  -7371015.662 9
  26052095.610     3092354.365 6   2276957.741 4
  27232487.791     3219216.709 5   3733611.540 2
 94  3 23 20 55  0.0100000  0  7 18 19 27  7  2 31 16
  26504583.009    31597945.809 5  15203857.948 3
  24030965.609    -2196567.606 8  -1692860.152 8
  23238191.315    -9132436.532 8  -8316705.242 9
  26322214.850    -6188379.404 6  -5326407.070 4
  24444810.030   -10445114.427 8  -7376078.082 9
  26073159.177     3203067.033 6   2363227.272 3
  27246037.481     3290440.632 5   3789110.633 2
 94  3 23 20 55 30.0100000  0  7 18 19 27  7  2 31 16
  26531245.771    31738054.227 5  15313033.129 3
  24043403.098    -2131206.419 8  -1641929.393 8
  23241282.625    -9116206.121 8  -8304058.183 9
  26308350.888    -6261229.890 5  -5383173.549 4
  24443620.364   -10451353.965 8  -7380940.029 9
  26094304.019     3314172.777 6   2449803.107 3
  27259661.999     3362013.454 5   3844881.578 2
 94  3 23 20 56  0.0100000  0  7 18 19 27  7  2 31 16
  26557911.890    31878237.256 5  15422266.451 3
  24055890.264    -2065572.881 8  -1590786.405 8
  23244434.433    -9099639.086 8  -8291148.806 9
  26294516.995    -6333946.993 5  -5439836.098 4
  24442479.863   -10457358.446 8  -7385618.824 9
  26115514.516     3425648.471 6   2536667.232 3
  27273356.848     3433927.351 5   3900918.288 2
 94  3 23 20 56 30.0100000  0  7 18 19 27  7  2 31 16
  26584612.756    32018502.204 6  15531563.598 3
  24068433.790    -1999655.933 8  -1539422.563 8
  23247653.454    -9082726.327 8  -8277970.043 9
  26280711.102    -6406509.800 5  -5496378.374 4
  24441386.940   -10463105.854 8  -7390097.302 9
  26136796.572     3537484.138 6   2623811.847 3
  27287106.259     3506196.095 5   3957231.507 2
 94  3 23 20 57  0.0100000  0  7 18 19 27  7  2 31 16
  26611312.692    32158852.241 5  15640927.050 3
  24081029.810    -1933467.295 8  -1487847.030 8
  23250936.721    -9065480.891 8  -8264532.056 9
  26266922.688    -6478924.276 5  -5552805.083 4
  24440341.414   -10468589.943 8  -7394370.590 9
  26158139.937     3649658.328 6   2711220.253 3
  27300910.563     3578810.117 5   4013813.762 2
 94  3 23 20 57 30.0100000  0  7 18 19 27  7  2 31 16
  26638050.102    32299307.681 6  15750372.635 3
  24093676.195    -1867021.809 8  -1436071.350 8
  23254276.499    -9047926.607 8  -8250853.394 9
  26253170.248    -6551178.162 5  -5609106.643 4
  24439344.184   -10473821.747 8  -7398447.284 9
  26179546.977     3762174.300 6   2798894.981 3
  27314791.823     3651759.427 5   4070657.291 2
 94  3 23 20 58  0.0100000  0  7 18 19 27  7  2 31 16
  26664800.703    32439896.872 6  15859922.421 3
  24106366.710    -1800326.996 8  -1384101.387 8
  23257673.688    -9030059.147 8  -8236930.702 9
  26239456.452    -6623254.567 5  -5665269.909 5
  24438397.110   -10478806.019 8  -7402331.112 9
  26201031.513     3875042.085 6   2886843.818 3
  27328748.811     3725050.733 5   4127767.327 2
 94  3 23 20 58 30.0100000  0  7 18 19 27  7  2 31 16
  26691581.702    32580635.377 6  15969588.551 3
  24119105.371    -1733382.713 8  -1331937.039 8
  23261135.421    -9011885.169 8  -8222769.175 9
  26225772.635    -6695157.846 5  -5721298.300 5
  24437496.833   -10483538.161 8  -7406018.475 9
  26222584.193     3988283.086 6   2975083.483 4
  27342764.888     3798688.401 5   4185147.226 2
 94  3 23 20 59  0.0100000  0  7 18 19 27  7  2 31 16
  26718393.881    32721522.762 6  16079370.717 3
  24131894.877    -1666183.962 8  -1279574.382 8
  23264649.169    -8993403.534 8  -8208367.910 9
  26212122.155    -6766889.429 6  -5777192.850 5
  24436639.217   -10488037.491 8  -7409524.408 9
  26244201.777     4101919.487 6   3063631.286 4
  27356849.677     3872679.897 5   4242802.873 2
 94  3 23 20 59 30.0100000  0  8 18 19 27 26  7  2 31 16
  26745220.899    32862544.514 5  16189257.569 3
  24144730.251    -1598720.193 8  -1227005.246 8
  23268224.403    -8974623.319 8  -8193733.979 9
  27782487.004    -4797285.13415   -134725.864
  26198503.753    -6838445.395 6  -5832950.591 5
  24435823.871   -10492329.607 8  -7412868.876 9
  26265907.081     4215943.804 6   3152481.318 4
  27370988.819     3947026.166 5   4300734.923 2
 94  3 23 21  0  0.0100000  0  8 18 19 27 26  7  2 31 16
  26772085.871    33003689.628 6  16299240.513 3
  24157625.824    -1530956.694 8  -1174202.549 8
  23271857.888    -8955519.730 8  -8178848.074 9
  27770659.383    -4859426.940 5   -183140.087
  26184928.341    -6909833.521 6  -5888577.547 4
  24435049.088   -10496403.579 8  -7416043.386 9
  26287674.292     4330357.695 6   3241634.915 4
  27385199.641     4021735.419 5   4358949.836 2
 94  3 23 21  0 30.0100000  0  8 18 19 27 26  7  2 31 16
  26798956.508    33144931.854 6  16409299.179 3
  24170582.854    -1462876.038 8  -1121152.718 8
  23275553.460    -8936099.872 8  -8163715.730 9
  27758876.580    -4921388.178 5   -231421.315 1
  26171363.842    -6981059.751 6  -5944078.328 4
  24434314.686   -10500250.624 8  -7419041.051 9
  26309508.596     4445144.899 5   3331079.420 4
  27399486.250     4096807.221 5   4417447.250 2
 94  3 23 21  1  0.0100000  0  8 18 19 27 26  7  2 31 16
  26825854.637    33286241.009 6  16519409.966 3
  24183595.016    -1394487.890 8  -1067863.285 8
  23279313.637    -8916351.698 8  -8148327.540 9
  27747105.559    -4983187.704 5   -279576.816 1
  26157842.872    -7052133.361 6  -5999460.235 4
  24433626.962   -10503878.168 8  -7421867.686 9
  26331431.249     4560278.232 6   3420793.601 4
  27413844.360     4172218.763 5   4476209.387 2
 94  3 23 21  1 30.0100000  0  8 18 19 27 26  7  2 31 16
  26852764.518    33427626.709 6  16629580.400 3
  24196670.973    -1325780.380 8  -1014324.995 8
  23283138.149    -8896250.059 8  -8132663.930 9
  27735393.417    -5044801.481 5   -327587.588 2
  26144351.672    -7123045.279 6  -6054716.111 4
  24432982.618   -10507254.566 8  -7424498.629 9
  26353397.193     4675760.978 5   3510780.108 4
  27428244.022     4247964.055 5   4535231.620 2
 94  3 23 21  2  0.0100000  0  8 18 19 27 26  7  2 31 16
  26879681.833    33569100.564 6  16739819.563 3
  24209805.810    -1256758.381 8   -960541.648 8
  23287034.282    -8875784.277 8  -8116716.556 9
  27723699.982    -5106213.816 4   -375441.330 2
  26130891.890    -7193794.488 6  -6109845.206 4
  24432389.209   -10510369.385 8  -7426925.724 9
  26375449.206     4791607.761 6   3601050.237 4
  27442724.447     4324037.231 4   4594509.338 2
 94  3 23 21  2 30.0100000  0  8 18 19 27 26  7  2 31 16
  26906612.130    33710664.712 5  16850129.050 3
  24222993.680    -1187450.961 8   -906535.911 8
  23290997.208    -8854951.057 8  -8100482.890 9
  27712055.203    -5167417.121 4   -423132.244 2
  26117459.899    -7264367.624 6  -6164837.109 4
  24431847.784   -10513226.667 8  -7429152.150 9
  26397562.438     4907821.777 6   3691606.538 4
  27457277.572     4400433.751 5   4654038.952 2
 94  3 23 21  3  0.0100000  0  8 18 19 27 26  7  2 31 16
  26933578.102    33852343.209 5  16960527.678 3
  24236236.443    -1117858.018 8   -852307.659 8
  23295032.834    -8833748.671 8  -8083961.543 9
  27700449.008    -5228396.639 5   -470648.698 2
  26104060.945    -7334756.539 6  -6219685.468 4
  24431350.728   -10515814.792 8  -7431168.850 9
  26419745.910     5024405.378 6   3782450.842 4
  27471868.501     4477147.521 4   4713815.830 2
 94  3 23 21  3 30.0100000  0  8 18 19 27 26  7  2 31 16
  26960569.346    33994143.692 5  17071021.302 3
  24249532.448    -1047981.615 8   -797858.549 8
  23299129.468    -8812203.182 8  -8067172.848 9
  27688885.983    -5289142.844 5   -517983.417 2
  26090713.225    -7404946.203 6  -6274378.558 4
  24430909.973   -10518145.373 8  -7432984.860 9
  26442001.393     5141356.515 6   3873581.529 4
  27486524.935     4554177.021 4   4773838.726 2
 94  3 23 21  4  0.0100000  0  8 18 19 27 26  7  2 31 16
  26987571.683    34136056.260 5  17181602.302 3
  24262882.206     -977835.871 8   -743199.572 8
  23303293.795    -8790330.832 8  -8050129.470 9
  27677373.923    -5349669.334 5   -565146.913 2
  26077382.834    -7474930.669 6  -6328911.779 4
  24430513.198   -10520236.017 8  -7434613.916 9
  26464330.175     5258675.428 6   3964998.767 4
  27501253.498     4631529.257 4   4834113.060 2
 94  3 23 21  4 30.0100000  0  8 18 19 27 26  7  2 31 16
  27014593.476    34278077.950 5  17292268.239 3
  24276284.068     -907408.316 8   -688320.979 8
  23307523.417    -8768121.625 8  -8032823.601 9
  27665899.157    -5409956.644 5   -612124.041 2
  26064109.882    -7544689.812 6  -6383269.398 4
  24430164.179   -10522064.696 8  -7436038.827 9
  26486724.522     5376366.001 6   4056705.657 4
  27516031.138     4709213.977 4   4894646.516 2
 94  3 23 21  5  0.0100000  0  8 18 19 27 26  7  2 31 16
  27041636.555    34420191.269 5  17403005.644 3
  24289738.904     -836693.361 8   -633218.419 8
  23311805.383    -8745597.261 8  -8015272.151 9
  27654463.543    -5470011.839 5   -658920.313 2
  26050883.039    -7614227.320 6  -6437454.313 4
  24429863.218   -10523644.825 8  -7437270.076 9
  26509184.164     5494405.805 6   4148684.689 4
  27530870.835     4787222.090 4   4955431.981 2
 94  3 23 21  5 30.0100000  0  8 18 19 27 26  7  2 31 16
  27068695.792    34562374.459 5  17513797.445 3
  24303252.438     -765691.069 8   -577892.000 8
  23316154.952    -8722744.468 8  -7997464.781 9
  27643079.584    -5529843.514 5   -705542.392 2
  26037692.441    -7683540.202 6  -6491464.196 4
  24429606.895   -10524991.225 8  -7438319.207 9
  26531720.012     5612802.362 6   4240941.665 4
  27545775.167     4865566.285 3   5016479.264 2
 94  3 23 21  6  0.0100000  0  8 18 19 27 26  7  2 31 16
  27095755.569    34704617.902 5  17624636.241 3
  24316818.167     -694400.984 8   -522341.311 8
  23320572.334    -8699548.030 8  -7979389.646 9
  27631741.254    -5589462.399 5   -751998.603 2
  26024536.288    -7752648.190 6  -6545314.452 4
  24429395.062   -10526098.954 8  -7439182.338 9
  26554309.134     5731538.548 6   4333463.294 4
  27560755.676     4944238.871 3   5077782.499 2
 94  3 23 21  6 30.0100000  0  8 18 19 27 26  7  2 31 16
  27122842.177    34846910.094 5  17735513.016 3
  24330438.908     -622815.329 7   -466560.327 8
  23325052.252    -8675996.441 8  -7961037.756 9
  27620434.791    -5648871.171 5   -798291.103 2
  26011426.184    -7821557.071 6  -6599009.531 5
  24429229.576   -10526968.384 8  -7439859.787 9
  26576970.866     5850586.150 6   4426227.600 4
  27575780.974     5023234.008 3   5139337.048 2
 94  3 23 21  7  0.0100000  0  8 18 19 27 26  7  2 31 16
  27149925.158    34989257.903 5  17846433.135 3
  24344118.977     -550924.194 8   -410541.296 7
  23329606.400    -8652072.399 8  -7942395.650 9
  27609167.991    -5708078.378 5   -844426.623 2
  25998348.698    -7890272.794 6  -6652554.106 5
  24429109.659   -10527606.189 8  -7440356.759 9
  26599679.245     5969940.681 6   4519231.088 3
  27590874.745     5102559.807 3   5201149.245 2
 94  3 23 21  7 30.0100000  0  8 18 19 27 26  7  2 31 16
  27177024.747    35131659.704 5  17957395.329 3
  24357857.806     -478738.499 8   -354292.712 7
  23334230.638    -8627768.170 8  -7923457.280 9
  27597931.230    -5767086.715 5   -890407.068 3
  25985307.006    -7958804.765 6  -6705955.503 5
  24429029.345   -10528018.413 8  -7440677.940 9
  26622450.131     6089598.486 6   4612470.882 3
  27606017.921     5182207.765 3   5263212.534 2
 94  3 23 21  8  0.0100000  0  8 18 19 27 26  7  2 31 16
  27204139.896    35274122.293 5  18068404.844 3
  24371648.649     -406264.831 8   -297819.771 7
  23338926.108    -8603091.192 8  -7904228.471 9
  27586750.020    -5825868.142 5   -936210.794 2
  25972309.145    -8027144.451 6  -6759207.077 5
  24428994.059   -10528190.118 8  -7440811.719 9
  26645277.648     6209551.533 6   4705940.704 3
  27621228.641     5262165.944 3   5325517.421 2
 94  3 23 21  8 30.0100000  0  8 18 19 27 26  7  2 31 16
  27231257.743    35416644.855 5  18179461.095 2
  24385495.103     -333505.976 8   -241124.590 7
  23343685.943    -8578066.977 8  -7884729.089 9
  27575616.598    -5884408.353 5   -981826.496 2
  25959336.915    -8095277.559 6  -6812297.681 5
  24429006.201   -10528132.709 8  -7440766.974 9
  26668161.136     6329806.402 6   4799645.718 3
  27636534.425     5342429.982 3   5388060.773 2
 94  3 23 21  9  0.0100000  0  8 18 19 27 26  7  2 31 16
  27258397.684    35559242.583 5  18290575.965 2
  24399394.381     -260459.506 8   -184205.312 7
  23348510.113    -8552711.078 8  -7864971.249 9
  27564520.649    -5942684.953 5  -1027236.797 2
  25946413.702    -8163194.061 6  -6865219.497 5
  24429065.590   -10527845.708 8  -7440543.311 9
  26691103.474     6450386.470 6   4893604.162 3
  27651848.604     5422986.120 3   5450831.672 2
 94  3 23 21  9 30.0100000  0  8 18 19 27 26  7  2 31 16
  27285547.459    35701910.700 5  18401745.633 2
  24413348.580     -187132.008 8   -127067.042 7
  23353395.111    -8527045.532 8  -7844972.139 9
  27553484.120    -6000687.041 5  -1072433.167 2
  25933530.271    -8230887.570 6  -6917967.556 5
  24429161.344   -10527327.618 8  -7440139.594 9
  26714113.684     6571296.695 6   4987819.862 3
  27667236.141     5503821.520 3   5513820.215 2
 94  3 23 21 10  0.0100000  0  8 18 19 27 26  7  2 31 16
  27312699.062    35844650.523 5  18512971.211 2
  24427358.092     -113507.470 8    -69697.274 7
  23358337.879    -8501074.108 8  -7824734.653 9
  27542508.148    -6058410.927 5  -1117412.829 2
  25920697.624    -8298349.038 6  -6970534.803 5
  24429310.370   -10526561.970 8  -7439542.963 9
  26737187.660     6692551.931 6   5082304.479 2
  27682662.561     5584941.851 3   5577030.751 2
 94  3 23 21 10 30.0100000  0  8 18 19 27 26  7  2 31 16
  27339882.803    35987456.090 5  18624247.997 2
  24441427.022      -39575.291 8    -12087.848 7
  23363339.047    -8474782.092 8  -7804247.390 9
  27531567.612    -6115873.730 5  -1162189.036 2
  25907904.191    -8365576.618 6  -7022919.811 5
  24429495.492   -10525572.533 8  -7438771.954 9
  26760333.946     6814150.651 6   5177056.589 2
  27698161.951     5666354.287 3   5640468.873 2
 94  3 23 21 11  0.0100000  0  8 18 19 27 26  7  2 31 16
  27367069.962    36130310.862 5  18735563.105 2
  24455551.954       34654.709 8     45753.679 7
  23368411.236    -8448143.997 8  -7783490.427 9
  27520675.553    -6173093.103 5  -1206775.505 2
  25895150.300    -8432586.461 6  -7075135.122 5
  24429725.493   -10524352.439 8  -7437821.209 9
  26783532.516     6936077.539 6   5272064.506 2
  27713698.486     5748054.872 3   5704131.533 2
 94  3 23 21 11 30.0100000  0  8 18 19 27 26  7  2 31 16
  27394261.527    36273218.507 5  18846919.410 2
  24469737.863      109193.397 8    103835.759 7
  23373551.027    -8421128.978 8  -7762439.771 9
  27509838.055    -6230063.753 5  -1251168.187 2
  25882442.038    -8499366.111 6  -7127171.093 5
  24430007.088   -10522888.041 8  -7436680.092 9
  26806785.589     7058323.589 5   5367321.141 2
  27729323.699     5830065.265 4   5768035.642 2
 94  3 23 21 12  0.0100000  0  8 18 19 27 26  7  2 31 16
  27421471.171    36416176.152 5  18958314.666 2
  24483982.142      184038.635 8    162156.660 7
  23378764.418    -8393721.406 8  -7741083.239 9
  27499039.111    -6286784.439 5  -1295366.126 2
  25869779.344    -8565912.361 6  -7179025.194 5
  24430332.363   -10521187.219 8  -7435354.761 9
  26830100.058     7180875.575 5   5462816.127 2
  27744969.148     5912379.862 3   5832176.801 2
 94  3 23 21 12 30.0100000  0  8 18 19 27 26  7  2 31 16
  27448678.116    36559182.212 5  19069747.641 2
  24498277.505      259170.964 7    220701.301 7
  23384055.995    -8365919.296 8  -7719419.250 9
  27488296.888    -6343249.739 5  -1339365.037 2
  25857154.215    -8632238.525 6  -7230707.773 5
  24430697.900   -10519266.385 8  -7433857.980 9
  26853487.917     7303707.819 5   5558529.474 2
  27760701.356     5994969.451 4   5896532.216 2
 94  3 23 21 13  0.0100000  0  8 18 19 27 26  7  2 31 16
  27475901.819    36702243.661 5  19181223.808 2
  24512626.592      334584.700 7    279465.203 7
  23389421.950    -8337728.419 8  -7697452.357 9
  27477602.212    -6399450.339 5  -1383157.694 2
  25844579.690    -8698345.339 6  -7282219.469 5
  24431106.547   -10517100.860 8  -7432170.542 9
  26876913.430     7426832.718 5   5654470.924 2
  27776464.654     6077818.666 4   5961089.962 2
 94  3 23 21 13 30.0100000  0  8 18 19 27 26  7  2 31 16
  27503134.126    36845366.659 5  19292747.866 2
  24527033.208      410274.606 7    338444.294 7
  23394856.858    -8309166.173 8  -7675196.054 9
  27466963.117    -6455381.810 5  -1426740.602 2
  25832039.761    -8764217.009 6  -7333547.938 5
  24431564.870   -10514704.829 8  -7430303.492 9
  26900393.655     7550254.716 5   5750643.781 2
  27792288.599     6160908.447 4   6025835.079 2
 94  3 23 21 14  0.0100000  0  8 18 19 27 26  7  2 31 16
  27530382.833    36988535.050 5  19404307.318 2
  24541484.344      486231.349 7    397631.344 7
  23400362.126    -8280238.391 8  -7652654.920 9
  27456375.677    -6511051.229 6  -1470119.337 2
  25819554.574    -8829850.634 6  -7384690.887 5
  24432061.746   -10512081.572 8  -7428259.371 9
  26923946.100     7673979.844 5   5847052.885 2
  27808132.361     6244236.716 4   6090766.104 2
 94  3 23 21 14 30.0100000  0  9 18 19 27 26  7 15  2 31 16
  27557644.730    37131758.505 5  19515909.654 2
  24555991.811      562468.728 7    457037.042 7
  23405937.397    -8250931.887 8  -7629818.703 9
  27445819.265    -6566452.736 6  -1513289.302 3
  25807116.665    -8895220.903 6  -7435628.625 5
  27958676.171      134172.49115   -341632.839 1
  24432612.974   -10509208.237 8  -7426020.383 9
  26947559.043     7798030.266 5   5943715.521 2
  27824047.653     6327830.783 4   6155904.209 2
 94  3 23 21 15  0.0100000  0  9 18 19 27 26  7 15  2 31 16
  27584902.459    37275024.333 5  19627544.998 2
  24570555.998      638999.501 7    516671.357 7
  23411586.236    -8221256.179 8  -7606694.791 9
  27435330.666    -6621596.421 6  -1556258.413 3
  25794722.075    -8960311.337 6  -7486348.383 5
  27951916.361       98607.181 5   -369345.713 1
  24433208.512   -10506074.902 8  -7423578.818 9
  26971219.563     7922401.579 5   6040628.118 2
  27840010.462     6411713.147 5   6221266.998 1
 94  3 23 21 15 30.0100000  0  9 18 19 27 26  7 15  2 31 16
  27612174.160    37418320.146 5  19739203.706 2
  24585176.996      715834.530 7    576542.758 7
  23417302.859    -8191213.253 8  -7583284.736 9
  27424884.308    -6676485.988 5  -1599029.489 3
  25782396.109    -9025120.851 6  -7536849.186 5
  27945185.990       63236.707 5   -396906.881 1
  24433853.125   -10502690.726 8  -7420941.776 9
  26994944.449     8047071.122 5   6137773.128 2
  27856023.546     6495893.312 5   6286861.853 1
 94  3 23 21 16  0.0100000  0  9 18 19 27 26  7 15  2 31 16
  27639434.947    37561640.748 5  19850881.736 2
  24599861.400      792991.123 7    636664.733 7
  23423090.502    -8160794.746 8  -7559582.005 9
  27414498.088    -6731120.234 6  -1641601.568 3
  25770112.233    -9089650.164 6  -7587131.644 5
  27938492.824       28068.623 5   -424310.517
  24434546.575   -10499041.361 8  -7418098.096 9
  27018708.907     8172027.718 5   6235141.840 3
  27872097.009     6580388.975 5   6352702.525 1
 94  3 23 21 16 30.0100000  0  9 18 19 27 26  7 15  2 31 16
  27666723.286    37704988.811 5  19962581.139 2
  24614603.455      870478.095 7    697044.163 7
  23428951.804    -8129996.514 8  -7535583.396 9
  27404136.361    -6785497.541 5  -1683973.498 3
  25757886.906    -9153913.739 6  -7637207.064 5
  27931836.442       -6897.141 5   -451556.490 1
  24435289.851   -10495136.073 8  -7415055.001 9
  27042552.810     8297253.336 6   6332720.143 3
  27888226.622     6665173.613 5   6418768.317 1
 94  3 23 21 17  0.0100000  0  9 18 19 27 26  7 15  2 31 16
  27694002.961    37848361.992 5  20074300.099 3
  24629416.230      948307.616 7    757690.514 7
  23434886.406    -8098807.278 8  -7511280.094 9
  27393847.214    -6839599.080 5  -1726130.508 3
  25745708.107    -9217918.115 6  -7687080.498 5
  27925221.731      -41647.949 6   -478634.889
  24436077.735   -10490983.445 8  -7411819.153 9
  27066437.006     8422750.045 6   6430509.725 3
  27904410.499     6750228.638 4   6485044.929 1
 94  3 23 21 17 30.0100000  0  9 18 19 27 26  7 15  2 31 16
  27721288.871    37991745.991 5  20186027.507 3
  24644285.246     1026448.167 7    818579.219 7
  23440897.844    -8067226.922 8  -7486672.035 9
  27383602.826    -6893418.627 5  -1768067.794 3
  25733570.950    -9281677.226 6  -7736762.815 5
  27918655.317      -76187.490 5   -505548.660
  24436908.820   -10486617.381 8  -7408417.001 9
  27090352.559     8548504.136 5   6528499.840 3
  27920655.862     6835526.851 5   6551510.986 1
 94  3 23 21 18  0.0110000  0  9 18 19 27 26  7 15  2 31 16
  27748562.790    38135142.887 4  20297764.973 3
  24659210.504     1104886.237 7    879699.754 7
  23446981.053    -8035256.306 8  -7461759.873 9
  27373412.821    -6946941.053 5  -1809773.553 3
  25721484.007    -9345196.128 6  -7786257.976 5
  27912110.968     -110510.970 5   -532294.144 1
  24437776.419   -10482054.177 8  -7404861.255 9
  27114336.885     8674527.865 5   6626700.026 3
  27936919.513     6921055.284 5   6618156.343 1
 94  3 23 21 18 30.0110000  0  9 18 19 27 26  7 15  2 31 16
  27775859.762    38278539.164 5  20409501.888 3
  24674187.026     1183607.096 7    941040.637 7
  23453136.511    -8002904.515 8  -7436550.695 9
  27363291.797    -7000138.721 5  -1851226.223 3
  25709446.950    -9408470.170 6  -7835562.331 5
  27905629.844     -144606.585 4   -558861.993 1
  24438681.163   -10477302.962 8  -7401158.987 9
  27138378.112     8800815.372 6   6725105.795 3
  27953235.178     7006801.954 5   6684971.952 1
 94  3 23 21 19  0.0110000  0  9 18 19 27 26  7 15  2 31 16
  27803162.041    38421946.242 4  20521247.280 3
  24689221.468     1262597.225 7   1002591.365 7
  23459362.601    -7970187.121 8  -7411056.626 9
  27353237.598    -7052991.594 5  -1892410.264 3
  25697454.353    -9471483.418 6  -7884663.471 5
  27899184.786     -178468.264 4   -585247.606 1
  24439623.651   -10472348.938 8  -7397298.696 9
  27162463.048     8927380.610 6   6823727.964 3
  27969608.883     7092791.883 5   6751976.907 1
 94  3 23 21 19 30.0110000  0  9 18 19 27 26  7 15  2 31 16
  27830452.359    38565367.794 4  20633003.916 3
  24704302.977     1341852.045 7   1064348.333 7
  23465656.534    -7937112.916 8  -7385284.513 9
  27343231.874    -7105518.658 5  -1933340.371 3
  25685512.330    -9534224.864 6  -7933552.814 5
  27892779.001     -212100.543 3   -611454.363 1
  24440606.041   -10467182.243 8  -7393272.669 9
  27186603.926     9054212.012 5   6922557.561 3
  27986019.312     7179034.486 5   6819178.846 1
 94  3 23 21 20  0.0110000  0  9 18 19 27 26  7 15  2 31 16
  27857741.057    38708802.237 3  20744770.568 3
  24719437.549     1421387.587 7   1126324.014 7
  23472017.740    -7903688.045 8  -7359239.177 9
  27333307.455    -7157747.604 5  -1974038.237 3
  25673625.649    -9596694.630 7  -7982230.503 5
  27886410.330     -245503.353 3   -637482.393 1
  24441633.699   -10461778.660 8  -7389062.095 9
  27210782.727     9181306.419 5   7021592.086 3
  28002478.458     7265534.982 5   6886581.799 1
 94  3 23 21 20 30.0110000  0  9 18 19 27 26  7 15  2 31 16
  27885049.152    38852266.417 3  20856560.396 3
  24734633.909     1501225.416 7   1188535.270 7
  23478447.779    -7869893.418 8  -7332905.716 9
  27323418.411    -7209683.502 5  -2014507.717 3
  25661797.367    -9658870.129 6  -8030678.856 5
  27880127.339     -278660.438 4   -663318.942 1
  24442717.269   -10456095.065 8  -7384633.304 9
  27235020.108     9308677.413 5   7120842.076 3
  28018997.472     7352320.211 5   6954206.500 1
 94  3 23 21 21  0.0110000  0  9 18 19 27 26  7 15  2 31 16
  27912352.630    38995764.117 4  20968376.325 2
  24749882.643     1581366.690 7   1250982.964 7
  23484951.267    -7835718.599 8  -7306275.993 9
  27313595.052    -7261347.332 6  -2054765.218 3
  25650019.841    -9720748.990 6  -8078896.064 5
  27873856.970     -311579.441 4   -688969.938 1
  24443854.891   -10450125.909 8  -7379981.997 9
  27259308.513     9436324.239 5   7220307.089 3
  28035562.504     7439377.436 5   7022043.176 1
 94  3 23 21 21 30.0110000  0  9 18 19 27 26  7 15  2 31 16
  27939664.952    39139301.467 4  21080223.181 2
  24765196.161     1661843.428 7   1313692.057 7
  23491532.071    -7801141.025 8  -7279332.443 9
  27303812.914    -7312742.355 6  -2094813.275 3
  25638303.352    -9782313.686 6  -8126868.486 5
  27867632.829     -344249.149 4   -714426.738 1
  24445044.438   -10443866.377 8  -7375104.439 9
  27283652.171     9564255.686 5   7319993.855 2
  28052180.060     7526705.950 5   7090091.281 1
 94  3 23 21 22  0.0110000  0  9 18 19 27 26  7 15  2 31 16
  27966988.397    39282866.263 5  21192091.391 2
  24780572.457     1742644.654 7   1376654.021 7
  23498185.695    -7766168.197 8  -7252080.895 9
  27294075.954    -7363842.749 5  -2134631.737 3
  25626643.014    -9843577.425 6  -8174606.377 5
  27861481.598     -376671.372 3   -739690.704 1
  24446289.746   -10437330.407 8  -7370011.457 9
  27308054.647     9692475.749 5   7419905.495 2
  28068844.863     7614283.621 5   7158333.543 1
 94  3 23 21 22 30.0110000  0  8 18 19 27 26  7 15  2 31
  27994317.477    39426488.429 5  21304004.429 2
  24796010.779     1823781.253 7   1439877.305 7
  23504921.821    -7730784.297 8  -7224509.037 9
  27284433.700    -7414595.302 5  -2174179.155 3
  25615047.282    -9904527.946 6  -8222100.212 5
  27855351.202     -408830.987 3   -764749.949 2
  24447581.132   -10430529.797 8  -7364712.262 9
  27332503.861     9821001.741 4   7520055.547 2
 94  3 23 21 23  0.0110000  0  7 18 19 27 26  7  2 31
  28021656.721    39570168.162 5  21415962.342 2
  24811517.064     1905255.480 7   1503363.678 7
  23511729.778    -7694983.244 8  -7196612.124 9
  27274838.182    -7464977.030 5  -2213437.603 3
  25603514.176    -9965155.565 6  -8269342.433 6
  24448922.673   -10423488.971 8  -7359225.898 9
  27357026.225     9949829.339 4   7620440.635 2
 94  3 23 21 23 30.0110000  0  7 18 19 27 26  7  2 31
  28049008.615    39713881.671 6  21527946.487 1
  24827080.010     1987055.035 7   1567103.545 7
  23518622.786    -7658770.197 8  -7168394.181 9
  27265330.744    -7514981.194 6  -2252401.876 3
  25592035.423   -10025473.261 6  -8316343.154 6
  24450303.487   -10416236.075 8  -7353574.278 9
  27381602.671    10078935.116 5   7721042.364 2
 94  3 23 21 24  0.0110000  0  7 18 19 27 26  7  2 31
  28076362.039    39857621.664 5  21639951.297 1
  24842707.921     2069165.894 7   1631086.000 7
  23525592.091    -7622139.218 8  -7139850.566 9
  27255875.590    -7564601.031 6  -2291066.662 3
  25580614.979   -10085485.261 7  -8363105.668 6
  24451720.546   -10408783.508 8  -7347767.070 9
  27406215.272    10208303.672 5   7821849.009 2
 94  3 23 21 24 30.0110000  0  7 18 19 27 26  7  2 31
  28103712.225    40001369.421 6  21751962.205 1
  24858391.084     2151585.279 7   1695308.881 7
  23532643.510    -7585085.544 8  -7110977.581 9
  27246503.838    -7613860.502 6  -2329450.625 3
  25569253.024   -10145185.364 7  -8409625.148 6
  24453176.278   -10401128.324 8  -7341801.981 9
  27430879.377    10337908.565 4   7922839.776 2
 94  3 23 21 25  0.0110000  0  7 18 19 27 26  7  2 31
  28131061.212    40145104.139 5  21863962.795 1
  24874139.092     2234327.573 7   1759783.351 7
  23539779.830    -7547587.482 8  -7081758.327 9
  27237199.599    -7662770.016 6  -2367561.890 3
  25557951.298   -10204555.265 7  -8455887.337 6
  24454678.508   -10393243.091 8  -7335657.631 9
  27455588.871    10467743.645 5   8024009.850 2
 94  3 23 21 25 30.0110000  0  8 18 19 27 26  7 15  2 31
  28158410.078    40288818.229 5  21975947.500 1
  24889941.752     2317386.083 7   1824504.239 7
  23546999.491    -7509656.755 8  -7052201.928 9
  27227953.190    -7711360.685 5  -2405424.726 3
  25546712.439   -10263610.343 7  -8501904.214 6
  27819711.125      987064.85315    -15046.123
  24456220.431   -10385123.507 8  -7329330.676 9
  27480326.006    10597792.499 4   8125346.543 2
 94  3 23 21 26  0.0110000  0  8 18 19 27 26  7 15  2 31
  28185751.630    40432519.866 5  22087922.326 2
  24905813.064     2400763.608 7   1889473.709 6
  23554295.361    -7471308.040 8  -7022319.823 9
  27218773.725    -7759642.122 6  -2443046.598 2
  25535538.874   -10322344.379 7  -8547670.902 6
  27813941.679      956818.828 3    -38614.404 1
  24457823.901   -10376740.677 8  -7322798.583 9
  27505121.990    10728063.860 5   8226856.649 2
 94  3 23 21 26 30.0110000  0  8 18 19 27 26  7 15  2 31
  28213098.998    40576215.156 5  22199892.356 2
  24921737.260     2484478.385 7   1954705.975 6
  23561675.591    -7432536.937 8  -6992108.561 9
  27209635.961    -7807610.464 6  -2480424.495 2
  25524424.279   -10380755.863 7  -8593186.265 6
  27808230.453      926867.702 4    -61952.758 1
  24459466.194   -10368075.546 8  -7316046.508 9
  27529956.887    10858580.833 5   8328558.108 2
 94  3 23 21 27  0.0110000  0  7 19 27 26  7 15  2 31
  24937732.567     2568519.379 7   2020192.418 6
  23569130.740    -7393354.598 8  -6961576.884 9
  27200567.269    -7855270.112 6  -2517561.887 2
  25513365.684   -10438856.265 7  -8638459.229 6
  27802598.042      897208.391 4    -85063.910 1
  24461164.338   -10359147.080 8  -7309089.255 9
  27554844.728    10989346.706 6   8430453.503 2
 94  3 23 21 27 30.0110000  0  7 19 27 26  7 15  2 31
  24953791.370     2652899.300 7   2085942.982 6
  23576663.595    -7353755.221 8  -6930720.251 9
  27191560.724    -7902591.501 6  -2554435.678 2
  25502375.833   -10496627.520 7  -8683475.718 6
  27797019.834      867856.549 4   -107935.327 1
  24462916.745   -10349947.777 8  -7301920.964 9
  27579779.696    11120392.167 5   8532566.818 2
 94  3 23 21 28  0.0110000  0  7 19 27 26  7 15  2 31
  24969904.915     2737605.416 7   2151947.695 6
  23584277.574    -7313742.991 8  -6899541.911 9
  27182624.720    -7949551.747 6  -2591028.033 2
  25491440.783   -10554079.757 7  -8728243.607 6
  27791483.117      838805.565 3   -130572.437 2
  24464717.269   -10340497.232 9  -7294556.898 9
  27604757.024    11251713.588 5   8634895.136 2
 94  3 23 21 28 30.0110000  0  7 19 27 26  7 15  2 31
  24986090.799     2822637.701 7   2218206.598 6
  23591974.986    -7273297.897 8  -6868026.241 9
  27173764.534    -7996128.749 5  -2627321.755 3
  25480572.137   -10611203.203 7  -8772755.300 6
  27786013.613      810060.880 4   -152970.700 2
  24466557.994   -10330813.818 8  -7287011.353 9
  27629809.091    11383306.211 5   8737434.745 2
 94  3 23 21 29  0.0110000  0  7 19 27 26  7 15  2 31
  25002330.197     2907987.066 7   2284712.553 6
  23599753.071    -7232425.335 8  -6836177.509 9
  27164975.998    -8042316.422 6  -2663312.130 3
  25469765.488   -10667996.791 7  -8817009.955 6
  27780613.422      781623.158 5   -175129.930 2
  24468444.708   -10320902.641 8  -7279288.345 9
  27654904.028    11515145.000 5   8840166.197 2
 94  3 23 21 29 30.0110000  0  7 19 27 26  7 15  2 31
  25018630.902     2993655.613 7   2351467.226 6
  23607614.229    -7191118.432 8  -6803990.319 9
  27156268.766    -8088108.018 6  -2698993.851 2
  25459021.766   -10724455.538 7  -8861003.693 6
  27775254.392      753495.911 5   -197047.102 2
  24470376.481   -10310742.298 8  -7271371.184 9
  27680037.159    11647225.563 5   8943086.048 2
 94  3 23 21 30  0.0110000  0  7 19 27 26  7 15  2 31
  25034996.782     3079642.120 7   2418469.657 6
  23615560.767    -7149365.298 8  -6771455.423 9
  27147622.752    -8133507.829 6  -2734370.327 2
  25448342.259   -10780570.467 7  -8904729.553 6
  27769954.091      725685.432 4   -218717.474 2
  24472359.308   -10300322.681 9  -7263251.994 9
  27705211.871    11779544.380 5   9046191.536 2
 94  3 23 21 30 30.0110000  0  7 19 27 26  7 15  2 31
  25051419.983     3165947.743 7   2485720.758 6
  23623587.770    -7107169.738 8  -6738575.795 9
  27139046.409    -8178528.791 6  -2769451.584 3
  25437733.563   -10836323.940 7  -8948173.737 6
  27764735.184      698194.797 5   -240138.627 2
  24474393.910   -10289640.330 9  -7254928.064 9
  27730434.460    11912100.481 5   9149481.962 2
 94  3 23 21 31  0.0110000  0  7 19 27 26  7 15  2 31
  25067904.761     3252581.320 7   2553227.369 6
  23631704.711    -7064532.796 8  -6705352.219 9
  27130560.574    -8223168.666 6  -2804235.875 3
  25427189.653   -10891703.095 7  -8991326.253 6
  27759555.040      671033.646 5   -261303.085 2
  24476474.649   -10278685.110 9  -7246391.531 9
  27755708.883    12044903.985 5   9252965.127 2
 94  3 23 21 31 30.0110000  0  7 19 27 26  7 15  2 31
  25084451.236     3339541.777 7   2620988.723 6
  23639901.307    -7021452.088 8  -6671782.858 9
  27122136.106    -8267423.303 6  -2838719.935 3
  25416727.885   -10946703.136 7  -9034183.346 6
  27754455.151      644204.334 4   -282208.856 2
  24478612.199   -10267470.091 9  -7237652.532 9
  27781028.304    12177964.772 5   9356648.773 2
 94  3 23 21 32  0.0110000  0  7 19 27 26  7 15  2 31
  25101064.445     3426836.505 7   2689010.549 6
  23648183.313    -6977935.914 8  -6637874.161 9
  27113795.040    -8311277.364 6  -2872891.902 3
  25406335.190   -11001313.345 7  -9076736.697 6
  27749420.106      617714.230 5   -302850.413 2
  24480792.860   -10256011.828 9  -7228724.029 9
  27806401.179    12311281.573 5   9460531.946 2
 94  3 23 21 32 30.0110000  0  7 19 27 26  7 15  2 31
  25117739.441     3514471.104 7   2757297.182 6
  23656541.767    -6933997.097 8  -6603636.150 9
  27105532.221    -8354729.891 6  -2906750.996 3
  25396016.574   -11055535.685 7  -9118987.809 6
  27744437.256      591562.457 5   -323228.256 2
  24483018.129   -10244310.295 9  -7219605.940 9
  27831808.380    12444826.423 5   9564592.753 2
 94  3 23 21 33  0.0110000  0  7 19 27 26  7 15  2 31
  25134481.890     3602445.134 7   2825848.328 6
  23664983.023    -6889634.531 8  -6569067.925 9
  27097335.475    -8397782.984 6  -2940298.847 3
  25385771.556   -11109380.368 7  -9160944.640 6
  27739525.996      565746.690 5   -343344.378 1
  24485292.205   -10232363.852 9  -7210297.011 9
  27857260.970    12578574.004 5   9668811.572 2
 94  3 23 21 33 30.0110000  0  7 19 27 26  7 15  2 31
  25151294.101     3690778.158 7   2894679.210 6
  23673512.688    -6844828.846 8  -6534154.401 9
  27089215.356    -8440426.556 6  -2973527.559 3
  25375599.838   -11162831.956 7  -9202595.148 6
  27734663.362      540283.172 3   -363186.090 1
  24487614.877   -10220151.653 9  -7200781.000 9
  27882757.329    12712531.242 5   9773193.776 2
 94  3 23 21 34  0.0110000  0  7 19 27 26  7 15  2 31
  25168167.230     3779466.050 7   2963786.609 6
  23682123.117    -6799580.934 8  -6498896.314 9
  27081180.529    -8482668.425 6  -3006443.282 3
  25365507.145   -11215891.080 7  -9243939.849 7
  27729905.986      515172.622 5   -382752.609 1
  24489991.092   -10207660.659 9  -7191047.752 9
  27908280.130    12846681.168 5   9877726.122 2
 94  3 23 21 34 30.0110000  0  7 19 27 26  7 15  2 31
  25185113.329     3868515.419 7   3033175.697 6
  23690817.368    -6753874.069 8  -6463280.575 9
  27073220.739    -8524507.218 6  -3039044.925 4
  25355478.068   -11268561.755 7  -9284981.857 7
  27725183.655      490417.092 3   -402042.553 1
  24492425.467   -10194889.993 9  -7181096.573 9
  27933851.917    12981033.580 4   9982416.203 2
 94  3 23 21 35  0.0110000  0  7 19 27 26  7 15  2 31
  25202126.851     3957917.072 7   3102839.261 6
  23699603.176    -6707709.327 8  -6427308.056 9
  27065341.444    -8565938.891 6  -3071329.307 4
  25345529.575   -11320862.083 7  -9325735.284 7
  27720552.161      466016.050 5   -421056.227 2
  24494902.532   -10181856.682 9  -7170940.751 9
  27959459.409    13115618.338 5  10087287.362 3
 94  3 23 21 35 30.0110000  0  7 19 27 26  7 15  2 31
  25219204.048     4047652.459 7   3172762.879 6
  23708470.737    -6661110.781 8  -6390997.511 9
  27057530.292    -8606969.783 6  -3103301.421 4
  25335642.600   -11372809.052 7  -9366213.396 7
  27715954.244      441959.279 4   -439801.615 1
  24497428.253   -10168587.223 9  -7160600.916 9
  27985116.127    13250437.178 5  10192340.919 3
 94  3 23 21 36  0.0110000  0  7 19 27 26  7 15  2 31
  25236343.693     4137739.417 7   3242960.471 6
  23717424.639    -6614063.759 8  -6354337.506 9
  27049801.972    -8647571.005 6  -3134938.714 4
  25325830.542   -11424386.809 7  -9406403.785 7
  27711454.749      418269.228 5   -458261.390 1
  24500000.712   -10155073.273 9  -7150070.548 9
  28010818.174    13385519.260 4  10297599.611 3
 94  3 23 21 36 30.0110000  0  6 19 27 26  7 15  2
  25253555.377     4228178.697 7   3313432.580 6
  23726462.991    -6566576.570 8  -6317334.501 9
  27042159.093    -8687745.956 6  -3166243.861 4
  25316080.212   -11475597.113 7  -9446307.850 7
  27707016.801      394943.860 5   -476436.945 1
  24502616.252   -10141327.217 9  -7139359.335 9
 94  3 23 21 37  0.0110000  0  6 19 27 26  7 15  2
  25270827.980     4318950.972 7   3384164.172 6
  23735580.400    -6518657.694 8  -6279995.132 9
  27034592.721    -8727514.978 6  -3197232.672 4
  25306406.539   -11526435.381 7  -9485922.030 7
  27702627.300      371980.096 4   -494330.698 1
  24505274.721   -10127352.537 9  -7128469.958 9
 94  3 23 21 37 30.0110000  0  6 19 27 26  7 15  2
  25288166.537     4410053.052 7   3455152.772 6
  23744781.810    -6470295.451 8  -6242310.281 9
  27027088.646    -8766881.288 6  -3227907.709 4
  25296808.534   -11576876.185 7  -9525226.500 7
  27698351.900      349383.474 5   -511938.361 1
  24507979.689   -10113138.497 9  -7117394.082 9
 94  3 23 21 38  0.0110000  0  7 19 27 26  7 15  2 31
  25305564.662     4501477.965 7   3526392.888 6
  23754072.078    -6421479.154 8  -6204271.619 9
  27019690.577    -8805854.773 6  -3258276.633 4
  25287285.566   -11626916.945 7  -9564219.242 7
  27694125.186      327154.867 5   -529259.289 1
  24510734.032   -10098669.071 9  -7106119.198 9
  28114084.714       36288.16814     47696.082
 94  3 23 21 38 30.0110000  0  7 19 27 26  7 15  2 31
  25323020.198     4593225.103 7   3597884.132 6
  23763449.556    -6372194.298 8  -6165867.855 9
  27012345.422    -8844435.926 6  -3288339.821 4
  25277843.483   -11676538.525 7  -9602885.349 7
  27689968.624      305309.914 5   -546281.247 1
  24513539.909   -10083924.538 9  -7094629.946 9
  28139984.894      172422.829 3    153775.671 1
 94  3 23 21 39  0.0110000  0  7 19 27 26  7 15  2 31
  25340537.881     4685275.014 7   3669611.285 6
  23772917.062    -6322442.849 8  -6127100.498 9
  27005071.858    -8882633.982 6  -3318104.532 4
  25268479.915   -11725744.178 7  -9641227.341 7
  27685879.005      283848.371 4   -563004.436 1
  24516397.651   -10068905.938 9  -7082927.122 9
  28165930.882      308739.006 4    259995.902 1
 94  3 23 21 39 30.0110000  0  7 19 27 26  7 15  2 31
  25358110.246     4777627.258 7   3741573.995 6
  23782473.246    -6272229.095 8  -6087972.918 9
  26997867.215    -8920439.807 6  -3347563.640 4
  25259190.876   -11774557.242 7  -9679263.461 7
  27681868.561      262765.619 5   -579432.542 1
  24519308.486   -10053609.993 9  -7071008.212 9
  28191905.110      445251.242 5    366369.088 1
 94  3 23 21 40  0.0110000  0  6 19 27 26  7 15  2
  25375746.286     4870287.945 7   3813777.062 6
  23792117.030    -6221558.231 8  -6048489.140 9
  26990752.961    -8957846.179 6  -3376711.438 4
  25249975.915   -11822984.653 7  -9716999.045 7
  27677936.094      242062.642 5   -595564.605 1
  24522267.168   -10038041.556 9  -7058876.955 9
 94  3 23 21 40 30.0110000  0  6 19 27 26  7 15  2
  25393441.986     4963270.198 7   3886230.701 6
  23801844.216    -6170435.857 8  -6008653.558 9
  26983713.264    -8994835.344 6  -3405534.126 4
  25240833.774   -11871017.666 7  -9754427.324 7
  27674055.250      221743.234 4   -611397.885 1
  24525283.290   -10022214.841 9  -7046544.447 9
 94  3 23 21 41  0.0110000  0  6 19 27 26  7 15  2
  25411199.563     5056596.810 7   3958952.670 6
  23811662.119    -6118847.751 8  -5968455.030 9
  26976765.514    -9031379.295 6  -3434009.916 4
  25231769.819   -11918666.194 7  -9791555.966 8
  27670272.589      201812.100 4   -626928.514 2
  24528341.203   -10006133.386 9  -7034013.425 9
 94  3 23 21 41 30.0110000  0  6 19 27 26  7 15  2
  25429027.201     5150284.788 7   4031956.234 6
  23821566.752    -6066788.881 8  -5927889.692 9
  26969899.397    -9067447.499 6  -3462115.024 4
  25222773.707   -11965926.579 7  -9828382.190 8
  27666550.965      182274.245 4   -642152.752 2
  24531446.873    -9989807.797 9  -7021292.174 9
 94  3 23 21 42  0.0110000  0  6 19 27 26  7 15  2
  25446926.369     5244337.453 7   4105243.965 6
  23831560.814    -6014275.620 8  -5886970.281 9
  26963127.925    -9103042.148 6  -3489851.084 4
  25213860.428   -12012780.583 7  -9864891.750 8
  27662899.583      163132.788 4   -657068.046 2
  24534596.462    -9973264.274 8  -7008401.124 9
 94  3 23 21 42 30.0110000  0  6 19 27 26  7 15  2
  25464891.403     5338752.046 7   4178813.717 6
  23841639.746    -5961302.004 8  -5845692.166 9
  26956442.253    -9138158.870 6  -3517214.731 4
  25205016.280   -12059236.821 7  -9901091.356 8
  27659330.194      144387.347 4   -671674.843 2
  24537786.014    -9956509.250 8  -6995345.247 9
 94  3 23 21 43  0.0110000  0  6 19 27 26  7 15  2
  25482919.392     5433512.621 7   4252653.058 6
  23851808.347    -5907870.905 8  -5804057.543 9
  26949852.365    -9172801.989 6  -3544209.342 4
  25196249.599   -12105306.955 7  -9936990.091 8
  27655848.974      126035.380 5   -685974.950 2
  24541012.471    -9939547.123 8  -6982128.000 9
 94  3 23 21 43 30.0120000  0  6 19 27 26  7 15  2
  25501024.038     5528623.093 7   4326765.046 5
  23862062.268    -5853994.677 8  -5762076.093 9
  26943346.719    -9206981.938 6  -3570843.041 4
  25187562.423   -12150970.001 7  -9972571.630 8
  27652425.404      108085.077 4   -699962.069 2
  24544280.148    -9922366.711 8  -6968740.662 9
 94  3 23 21 44  0.0120000  0  6 19 27 26  7 15  2
  25519185.885     5624066.293 7   4401136.316 5
  23872393.446    -5799686.167 8  -5719757.793 9
  26936925.554    -9240717.808 6  -3597130.706 4
  25178947.467   -12196232.516 7 -10007841.066 8
  27649099.447       90534.613 4   -713637.635 2
  24547596.123    -9904949.407 8  -6955168.728 9
 94  3 23 21 44 30.0120000  0  6 19 27 26  7 15  2
  25537410.149     5719837.768 7   4475763.376 5
  23882816.450    -5744921.769 8  -5677084.247 9
  26930599.064    -9274006.886 6  -3623070.246 4
  25170407.849   -12241102.814 7 -10042804.875 8
  27645827.302       73385.419 4   -727000.540 2
  24550962.582    -9887259.958 8  -6941384.735 9
 94  3 23 21 45  0.0120000  0  6 19 27 26  7 15  2
  25555695.210     5815927.768 7   4550638.656 5
  23893324.176    -5689705.150 8  -5634058.322 9
  26924335.380    -9306873.008 6  -3648680.151 4
  25161948.875   -12285564.084 7 -10077449.949 8
  27642639.009       56637.798 4   -740050.458 2
  24554379.707    -9869299.136 8  -6927389.284 9
 94  3 23 21 45 30.0120000  0  6 19 27 26  7 15  2
  25574039.781     5912335.486 7   4625761.461 5
  23903920.430    -5634027.899 8  -5590673.475 9
  26918159.926    -9339331.145 6  -3673972.189 4
  25153565.869   -12329601.386 7 -10111764.690 8
  27639526.864       40293.835 4   -752785.915 2
  24557852.113    -9851061.189 9  -6913177.879 9
 94  3 23 21 46  0.0120000  0  6 19 27 26  7 15  2
  25592446.528     6009049.270 7   4701122.782 5
  23914605.963    -5577864.444 8  -5546909.770 9
  26912059.959    -9371377.522 6  -3698943.379 4
  25145271.121   -12373207.937 7 -10145743.763 8
  27636500.579       24355.347 4   -765205.404 2
  24561372.875    -9832552.660 9  -6898755.649 9
 94  3 23 21 46 30.0120000  0  6 19 27 26  7 15  2
  25610905.919     6106066.686 7   4776720.705 5
  23925385.660    -5521215.902 8  -5502768.064 9
  26906041.925    -9403018.291 6  -3723598.487 4
  25137056.598   -12416374.236 7 -10179379.782 8
  27633547.503        8823.460 4   -777307.986 2
  24564942.564    -9813802.317 9  -6884144.973 9
 94  3 23 21 47  0.0120000  0  6 19 27 26  7 15  2
  25629427.846     6203390.116 7   4852557.056 5
  23936256.464    -5464100.829 8  -5458262.838 9
  26900101.927    -9434257.250 6  -3747940.525 4
  25128928.715   -12459092.546 7 -10212666.735 8
  27630664.969       -6300.037 4   -789092.402 2
  24568547.988    -9794838.156 9  -6869367.711 9
 94  3 23 21 47 30.0120000  0  6 19 27 26  7 15  2
  25648009.013     6301033.067 7   4928642.419 5
  23947209.412    -5406535.956 8  -5413407.102 9
  26894236.877    -9465062.918 6  -3771944.920 4
  25120880.426   -12501376.621 7 -10245615.302 8
  27627865.387      -21013.326 4   -800557.139 2
  24572198.891    -9775664.558 9  -6854427.234 9
 94  3 23 21 48  0.0120000  0  6 19 27 26  7 15  2
  25666646.181     6398995.874 7   5004976.996 5
  23958245.042    -5348546.789 8  -5368220.761 9
  26888455.410    -9495426.141 6  -3795604.578 4
  25112912.782   -12543249.101 7 -10278243.163 8
  27625133.198      -35320.098 4   -811705.150 2
  24575882.381    -9756300.375 9  -6839338.259 9
 94  3 23 21 48 30.0120000  0  6 19 27 26  7 15  2
  25685358.027     6497303.429 7   5081580.225 5
  23969357.149    -5290139.664 8  -5322708.735 9
  26882764.150    -9525326.039 6  -3818903.164 4
  25105022.275   -12584703.897 7 -10310545.572 8
  27622500.990      -49204.944 4   -822524.336 2
  24579606.582    -9736734.273 9  -6824091.944 9
 94  3 23 21 49  0.0120000  0  6 19 27 26  7 15  2
  25704129.172     6595941.220 7   5158440.774 5
  23980551.430    -5231315.858 8  -5276872.027 9
  26877166.395    -9554752.746 6  -3841833.048 4
  25097214.390   -12625745.465 7 -10342525.950 8
  27619936.476      -62675.353 4   -833020.662 2
  24583368.768    -9716963.421 9  -6808686.077 9
 94  3 23 21 49 30.0120000  0  6 19 27 26  7 15  2
  25722956.408     6694903.317 7   5235554.035 5
  23991829.682    -5172055.002 8  -5230694.755 9
  26871664.844    -9583692.747 6  -3864383.694 5
  25089480.914   -12666378.682 7 -10374188.156 8
  27617450.177      -75726.404 4   -843190.215 2
  24587173.494    -9696970.332 9  -6793107.054 9
 94  3 23 21 50  0.0120000  0  6 19 27 26  7 15  2
  25741842.283     6794161.595 7   5312898.087 5
  24003194.154    -5112340.156 8  -5184163.723 9
  26866241.268    -9612173.829 6  -3886576.711 5
  25081826.973   -12706606.724 7 -10405534.635 8
  27615046.801      -88365.774 4   -853038.928 2
  24591020.221    -9676756.126 9  -6777355.705 9
 94  3 23 21 50 30.0120000  0  6 19 27 26  7 15  2
  25760791.145     6893712.424 7   5390470.088 5
  24014645.927    -5052148.223 8  -5137260.931 9
  26860912.277    -9640186.513 6  -3908404.772 5
  25074253.915   -12746406.295 7 -10436547.229 8
  27612716.904     -100584.645 5   -862560.029 2
  24594913.506    -9656296.637 9  -6761413.254 9
 94  3 23 21 51  0.0120000  0  6 19 27 26  7 15  2
  25779786.895     6993543.347 7   5468260.351 5
  24026191.744    -4991483.361 8  -5089989.623 9
  26855671.875    -9667731.387 6  -3929868.287 5
  25066764.200   -12785786.395 7 -10467232.975 8
  27610474.216     -112385.497 5   -871755.410 2
  24598848.372    -9635585.842 8  -6745274.947 9
 94  3 23 21 51 30.0120000  0  6 19 27 26  7 15  2
  25798840.594     7093669.664 7   5546280.778 5
  24037822.492    -4930352.613 8  -5042355.306 9
  26850513.856    -9694816.991 6  -3950973.942 5
  25059341.609   -12824754.189 7 -10497597.465 8
  27608311.933     -123763.463 4   -880621.280 2
  24602844.455    -9614620.849 8  -6728938.600 9
 94  3 23 21 52  0.0120000  0  6 19 27 26  7 15  2
  25817956.111     7194102.308 7   5624539.924 5
  24049541.529    -4868778.845 8  -4994375.752 9
  26845439.029    -9721457.202 6  -3971732.528 5
  25052008.056   -12863300.045 7 -10527633.122 8
  27606216.774     -134715.795 4   -889155.503 2
  24606876.964    -9593418.675 9  -6712417.418 9
 94  3 23 21 52 30.0120000  0  6 19 27 26  7 15  2
  25837121.003     7294844.328 7   5703040.138 5
  24061336.084    -4806794.701 8  -4946076.441 9
  26840460.736    -9747653.912 6  -3992145.535 5
  25044752.988   -12901431.812 7 -10557346.136 9
  27604225.762     -145248.436 4   -897362.628 2
  24610954.711    -9571996.444 9  -6695724.762 9
 94  3 23 21 53  0.0120000  0  6 19 27 26  7 15  2
  25856352.899     7395911.762 6   5781793.912 5
  24073210.893    -4744395.997 8  -4897454.080 9
  26835567.193    -9773400.638 6  -4012207.887 5
  25037575.057   -12939143.617 7 -10586731.907 9
  27602306.191     -155350.731 5   -905234.485 2
  24615070.831    -9550367.393 9  -6678870.944 9
 94  3 23 21 53 30.0120000  0  6 19 27 26  7 15  2
  25875650.600     7497302.607 6   5860799.698 5
  24085166.436    -4681566.336 8  -4848495.927 9
  26830743.653    -9798710.168 6  -4031929.578 5
  25030484.246   -12976421.618 7 -10615779.658 9
  27600462.258     -165016.339 5   -912766.061 2
  24619224.036    -9528548.253 9  -6661869.008 9
 94  3 23 21 54  0.0120000  0  6 19 27 26  7 15  2
  25895000.015     7598995.116 6   5940040.523 5
  24097205.172    -4618308.144 8  -4799203.849 9
  26826010.200    -9823588.333 6  -4051315.146 5
  25023471.081   -13013259.873 7 -10644484.750 9
  27598705.054     -174251.579 5   -919962.313 2
  24623406.560    -9506559.979 9  -6644735.286 9
 94  3 23 21 54 30.0120000  0  6 19 27 26  7 15  2
  25914411.996     7700988.192 6   6019515.573 5
  24109326.471    -4554602.751 8  -4749563.299 9
  26821360.239    -9848019.928 6  -4070352.724 5
  25016546.145   -13049659.600 7 -10672848.119 9
  27597026.186     -183052.226 4   -926819.889 2
  24627628.837    -9484383.322 9  -6627454.764 9
 94  3 23 21 55  0.0120000  0  6 19 27 26  7 15  2
  25933869.786     7803285.929 6   6099228.009 5
  24121538.756    -4490433.885 8  -4699561.613 9
  26816799.526    -9872005.493 6  -4089042.769 5
  25009701.404   -13085617.299 7 -10700867.068 9
  27595441.603     -191412.321 5   -933334.204 3
  24631882.802    -9462017.163 9  -6610026.590 9
 94  3 23 21 55 30.0120000  0  6 19 27 26  7 15  2
  25953401.324     7905885.585 6   6179175.709 5
  24133836.782    -4425807.242 8  -4649203.210 9
  26812319.457    -9895541.899 6  -4107382.822 5
  25002941.444   -13121145.435 7 -10728551.285 9
  27593928.491     -199331.483 4   -939504.941 3
  24636180.987    -9439449.168 9  -6592441.130 9
 94  3 23 21 56  0.0120000  0  6 19 27 26  7 15  2
  25972987.035     8008798.547 6   6259367.536 5
  24146218.571    -4360736.343 8  -4598498.626 9
  26807934.783    -9918606.004 6  -4125354.825 5
  24996258.590   -13156254.516 7 -10755908.967 9
  27592506.006     -206811.166 5   -945333.202 3
  24640513.677    -9416667.822 9  -6574689.427 9
 94  3 23 21 56 30.0120000  0  6 19 27 26  7 15  2
  25992625.300     8112033.709 6   6339810.430 5
  24158684.751    -4295223.144 8  -4547449.393 9
  26803632.042    -9941185.198 6  -4142948.998 5
  24989662.047   -13190944.030 7 -10782939.726 9
  27591172.769     -213844.878 5   -950813.982 3
  24644893.016    -9393662.449 9  -6556763.164 9
 94  3 23 21 57  0.0120000  0  6 19 27 26  7 15  2
  26012331.348     8215574.543 6   6420491.520 5
  24171237.361    -4229268.323 8  -4496056.035 9
  26799436.056    -9963275.705 6  -4160162.355 5
  24983138.713   -13225215.647 7 -10809644.828 9
  27589912.411     -220431.260 5   -955946.125 3
  24649308.719    -9370446.282 9  -6538672.633 9
 94  3 23 21 57 30.0120000  0  6 19 27 26  7 15  2
  26032093.367     8319404.230 6   6501397.690 5
  24183869.386    -4162874.476 8  -4444320.593 9
  26795319.756    -9984864.763 6  -4176985.012 4
  24976695.364   -13259062.584 7 -10836019.015 9
  27588741.392     -226566.853 5   -960727.062 3
  24653768.971    -9347011.375 9  -6520411.662 9
 94  3 23 21 58  0.0120000  0  6 19 27 26  7 15  2
  26051903.203     8423505.156 6   6582515.201 5
  24196589.879    -4096038.608 8  -4392240.724 9
  26791298.910   -10005949.407 6  -4193414.573 4
  24970343.121   -13292465.330 7 -10862047.078 9
  27587670.383     -232250.877 5   -965156.131 3
  24658270.475    -9323361.794 9  -6501983.409 9
 94  3 23 21 58 30.0120000  0  6 19 27 26  7 15  2
  26071755.999     8527853.035 6   6663825.164 5
  24209392.516    -4028750.069 8  -4339808.136 9
  26787387.428   -10026538.768 6  -4209458.239 4
  24964069.185   -13325425.831 8 -10887730.543 9
  27586669.646     -237482.176 5   -969232.414 3
  24662810.142    -9299506.138 9  -6483394.594 9
 94  3 23 21 59  0.0120000  0  6 19 27 26  7 15  2
  26091663.597     8632457.341 6   6745334.929 5
  24222289.258    -3960985.554 8  -4287004.639 9
  26783571.879   -10046626.330 6  -4225110.873 4
  24957880.869   -13357941.595 7 -10913067.459 9
  27585767.031     -242252.976 5   -972949.836 3
  24667388.872    -9275440.187 9  -6464641.897 9
 94  3 23 21 59 30.0120000  0  6 19 27 26  7 15  2
  26111614.965     8737325.315 6   6827050.167 5
  24235273.239    -3892755.274 8  -4233838.208 9
  26779839.433   -10066222.373 6  -4240380.470 4
  24951779.103   -13390001.938 8 -10938049.485 9
  27584945.749     -246566.807 5   -976311.190 3
  24672008.464    -9251167.665 8  -6445728.241 9
 94  3 23 22  0  0.0120000  0  6 19 27 26  7 15  2
  26131626.591     8842475.742 6   6908985.471 5
  24248346.889    -3824046.146 8  -4180298.654 9
  26776203.910   -10085334.571 6  -4255273.113 4
  24945766.195   -13421611.878 7 -10962680.577 9
  27584210.778     -250423.355 5   -979316.231 3
  24676662.052    -9226694.820 9  -6426658.500 9
 94  3 23 22  0 30.0120000  0  6 19 27 26  7 15  2
  26151706.121     8947944.372 6   6991168.740 4
  24261516.801    -3754849.842 8  -4126379.473 9
  26772656.526   -10103975.338 6  -4269798.359 4
  24939833.992   -13452771.025 8 -10986960.375 9
  27583559.089     -253810.747 5   -981955.663 3
  24681360.070    -9202012.811 9  -6407425.758 9
 94  3 23 22  1  0.0120000  0  6 19 27 26  7 15  2
  26171835.835     9053738.670 6   7073605.753 4
  24274769.757    -3685189.230 8  -4072098.502 9
  26769197.011   -10122156.786 6  -4283965.721 4
  24933994.245   -13483462.628 8 -11010875.859 9
  27583008.461     -256731.239 5   -984231.295 3
  24686099.219    -9177112.078 9  -6388022.593 9
 94  3 23 22  1 30.0120000  0  6 19 27 26  7 15  2
  26192019.962     9159859.179 6   7156296.974 4
  24288113.339    -3615076.218 8  -4017465.028 9
  26765823.926   -10139877.060 6  -4297773.720 4
  24928246.294   -13513671.911 8 -11034415.522 9
  27582542.493     -259174.910 5   -986135.328 3
  24690882.977    -9151974.383 9  -6368434.782 9
 94  3 23 22  2  0.0120000  0  6 19 27 26  7 15  2
  26212281.675     9266302.843 6   7239240.022 4
  24301539.484    -3544516.859 8  -3962483.723 9
  26762541.498   -10157138.570 6  -4311224.224 4
  24922587.442   -13543415.007 8 -11057591.888 9
  27582169.491     -261141.637 5   -987667.733 3
  24695711.045    -9126605.988 9  -6348667.185 9
 94  3 23 22  2 30.0120000  0  6 19 27 26  7 15  2
  26232592.494     9373053.550 6   7322422.310 4
  24315047.563    -3473539.978 8  -3907177.094 9
  26759338.276   -10173938.234 6  -4324314.895 4
  24917014.360   -13572684.766 8 -11080399.455 9
  27581887.087     -262631.547 5   -988828.638 3
  24700581.114    -9101009.113 9  -6328721.573 9
 94  3 23 22  3  0.0120000  0  6 19 27 26  7 15  2
  26252969.417     9480094.907 6   7405831.076 4
  24328633.138    -3402143.654 8  -3851543.629 9
  26756234.914   -10190247.276 6  -4337023.219 4
  24911537.871   -13601473.867 8 -11102832.476 9
  27581683.198     -263640.442 5   -989614.662 3
  24705495.881    -9075187.887 9  -6308601.140 9
 94  3 23 22  3 30.0120000  0  6 19 27 26  7 15  2
  26273392.869     9587427.338 6   7489466.631 4
  24342299.657    -3330315.799 8  -3795573.885 9
  26753229.075   -10206060.955 6  -4349345.552 4
  24906146.074   -13629810.646 7 -11124913.038 9
  27581591.282     -264171.806 5   -990028.606 3
  24710447.613    -9049167.499 9  -6288325.510 9
 94  3 23 22  4  0.0120000  0  6 19 27 26  7 15  2
  26293869.083     9695060.364 6   7573336.444 4
  24356056.173    -3258033.093 8  -3739249.743 9
  26750316.681   -10221362.911 6  -4361269.134 4
  24900839.747   -13657694.842 8 -11146640.944 9
  27581583.997     -264213.369 5   -990060.917 3
  24715435.920    -9022949.718 9  -6267896.073 9
 94  3 23 22  4 30.0120000  0  6 19 27 26  7 15  2
  26314400.640     9802983.402 6   7657432.217 4
  24369894.023    -3185293.319 8  -3682569.424 9
  26747502.020   -10236153.843 6  -4372794.540 4
  24895616.523   -13685136.908 7 -11168024.325 9
  27581670.037     -263774.091 5   -989718.496 3
  24720462.300    -8996536.231 9  -6247314.131 9
 94  3 23 22  5  0.0120000  0  6 19 27 26  7 15  2
  26335005.525     9911210.470 6   7741764.928 4
  24383830.685    -3112069.821 8  -3625512.170 9
  26744779.964   -10250428.544 6  -4383917.686 4
  24890479.490   -13712147.473 8 -11189071.475 9
  27581846.645     -262851.087 5   -988999.166 3
  24725525.885    -8969929.731 9  -6226581.785 9
 94  3 23 22  5 30.0120000  0  6 19 27 26  7 15  2
  26355656.938    10019747.796 6   7826339.368 4
  24397857.465    -3038370.005 8  -3568083.762 9
  26742164.994   -10264192.530 6  -4394642.841 4
  24885417.944   -13738738.229 7 -11209791.506 9
  27582107.584     -261444.974 5   -987903.444 3
  24730621.757    -8943132.007 9  -6205700.440 9
 94  3 23 22  6  0.0120000  0  6 19 27 26  7 15  2
  26376370.109    10128596.402 6   7911156.377 4
  24411972.443    -2964192.797 8  -3510283.372 9
  26739647.907   -10277444.314 6  -4404968.897 4
  24880440.459   -13764879.146 7 -11230160.998 9
  27582462.419     -259548.972 5   -986425.909 3
  24735762.598    -8916128.599 9  -6184658.819 9
 94  3 23 22  6 30.0120000  0  6 19 27 26  7 15  2
  26397136.403    10237761.636 6   7996220.068 4
  24426176.070    -2889551.371 8  -3452121.247 9
  26737215.391   -10290186.776 6  -4414898.099 4
  24875557.050   -13790557.189 7 -11250169.834 9
  27582931.294     -257164.696 5   -984567.955 3
  24740942.622    -8888915.673 9  -6163453.945 9
 94  3 23 22  7  0.0120000  0  6 19 27 26  7 15  2
  26417976.685    10347230.860 6   8081520.707 4
  24440463.189    -2814470.504 8  -3393616.711 9
  26734887.772   -10302440.748 6  -4424446.624 4
  24870756.444   -13815778.887 7 -11269823.056 9
  27583471.190     -254299.100 5   -982334.942 3
  24746155.113    -8861518.273 9  -6142105.322 9
 94  3 23 22  7 30.0130000  0  6 19 27 26  7 15  2
  26438863.526    10457000.280 6   8167055.218 4
  24454833.201    -2738954.180 8  -3334772.854 9
  26732649.192   -10314204.741 6  -4433613.390 4
  24866050.571   -13840524.781 7 -11289105.532 9
  27584106.480     -250941.551 5   -979718.652 3
  24751406.728    -8833924.635 9  -6120603.785 9
 94  3 23 22  8  0.0130000  0  6 19 27 26  7 15  2
  26459800.791    10567029.660 6   8252792.303 4
  24469283.318    -2663015.731 8  -3275600.069 9
  26730501.209   -10325484.842 6  -4442403.075 4
  24861430.530   -13864799.034 7 -11308020.496 9
  27584838.394     -247098.446 5   -976723.926 3
  24756693.208    -8806134.821 9  -6098949.395 9
 94  3 23 22  8 30.0130000  0  6 19 27 26  7 15  2
  26480787.133    10677312.039 6   8338726.518 4
  24483815.817    -2586659.439 8  -3216101.702 9
  26728448.320   -10336266.443 6  -4450804.350 4
  24856892.871   -13888628.611 7 -11326588.967 9
  27585667.440     -242763.127 5   -973345.735 3
  24762019.351    -8778145.864 9  -6077139.820 9
 94  3 23 22  9  0.0130000  0  6 19 27 26  7 15  2
  26501815.655    10787821.164 6   8424837.433 4
  24498424.104    -2509894.361 8  -3156284.761 9
  26726492.624   -10346553.882 6  -4458820.527 5
  24852444.820   -13912024.341 7 -11344819.360 9
  27586581.687     -237942.401 5   -969589.205 3
  24767383.087    -8749964.249 9  -6055180.126 9
 94  3 23 22  9 30.0130000  0  6 19 27 26  7 15  2
  26522886.088    10898545.088 6   8511115.709 4
  24513110.936    -2432708.541 8  -3096140.004 9
  26724631.213   -10356337.304 6  -4466443.968 5
  24848073.876   -13934980.516 8 -11362707.255 9
  27587595.465     -232635.421 5   -965453.867 3
  24772788.585    -8721558.807 9  -6033045.999 9
 94  3 23 22 10  0.0130000  0  6 19 27 26  7 15  2
  26543999.841    11009496.093 6   8597570.920 4
  24527879.013    -2355093.263 8  -3035660.598 9
  26722866.185   -10365613.726 6  -4473672.367 5
  24843789.632   -13957494.331 8 -11380250.449 9
  27588695.553     -226834.844 5   -960933.862 3
  24778239.232    -8692929.918 9  -6010737.781 9
 94  3 23 22 10 30.0130000  0  6 19 27 26  7 15  2
  26565164.439    11120703.916 6   8684226.246 4
  24542731.121    -2277039.022 8  -2974839.139 9
  26721194.662   -10374389.411 6  -4480510.566 5
  24839595.266   -13979538.852 8 -11397427.976 9
  27589897.901     -220538.440 5   -956027.514 3
  24783724.145    -8664090.997 9  -5988265.903 9
 94  3 23 22 11  0.0130000  0  6 19 27 26  7 15  2
  26586370.439    11232163.725 6   8771077.933 4
  24557670.828    -2198542.717 8  -2913673.229 9
  26719615.355   -10382690.760 6  -4486979.154 5
  24835489.548   -14001098.427 8 -11414227.595 9
  27591192.975     -213761.810 5   -950746.950 3
  24789247.941    -8635065.833 9  -5965648.885 9
 94  3 23 22 11 30.0130000  0  6 19 27 26  7 15  2
  26607636.696    11343906.402 6   8858150.085 4
  24572697.625    -2119577.811 8  -2852142.138 9
  26718129.644   -10390502.809 6  -4493066.466 5
  24831484.411   -14022159.162 8 -11430638.522 9
  27592569.262     -206489.726 5   -945080.389 3
  24794803.874    -8605858.838 9  -5942890.187 9
 94  3 23 22 12  0.0130000  0  6 19 27 26  7 15  2
  26628960.514    11455955.114 6   8945460.693 4
  24587814.600    -2040143.454 8  -2790245.283 9
  26716741.874   -10397814.638 6  -4498764.002 5
  24827571.520   -14042716.434 8 -11446657.139 9
  27594044.241     -198719.815 5   -939025.859 3
  24800393.565    -8576495.860 9  -5920009.935 9
 94  3 23 22 12 30.0130000  0  6 19 27 26  7 15  2
  26650340.543    11568311.723 6   9033011.173 4
  24603017.915    -1960243.318 8  -2727985.443 9
  26715445.332   -10404613.693 6  -4504061.963 5
  24823752.734   -14062781.397 8 -11462292.131 9
  27595624.657     -190455.524 5   -932586.110 3
  24806011.675    -8546966.351 9  -5896999.933 9
 94  3 23 22 13  0.0130000  0  6 19 27 26  7 15  2
  26671767.699    11680964.570 6   9120792.514 4
  24618307.300    -1879892.482 8  -2665374.433 9
  26714248.231   -10410894.015 6  -4508955.739 5
  24820024.934   -14082380.136 8 -11477563.839 9
  27597292.282     -181699.644 5   -925763.328 3
  24811664.892    -8517264.353 9  -5873855.517 9
 94  3 23 22 13 30.0130000  0  6 19 27 26  7 15  2
  26693268.815    11793910.717 6   9208802.399 4
  24633682.846    -1799103.210 8  -2602421.774 9
  26713151.920   -10416643.921 6  -4513436.181 5
  24816379.728   -14101528.609 8 -11492484.687 9
  27599043.850     -172445.875 5   -918552.591 3
  24817351.295    -8487381.227 9  -5850569.971 9
 94  3 23 22 14  0.0130000  0  6 19 27 26  7 15  2
  26714816.188    11907133.046 6   9297027.489 4
  24649137.327    -1717886.414 8  -2539135.997 9
  26712161.286   -10421872.308 6  -4517510.251 5
  24812821.431   -14120233.684 8 -11507060.039 9
  27600911.317     -162693.481 5   -910953.266 3
  24823073.464    -8457303.914 9  -5827133.090 9
 94  3 23 22 14 30.0130000  0  6 19 27 26  7 15  2
  26736403.403    12020608.341 6   9385449.697 4
  24664672.003    -1636255.505 7  -2475527.527 8
  26711260.019   -10426598.066 6  -4521192.657 5
  24809342.580   -14138500.628 8 -11521293.997 9
  27602854.481     -152440.829 5   -902964.154 3
  24828836.974    -8427030.567 9  -5803543.479 9
 94  3 23 22 15  0.0130000  0  6 19 27 26  7 15  2
  26758055.704    12134325.554 6   9474060.409 4
  24680283.156    -1554210.364 7  -2411596.289 8
  26710456.636   -10430826.999 6  -4524487.954 5
  24805958.133   -14156314.576 8 -11535174.966 9
  27604909.319     -141678.433 4   -894577.794 3
  24834628.574    -8396577.596 9  -5779813.895 9
 94  3 23 22 15 30.0130000  0  6 19 27 26  7 15  2
  26779741.910    12248274.584 6   9562851.760 4
  24695972.254    -1471755.919 7  -2347346.111 8
  26709742.110   -10434574.680 6  -4527408.216 5
  24802650.402   -14173674.015 8 -11548701.765 9
  27607036.646     -130407.236 4   -885794.998 3
  24840456.300    -8365957.753 9  -5755954.273 9
 94  3 23 22 16  0.0130000  0  6 19 27 26  7 15  2
  26801454.079    12362462.155 6   9651829.023 4
  24711739.689    -1388894.897 7  -2282779.117 8
  26709118.932   -10437841.046 6  -4529953.441 5
  24799434.799   -14190575.227 8 -11561871.511 9
  27609287.488     -118629.588 5   -876617.557 3
  24846316.463    -8335173.629 9  -5731966.655 9
 94  3 23 22 16 30.0130000  0  6 19 27 26  7 15  2
  26823232.712    12476893.175 6   9740995.939 4
  24727585.129    -1305631.765 7  -2217898.776 8
  26708594.595   -10440612.461 6  -4532112.991 5
  24796307.873   -14207008.212 8 -11574676.411 9
  27611627.518     -106343.239 5   -867043.691 2
  24852202.378    -8304237.640 9  -5707860.686 9
 94  3 23 22 17  0.0130000  0  6 19 27 26  7 15  2
  26845064.229    12591574.697 6   9830358.104 4
  24743507.676    -1221957.586 7  -2152698.132 8
  26708166.341   -10442870.111 7  -4533872.162 5
  24793269.806   -14222970.844 8 -11587114.773 9
  27614056.826      -93544.502 5   -857070.591 2
  24858117.973    -8273144.592 9  -5683632.321 9
 94  3 23 22 17 30.0130000  0  6 19 27 26  7 15  2
  26866926.474    12706511.121 6   9919918.833 4
  24759514.914    -1137860.464 7  -2087167.955 8
  26707836.629   -10444605.215 6  -4535224.229 5
  24790323.686   -14238457.303 8 -11599182.134 9
  27616600.206      -80235.338 5   -846699.765 3
  24864068.643    -8241876.435 9  -5659267.544 9
 94  3 23 22 18  0.0130000  0  7 19 27 26  7 15  2 13
  26888864.776    12821712.367 6  10009685.935 4
  24775599.889    -1053323.812 7  -2021295.268 8
  26707610.916   -10445792.379 7  -4536149.285 5
  24787470.112   -14253452.574 8 -11610866.716 9
  27619226.268      -66403.331 5   -835921.554 2
  24870056.728    -8210410.787 9  -5634748.856 9
  28143749.598     -679461.19113    -60083.510
 94  3 23 22 18 30.0130000  0  7 19 27 26  7 15  2 13
  26910822.895    12937154.651 6  10099640.864 4
  24791768.026     -968354.688 8  -1955085.603 8
  26707485.183   -10446460.505 6  -4536669.906 5
  24784709.203   -14267962.542 8 -11622173.160 9
  27621947.873      -52056.614 5   -824742.214 2
  24876079.588    -8178750.077 9  -5610078.183 9
  28127132.252     -766836.892 4   -128168.082
 94  3 23 22 19  0.0130000  0  7 19 27 26  7 15  2 13
  26932822.805    13052846.618 6  10189790.361 4
  24808022.533     -882939.587 8  -1888528.409 8
  26707452.475   -10446621.886 7  -4536795.638 5
  24782036.343   -14281991.004 8 -11633104.399 9
  27624783.310      -37190.698 5   -813158.348 2
  24882145.709    -8146879.373 9  -5585243.864 9
  28110507.471     -854137.521 4   -196194.054 1
 94  3 23 22 19 30.0130000  0  7 19 27 26  7 15  2 13
  26954907.466    13168795.458 6  10280140.002 4
  24824364.580     -797070.678 8  -1821617.609 8
  26707518.759   -10446279.574 7  -4536528.911 5
  24779461.486   -14295534.655 8 -11643657.852 9
  27627707.726      -21796.914 4   -801163.137 2
  24888254.430    -8114790.402 9  -5560239.482 9
  28093911.290     -941352.997 4   -264153.767 1
 94  3 23 22 20  0.0130000  0  7 19 27 26  7 15  2 13
  26977004.388    13285005.026 6  10370692.803 3
  24840786.012     -710763.948 8  -1754365.630 8
  26707672.253   -10445445.723 6  -4535879.152 5
  24776973.778   -14308607.586 8 -11653844.525 9
  27630750.469       -5877.971 5   -788758.670 2
  24894398.467    -8082496.441 9  -5535075.356 9
  28077345.628    -1028484.284 3   -332047.791 1
 94  3 23 22 20 30.0130000  0  7 19 27 26  7 15  2 13
  26999178.268    13401473.030 6  10461447.028 3
  24857293.544     -624015.739 8  -1686769.675 8
  26707928.576   -10444125.823 7  -4534850.636 5
  24774573.430   -14321218.390 8 -11663671.101 9
  27633861.596       10563.756 5   -775946.884 2
  24900580.007    -8050012.169 9  -5509762.937 9
  28060763.568    -1115532.130 3   -399876.796 1
 94  3 23 22 21  0.0130000  0  7 19 27 26  7 15  2 13
  27021384.705    13518201.025 6  10552403.789 3
  24873882.679     -536834.700 8  -1618836.427 8
  26708274.986   -10442290.740 7  -4533420.727 5
  24772262.899   -14333368.800 8 -11673138.913 9
  27637103.611       27532.726 5   -762724.313 2
  24906794.615    -8017348.570 9  -5484310.794 9
  28044213.735    -1202490.894 3   -467636.435 1
 94  3 23 22 21 30.0130000  0  7 19 27 26  7 15  2 13
  27043653.438    13635181.656 6  10643557.438 3
  24890554.738     -449227.296 8  -1550570.933 8
  26708721.917   -10439919.625 6  -4531573.095 5
  24770037.990   -14345054.747 8 -11682244.804 9
  27640431.128       45033.012 5   -749087.665 2
  24913042.440    -7984517.026 9  -5458727.764 9
  28027697.149    -1289354.739 4   -535322.124 2
 94  3 23 22 22  0.0130000  0  7 19 27 26  7 15  2 13
  27065979.372    13752422.897 6  10734914.120 3
  24907307.979     -361186.282 8  -1481967.570 8
  26709278.481   -10437004.559 7  -4529301.616 5
  24767906.045   -14356264.832 8 -11690979.923 9
  27643864.681       63066.270 5   -735035.722 2
  24919320.933    -7951524.886 9  -5433019.606 9
  28011184.820    -1376120.508 4   -602931.419 2
 94  3 23 22 22 30.0130000  0  7 19 27 26  7 15  2 13
  27088323.354    13869919.312 6  10826469.648 3
  24924148.341     -272705.750 8  -1413021.729 8
  26709939.344   -10433534.792 6  -4526597.881 5
  24765860.681   -14366984.450 8 -11699332.836 9
  27647400.373       81639.390 5   -720563.090 2
  24925632.254    -7918369.033 9  -5407183.879 9
  27994688.171    -1462779.631 4   -670457.571 2
 94  3 23 22 23  0.0130000  0  7 19 27 26  7 15  2 13
  27110726.365    13987664.288 5  10918218.853 3
  24941063.891     -183803.131 8  -1343746.987 8
  26710706.603   -10429513.867 6  -4523464.688 5
  24763917.547   -14377216.833 8 -11707306.083 9
  27651025.973      100742.556 4   -705677.453 2
  24931970.076    -7885059.583 9  -5381228.454 9
  27978217.033    -1549340.148 4   -737906.947 2
 94  3 23 22 23 30.0130000  0  7 19 27 26  7 15  2 13
  27133177.582    14105671.407 5  11010172.362 3
  24958067.819      -94449.508 8  -1274120.804 8
  26711574.622   -10424958.320 6  -4519914.915 5
  24762065.938   -14386951.816 8 -11714891.754 9
  27654763.246      120375.916 5   -690378.670 2
  24938337.968    -7851586.768 9  -5355145.750 9
  27961767.931    -1635800.140 5   -805277.946 2
 94  3 23 22 24  0.0130000  0  7 19 27 26  7 15  2 13
  27155692.475    14223937.716 6  11102327.792 3
  24975157.638       -4636.141 7  -1204136.390 8
  26712540.733   -10419880.229 6  -4515957.970 5
  24760309.484   -14396177.589 8 -11722080.644 9
  27658603.587      140543.559 5   -674663.560 2
  24944744.683    -7817928.406 9  -5328918.457 9
  27945328.512    -1722154.124 5   -872566.356 2
